Wetterdaten: Dienstag, 10.09.2024
Datum Zeit Temp. I. Temp. A. Feuchte I. Feuchte A. Luftdruck Regen Wind Richtung Richtung Sonnenschein Solar Taupunkt Windchill Windböen
10.09.2024 00:00 23,9 °C 16,4 °C 59 % 93 % 1005,7 hPa 0,0 l/m² 1,6 km/h (1 Bft) SW 225 ° 0 min 0 W/m² 15,3 °C 16,4 °C 4,8 km/h (1 Bft)
10.09.2024 00:01 23,9 °C 16,4 °C 59 % 92 % 1005,8 hPa 0,0 l/m² 4,8 km/h (1 Bft) SW 225 ° 0 min 0 W/m² 15,1 °C 16,4 °C 6,4 km/h (2 Bft)
10.09.2024 00:02 23,9 °C 16,4 °C 59 % 92 % 1005,8 hPa 0,0 l/m² 3,2 km/h (1 Bft) SW 225 ° 0 min 0 W/m² 15,1 °C 16,4 °C 4,8 km/h (1 Bft)
10.09.2024 00:03 23,9 °C 16,4 °C 59 % 92 % 1005,8 hPa 0,0 l/m² 1,6 km/h (1 Bft) SW 225 ° 0 min 0 W/m² 15,1 °C 16,4 °C 3,2 km/h (1 Bft)
10.09.2024 00:04 23,9 °C 16,4 °C 59 % 92 % 1005,8 hPa 0,0 l/m² 1,6 km/h (1 Bft) SW 225 ° 0 min 0 W/m² 15,1 °C 16,4 °C 3,2 km/h (1 Bft)
10.09.2024 00:05 23,9 °C 16,4 °C 59 % 92 % 1005,7 hPa 0,0 l/m² 0,0 km/h (0 Bft) N 0 ° 0 min 0 W/m² 15,1 °C 16,4 °C 0,0 km/h (0 Bft)
10.09.2024 00:06 23,9 °C 16,4 °C 59 % 92 % 1005,8 hPa 0,0 l/m² 1,6 km/h (1 Bft) SW 225 ° 0 min 0 W/m² 15,1 °C 16,4 °C 4,8 km/h (1 Bft)
10.09.2024 00:07 23,9 °C 16,4 °C 59 % 92 % 1005,8 hPa 0,0 l/m² 0,0 km/h (0 Bft) N 0 ° 0 min 0 W/m² 15,1 °C 16,4 °C 0,0 km/h (0 Bft)
10.09.2024 00:08 23,9 °C 16,4 °C 59 % 92 % 1005,9 hPa 0,0 l/m² 1,6 km/h (1 Bft) SW 225 ° 0 min 0 W/m² 15,1 °C 16,4 °C 3,2 km/h (1 Bft)
10.09.2024 00:09 23,9 °C 16,4 °C 59 % 92 % 1005,8 hPa 0,0 l/m² 1,6 km/h (1 Bft) SW 225 ° 0 min 0 W/m² 15,1 °C 16,4 °C 3,2 km/h (1 Bft)
10.09.2024 00:10 23,9 °C 16,4 °C 59 % 92 % 1005,9 hPa 0,0 l/m² 3,2 km/h (1 Bft) SW 225 ° 0 min 0 W/m² 15,1 °C 16,4 °C 6,4 km/h (2 Bft)
10.09.2024 00:11 23,9 °C 16,4 °C 59 % 92 % 1005,8 hPa 0,0 l/m² 1,6 km/h (1 Bft) SW 225 ° 0 min 0 W/m² 15,1 °C 16,4 °C 3,2 km/h (1 Bft)
10.09.2024 00:12 23,9 °C 16,4 °C 59 % 92 % 1005,9 hPa 0,0 l/m² 0,0 km/h (0 Bft) N 0 ° 0 min 0 W/m² 15,1 °C 16,4 °C 0,0 km/h (0 Bft)
10.09.2024 00:13 23,9 °C 16,4 °C 59 % 92 % 1005,9 hPa 0,0 l/m² 0,0 km/h (0 Bft) N 0 ° 0 min 0 W/m² 15,1 °C 16,4 °C 0,0 km/h (0 Bft)
10.09.2024 00:14 23,9 °C 16,4 °C 59 % 92 % 1005,9 hPa 0,0 l/m² 1,6 km/h (1 Bft) SW 225 ° 0 min 0 W/m² 15,1 °C 16,4 °C 3,2 km/h (1 Bft)
10.09.2024 00:15 23,9 °C 16,4 °C 59 % 92 % 1005,9 hPa 0,0 l/m² 3,2 km/h (1 Bft) SW 225 ° 0 min 0 W/m² 15,1 °C 16,4 °C 4,8 km/h (1 Bft)
10.09.2024 00:16 23,9 °C 16,4 °C 59 % 92 % 1005,9 hPa 0,0 l/m² 3,2 km/h (1 Bft) SW 225 ° 0 min 0 W/m² 15,1 °C 16,4 °C 4,8 km/h (1 Bft)
10.09.2024 00:17 23,9 °C 16,4 °C 59 % 92 % 1005,9 hPa 0,0 l/m² 3,2 km/h (1 Bft) SW 225 ° 0 min 0 W/m² 15,1 °C 16,4 °C 4,8 km/h (1 Bft)
10.09.2024 00:18 23,9 °C 16,4 °C 59 % 92 % 1005,9 hPa 0,0 l/m² 0,0 km/h (0 Bft) SW 225 ° 0 min 0 W/m² 15,1 °C 16,4 °C 1,6 km/h (1 Bft)
10.09.2024 00:19 23,9 °C 16,4 °C 59 % 92 % 1005,9 hPa 0,0 l/m² 3,2 km/h (1 Bft) SW 225 ° 0 min 0 W/m² 15,1 °C 16,4 °C 4,8 km/h (1 Bft)
10.09.2024 00:20 23,9 °C 16,4 °C 59 % 92 % 1005,9 hPa 0,0 l/m² 1,6 km/h (1 Bft) SW 225 ° 0 min 0 W/m² 15,1 °C 16,4 °C 3,2 km/h (1 Bft)
10.09.2024 00:21 23,9 °C 16,4 °C 59 % 92 % 1005,9 hPa 0,0 l/m² 3,2 km/h (1 Bft) SW 225 ° 0 min 0 W/m² 15,1 °C 16,4 °C 4,8 km/h (1 Bft)
10.09.2024 00:22 23,9 °C 16,4 °C 59 % 92 % 1005,9 hPa 0,0 l/m² 4,8 km/h (1 Bft) SW 225 ° 0 min 0 W/m² 15,1 °C 16,4 °C 4,8 km/h (1 Bft)
10.09.2024 00:23 23,9 °C 16,4 °C 59 % 92 % 1005,9 hPa 0,0 l/m² 3,2 km/h (1 Bft) SW 225 ° 0 min 0 W/m² 15,1 °C 16,4 °C 4,8 km/h (1 Bft)
10.09.2024 00:24 23,8 °C 16,4 °C 59 % 92 % 1005,8 hPa 0,0 l/m² 3,2 km/h (1 Bft) SW 225 ° 0 min 0 W/m² 15,1 °C 16,4 °C 3,2 km/h (1 Bft)
10.09.2024 00:25 23,9 °C 16,4 °C 59 % 92 % 1005,9 hPa 0,0 l/m² 1,6 km/h (1 Bft) SW 225 ° 0 min 0 W/m² 15,1 °C 16,4 °C 3,2 km/h (1 Bft)
10.09.2024 00:26 23,9 °C 16,4 °C 59 % 92 % 1005,9 hPa 0,0 l/m² 0,0 km/h (0 Bft) N 0 ° 0 min 0 W/m² 15,1 °C 16,4 °C 0,0 km/h (0 Bft)
10.09.2024 00:27 23,9 °C 16,4 °C 59 % 92 % 1005,8 hPa 0,0 l/m² 0,0 km/h (0 Bft) SW 225 ° 0 min 0 W/m² 15,1 °C 16,4 °C 1,6 km/h (1 Bft)
10.09.2024 00:28 23,9 °C 16,4 °C 59 % 92 % 1005,9 hPa 0,0 l/m² 1,6 km/h (1 Bft) SW 225 ° 0 min 0 W/m² 15,1 °C 16,4 °C 4,8 km/h (1 Bft)
10.09.2024 00:29 23,9 °C 16,4 °C 59 % 92 % 1005,9 hPa 0,0 l/m² 1,6 km/h (1 Bft) SW 225 ° 0 min 0 W/m² 15,1 °C 16,4 °C 3,2 km/h (1 Bft)
10.09.2024 00:30 23,9 °C 16,4 °C 59 % 92 % 1005,9 hPa 0,0 l/m² 1,6 km/h (1 Bft) SW 225 ° 0 min 0 W/m² 15,1 °C 16,4 °C 3,2 km/h (1 Bft)
10.09.2024 00:31 23,9 °C 16,4 °C 59 % 92 % 1005,9 hPa 0,0 l/m² 1,6 km/h (1 Bft) SW 225 ° 0 min 0 W/m² 15,1 °C 16,4 °C 4,8 km/h (1 Bft)
10.09.2024 00:32 23,9 °C 16,4 °C 59 % 92 % 1005,9 hPa 0,0 l/m² 0,0 km/h (0 Bft) SW 225 ° 0 min 0 W/m² 15,1 °C 16,4 °C 1,6 km/h (1 Bft)
10.09.2024 00:33 23,9 °C 16,4 °C 59 % 92 % 1005,9 hPa 0,0 l/m² 0,0 km/h (0 Bft) SW 225 ° 0 min 0 W/m² 15,1 °C 16,4 °C 1,6 km/h (1 Bft)
10.09.2024 00:34 23,9 °C 16,4 °C 59 % 92 % 1005,9 hPa 0,0 l/m² 0,0 km/h (0 Bft) SW 225 ° 0 min 0 W/m² 15,1 °C 16,4 °C 3,2 km/h (1 Bft)
10.09.2024 00:35 23,9 °C 16,4 °C 59 % 92 % 1005,9 hPa 0,0 l/m² 3,2 km/h (1 Bft) SW 225 ° 0 min 0 W/m² 15,1 °C 16,4 °C 4,8 km/h (1 Bft)
10.09.2024 00:36 23,9 °C 16,4 °C 59 % 92 % 1005,9 hPa 0,0 l/m² 3,2 km/h (1 Bft) SW 225 ° 0 min 0 W/m² 15,1 °C 16,4 °C 4,8 km/h (1 Bft)
10.09.2024 00:37 23,9 °C 16,4 °C 59 % 92 % 1005,9 hPa 0,0 l/m² 3,2 km/h (1 Bft) W-SW 247 ° 0 min 0 W/m² 15,1 °C 16,4 °C 4,8 km/h (1 Bft)
10.09.2024 00:38 23,9 °C 16,4 °C 59 % 92 % 1005,8 hPa 0,0 l/m² 3,2 km/h (1 Bft) SW 225 ° 0 min 0 W/m² 15,1 °C 16,4 °C 4,8 km/h (1 Bft)
10.09.2024 00:39 23,9 °C 16,4 °C 59 % 92 % 1005,9 hPa 0,0 l/m² 4,8 km/h (1 Bft) SW 225 ° 0 min 0 W/m² 15,1 °C 16,4 °C 8,0 km/h (2 Bft)
10.09.2024 00:40 23,9 °C 16,4 °C 59 % 92 % 1005,9 hPa 0,0 l/m² 3,2 km/h (1 Bft) SW 225 ° 0 min 0 W/m² 15,1 °C 16,4 °C 4,8 km/h (1 Bft)
10.09.2024 00:41 23,8 °C 16,4 °C 59 % 92 % 1005,8 hPa 0,0 l/m² 4,8 km/h (1 Bft) SW 225 ° 0 min 0 W/m² 15,1 °C 16,4 °C 6,4 km/h (2 Bft)
10.09.2024 00:42 23,9 °C 16,4 °C 59 % 92 % 1005,9 hPa 0,0 l/m² 3,2 km/h (1 Bft) SW 225 ° 0 min 0 W/m² 15,1 °C 16,4 °C 6,4 km/h (2 Bft)
10.09.2024 00:43 23,9 °C 16,4 °C 59 % 92 % 1005,9 hPa 0,0 l/m² 4,8 km/h (1 Bft) SW 225 ° 0 min 0 W/m² 15,1 °C 16,4 °C 6,4 km/h (2 Bft)
10.09.2024 00:44 23,9 °C 16,4 °C 59 % 92 % 1006,0 hPa 0,0 l/m² 3,2 km/h (1 Bft) SW 225 ° 0 min 0 W/m² 15,1 °C 16,4 °C 4,8 km/h (1 Bft)
10.09.2024 00:45 23,8 °C 16,4 °C 59 % 92 % 1005,9 hPa 0,0 l/m² 3,2 km/h (1 Bft) SW 225 ° 0 min 0 W/m² 15,1 °C 16,4 °C 4,8 km/h (1 Bft)
10.09.2024 00:46 23,8 °C 16,4 °C 59 % 92 % 1005,9 hPa 0,0 l/m² 3,2 km/h (1 Bft) SW 225 ° 0 min 0 W/m² 15,1 °C 16,4 °C 4,8 km/h (1 Bft)
10.09.2024 00:47 23,9 °C 16,4 °C 59 % 92 % 1005,9 hPa 0,0 l/m² 3,2 km/h (1 Bft) SW 225 ° 0 min 0 W/m² 15,1 °C 16,4 °C 4,8 km/h (1 Bft)
10.09.2024 00:48 23,9 °C 16,4 °C 59 % 92 % 1005,9 hPa 0,0 l/m² 4,8 km/h (1 Bft) SW 225 ° 0 min 0 W/m² 15,1 °C 16,4 °C 6,4 km/h (2 Bft)
10.09.2024 00:49 23,9 °C 16,4 °C 59 % 92 % 1006,0 hPa 0,0 l/m² 4,8 km/h (1 Bft) SW 225 ° 0 min 0 W/m² 15,1 °C 16,4 °C 6,4 km/h (2 Bft)
10.09.2024 00:50 23,8 °C 16,4 °C 59 % 92 % 1006,0 hPa 0,0 l/m² 1,6 km/h (1 Bft) SW 225 ° 0 min 0 W/m² 15,1 °C 16,4 °C 4,8 km/h (1 Bft)
10.09.2024 00:51 23,9 °C 16,4 °C 59 % 92 % 1006,0 hPa 0,0 l/m² 4,8 km/h (1 Bft) SW 225 ° 0 min 0 W/m² 15,1 °C 16,4 °C 6,4 km/h (2 Bft)
10.09.2024 00:52 23,8 °C 16,4 °C 59 % 92 % 1006,0 hPa 0,0 l/m² 4,8 km/h (1 Bft) SW 225 ° 0 min 0 W/m² 15,1 °C 16,4 °C 6,4 km/h (2 Bft)
10.09.2024 00:53 23,9 °C 16,4 °C 59 % 92 % 1006,0 hPa 0,0 l/m² 3,2 km/h (1 Bft) SW 225 ° 0 min 0 W/m² 15,1 °C 16,4 °C 4,8 km/h (1 Bft)
10.09.2024 00:54 23,8 °C 16,4 °C 59 % 92 % 1005,9 hPa 0,0 l/m² 4,8 km/h (1 Bft) SW 225 ° 0 min 0 W/m² 15,1 °C 16,4 °C 6,4 km/h (2 Bft)
10.09.2024 00:55 23,8 °C 16,4 °C 59 % 92 % 1005,9 hPa 0,0 l/m² 4,8 km/h (1 Bft) SW 225 ° 0 min 0 W/m² 15,1 °C 16,4 °C 6,4 km/h (2 Bft)
10.09.2024 00:56 23,8 °C 16,4 °C 59 % 92 % 1006,0 hPa 0,0 l/m² 3,2 km/h (1 Bft) SW 225 ° 0 min 0 W/m² 15,1 °C 16,4 °C 4,8 km/h (1 Bft)
10.09.2024 00:57 23,8 °C 16,4 °C 59 % 92 % 1006,0 hPa 0,0 l/m² 4,8 km/h (1 Bft) SW 225 ° 0 min 0 W/m² 15,1 °C 16,4 °C 6,4 km/h (2 Bft)
10.09.2024 00:58 23,8 °C 16,4 °C 59 % 92 % 1006,0 hPa 0,0 l/m² 4,8 km/h (1 Bft) SW 225 ° 0 min 0 W/m² 15,1 °C 16,4 °C 8,0 km/h (2 Bft)
10.09.2024 00:59 23,8 °C 16,4 °C 59 % 92 % 1006,0 hPa 0,0 l/m² 6,4 km/h (2 Bft) SW 225 ° 0 min 0 W/m² 15,1 °C 16,4 °C 8,0 km/h (2 Bft)
10.09.2024 01:00 23,8 °C 16,4 °C 59 % 92 % 1006,0 hPa 0,0 l/m² 6,4 km/h (2 Bft) SW 225 ° 0 min 0 W/m² 15,1 °C 16,4 °C 8,0 km/h (2 Bft)
10.09.2024 01:01 23,8 °C 16,4 °C 59 % 92 % 1006,0 hPa 0,0 l/m² 4,8 km/h (1 Bft) SW 225 ° 0 min 0 W/m² 15,1 °C 16,4 °C 6,4 km/h (2 Bft)
10.09.2024 01:02 23,8 °C 16,4 °C 59 % 92 % 1006,0 hPa 0,0 l/m² 4,8 km/h (1 Bft) SW 225 ° 0 min 0 W/m² 15,1 °C 16,4 °C 6,4 km/h (2 Bft)
10.09.2024 01:03 23,8 °C 16,4 °C 59 % 92 % 1006,1 hPa 0,0 l/m² 4,8 km/h (1 Bft) SW 225 ° 0 min 0 W/m² 15,1 °C 16,4 °C 6,4 km/h (2 Bft)
10.09.2024 01:04 23,8 °C 16,4 °C 59 % 92 % 1006,1 hPa 0,0 l/m² 3,2 km/h (1 Bft) SW 225 ° 0 min 0 W/m² 15,1 °C 16,4 °C 4,8 km/h (1 Bft)
10.09.2024 01:05 23,8 °C 16,4 °C 59 % 92 % 1006,1 hPa 0,0 l/m² 3,2 km/h (1 Bft) SW 225 ° 0 min 0 W/m² 15,1 °C 16,4 °C 4,8 km/h (1 Bft)
10.09.2024 01:06 23,8 °C 16,4 °C 59 % 92 % 1006,1 hPa 0,0 l/m² 3,2 km/h (1 Bft) SW 225 ° 0 min 0 W/m² 15,1 °C 16,4 °C 4,8 km/h (1 Bft)
10.09.2024 01:07 23,8 °C 16,4 °C 59 % 92 % 1006,1 hPa 0,0 l/m² 3,2 km/h (1 Bft) SW 225 ° 0 min 0 W/m² 15,1 °C 16,4 °C 4,8 km/h (1 Bft)
10.09.2024 01:08 23,8 °C 16,4 °C 59 % 92 % 1006,2 hPa 0,0 l/m² 3,2 km/h (1 Bft) SW 225 ° 0 min 0 W/m² 15,1 °C 16,4 °C 3,2 km/h (1 Bft)
10.09.2024 01:09 23,8 °C 16,4 °C 59 % 92 % 1006,2 hPa 0,0 l/m² 3,2 km/h (1 Bft) SW 225 ° 0 min 0 W/m² 15,1 °C 16,4 °C 3,2 km/h (1 Bft)
10.09.2024 01:10 23,8 °C 16,4 °C 59 % 92 % 1006,2 hPa 0,0 l/m² 3,2 km/h (1 Bft) SW 225 ° 0 min 0 W/m² 15,1 °C 16,4 °C 4,8 km/h (1 Bft)
10.09.2024 01:11 23,8 °C 16,4 °C 59 % 92 % 1006,2 hPa 0,0 l/m² 3,2 km/h (1 Bft) SW 225 ° 0 min 0 W/m² 15,1 °C 16,4 °C 4,8 km/h (1 Bft)
10.09.2024 01:12 23,8 °C 16,4 °C 59 % 92 % 1006,2 hPa 0,0 l/m² 3,2 km/h (1 Bft) SW 225 ° 0 min 0 W/m² 15,1 °C 16,4 °C 4,8 km/h (1 Bft)
10.09.2024 01:13 23,8 °C 16,4 °C 59 % 92 % 1006,2 hPa 0,0 l/m² 4,8 km/h (1 Bft) SW 225 ° 0 min 0 W/m² 15,1 °C 16,4 °C 6,4 km/h (2 Bft)
10.09.2024 01:14 23,8 °C 16,4 °C 59 % 92 % 1006,3 hPa 0,0 l/m² 3,2 km/h (1 Bft) SW 225 ° 0 min 0 W/m² 15,1 °C 16,4 °C 3,2 km/h (1 Bft)
10.09.2024 01:15 23,8 °C 16,4 °C 59 % 92 % 1006,3 hPa 0,0 l/m² 3,2 km/h (1 Bft) SW 225 ° 0 min 0 W/m² 15,1 °C 16,4 °C 4,8 km/h (1 Bft)
10.09.2024 01:16 23,8 °C 16,4 °C 59 % 92 % 1006,2 hPa 0,0 l/m² 3,2 km/h (1 Bft) SW 225 ° 0 min 0 W/m² 15,1 °C 16,4 °C 3,2 km/h (1 Bft)
10.09.2024 01:17 23,8 °C 16,4 °C 59 % 92 % 1006,2 hPa 0,0 l/m² 3,2 km/h (1 Bft) SW 225 ° 0 min 0 W/m² 15,1 °C 16,4 °C 4,8 km/h (1 Bft)
10.09.2024 01:18 23,8 °C 16,4 °C 59 % 92 % 1006,3 hPa 0,0 l/m² 3,2 km/h (1 Bft) SW 225 ° 0 min 0 W/m² 15,1 °C 16,4 °C 3,2 km/h (1 Bft)
10.09.2024 01:19 23,8 °C 16,4 °C 59 % 92 % 1006,2 hPa 0,0 l/m² 1,6 km/h (1 Bft) SW 225 ° 0 min 0 W/m² 15,1 °C 16,4 °C 3,2 km/h (1 Bft)
10.09.2024 01:20 23,8 °C 16,4 °C 59 % 92 % 1006,2 hPa 0,0 l/m² 1,6 km/h (1 Bft) SW 225 ° 0 min 0 W/m² 15,1 °C 16,4 °C 3,2 km/h (1 Bft)
10.09.2024 01:21 23,8 °C 16,4 °C 59 % 92 % 1006,2 hPa 0,0 l/m² 3,2 km/h (1 Bft) SW 225 ° 0 min 0 W/m² 15,1 °C 16,4 °C 3,2 km/h (1 Bft)
10.09.2024 01:22 23,8 °C 16,4 °C 59 % 92 % 1006,2 hPa 0,0 l/m² 1,6 km/h (1 Bft) SW 225 ° 0 min 0 W/m² 15,1 °C 16,4 °C 3,2 km/h (1 Bft)
10.09.2024 01:23 23,8 °C 16,4 °C 59 % 92 % 1006,3 hPa 0,0 l/m² 1,6 km/h (1 Bft) SW 225 ° 0 min 0 W/m² 15,1 °C 16,4 °C 3,2 km/h (1 Bft)
10.09.2024 01:24 23,8 °C 16,4 °C 59 % 92 % 1006,3 hPa 0,0 l/m² 0,0 km/h (0 Bft) SW 225 ° 0 min 0 W/m² 15,1 °C 16,4 °C 3,2 km/h (1 Bft)
10.09.2024 01:25 23,8 °C 16,4 °C 59 % 92 % 1006,3 hPa 0,0 l/m² 3,2 km/h (1 Bft) SW 225 ° 0 min 0 W/m² 15,1 °C 16,4 °C 4,8 km/h (1 Bft)
10.09.2024 01:26 23,8 °C 16,4 °C 59 % 92 % 1006,3 hPa 0,0 l/m² 3,2 km/h (1 Bft) SW 225 ° 0 min 0 W/m² 15,1 °C 16,4 °C 3,2 km/h (1 Bft)
10.09.2024 01:27 23,8 °C 16,4 °C 59 % 92 % 1006,3 hPa 0,0 l/m² 3,2 km/h (1 Bft) SW 225 ° 0 min 0 W/m² 15,1 °C 16,4 °C 4,8 km/h (1 Bft)
10.09.2024 01:28 23,8 °C 16,4 °C 59 % 92 % 1006,2 hPa 0,0 l/m² 1,6 km/h (1 Bft) SW 225 ° 0 min 0 W/m² 15,1 °C 16,4 °C 3,2 km/h (1 Bft)
10.09.2024 01:29 23,8 °C 16,4 °C 59 % 92 % 1006,3 hPa 0,0 l/m² 1,6 km/h (1 Bft) SW 225 ° 0 min 0 W/m² 15,1 °C 16,4 °C 3,2 km/h (1 Bft)
10.09.2024 01:30 23,8 °C 16,4 °C 59 % 92 % 1006,3 hPa 0,0 l/m² 1,6 km/h (1 Bft) SW 225 ° 0 min 0 W/m² 15,1 °C 16,4 °C 3,2 km/h (1 Bft)
10.09.2024 01:31 23,8 °C 16,4 °C 59 % 92 % 1006,3 hPa 0,0 l/m² 1,6 km/h (1 Bft) SW 225 ° 0 min 0 W/m² 15,1 °C 16,4 °C 3,2 km/h (1 Bft)
10.09.2024 01:32 23,8 °C 16,4 °C 59 % 92 % 1006,3 hPa 0,0 l/m² 3,2 km/h (1 Bft) SW 225 ° 0 min 0 W/m² 15,1 °C 16,4 °C 4,8 km/h (1 Bft)
10.09.2024 01:33 23,8 °C 16,4 °C 59 % 92 % 1006,4 hPa 0,0 l/m² 4,8 km/h (1 Bft) SW 225 ° 0 min 0 W/m² 15,1 °C 16,4 °C 6,4 km/h (2 Bft)
10.09.2024 01:34 23,8 °C 16,4 °C 59 % 92 % 1006,3 hPa 0,0 l/m² 3,2 km/h (1 Bft) SW 225 ° 0 min 0 W/m² 15,1 °C 16,4 °C 4,8 km/h (1 Bft)
10.09.2024 01:35 23,8 °C 16,4 °C 59 % 92 % 1006,4 hPa 0,0 l/m² 3,2 km/h (1 Bft) SW 225 ° 0 min 0 W/m² 15,1 °C 16,4 °C 4,8 km/h (1 Bft)
10.09.2024 01:36 23,8 °C 16,4 °C 59 % 92 % 1006,4 hPa 0,0 l/m² 3,2 km/h (1 Bft) SW 225 ° 0 min 0 W/m² 15,1 °C 16,4 °C 4,8 km/h (1 Bft)
10.09.2024 01:37 23,8 °C 16,4 °C 59 % 92 % 1006,4 hPa 0,0 l/m² 3,2 km/h (1 Bft) SW 225 ° 0 min 0 W/m² 15,1 °C 16,4 °C 4,8 km/h (1 Bft)
10.09.2024 01:38 23,8 °C 16,4 °C 59 % 92 % 1006,4 hPa 0,0 l/m² 3,2 km/h (1 Bft) SW 225 ° 0 min 0 W/m² 15,1 °C 16,4 °C 4,8 km/h (1 Bft)
10.09.2024 01:39 23,8 °C 16,4 °C 59 % 92 % 1006,5 hPa 0,0 l/m² 4,8 km/h (1 Bft) SW 225 ° 0 min 0 W/m² 15,1 °C 16,4 °C 6,4 km/h (2 Bft)
10.09.2024 01:40 23,8 °C 16,4 °C 59 % 92 % 1006,4 hPa 0,0 l/m² 4,8 km/h (1 Bft) SW 225 ° 0 min 0 W/m² 15,1 °C 16,4 °C 4,8 km/h (1 Bft)
10.09.2024 01:41 23,8 °C 16,4 °C 59 % 92 % 1006,5 hPa 0,0 l/m² 3,2 km/h (1 Bft) SW 225 ° 0 min 0 W/m² 15,1 °C 16,4 °C 4,8 km/h (1 Bft)
10.09.2024 01:42 23,8 °C 16,4 °C 59 % 92 % 1006,5 hPa 0,0 l/m² 3,2 km/h (1 Bft) SW 225 ° 0 min 0 W/m² 15,1 °C 16,4 °C 4,8 km/h (1 Bft)
10.09.2024 01:43 23,8 °C 16,4 °C 59 % 92 % 1006,5 hPa 0,0 l/m² 1,6 km/h (1 Bft) SW 225 ° 0 min 0 W/m² 15,1 °C 16,4 °C 3,2 km/h (1 Bft)
10.09.2024 01:44 23,8 °C 16,4 °C 59 % 92 % 1006,5 hPa 0,0 l/m² 1,6 km/h (1 Bft) SW 225 ° 0 min 0 W/m² 15,1 °C 16,4 °C 3,2 km/h (1 Bft)
10.09.2024 01:45 23,8 °C 16,4 °C 59 % 92 % 1006,5 hPa 0,0 l/m² 0,0 km/h (0 Bft) SW 225 ° 0 min 0 W/m² 15,1 °C 16,4 °C 1,6 km/h (1 Bft)
10.09.2024 01:46 23,8 °C 16,4 °C 59 % 92 % 1006,5 hPa 0,0 l/m² 0,0 km/h (0 Bft) N 0 ° 0 min 0 W/m² 15,1 °C 16,4 °C 0,0 km/h (0 Bft)
10.09.2024 01:47 23,8 °C 16,4 °C 59 % 92 % 1006,5 hPa 0,0 l/m² 0,0 km/h (0 Bft) N 0 ° 0 min 0 W/m² 15,1 °C 16,4 °C 0,0 km/h (0 Bft)
10.09.2024 01:48 23,8 °C 16,4 °C 59 % 92 % 1006,4 hPa 0,0 l/m² 0,0 km/h (0 Bft) N 0 ° 0 min 0 W/m² 15,1 °C 16,4 °C 0,0 km/h (0 Bft)
10.09.2024 01:49 23,8 °C 16,4 °C 59 % 92 % 1006,5 hPa 0,0 l/m² 0,0 km/h (0 Bft) N 0 ° 0 min 0 W/m² 15,1 °C 16,4 °C 0,0 km/h (0 Bft)
10.09.2024 01:50 23,8 °C 16,4 °C 59 % 92 % 1006,5 hPa 0,0 l/m² 0,0 km/h (0 Bft) N 0 ° 0 min 0 W/m² 15,1 °C 16,4 °C 0,0 km/h (0 Bft)
10.09.2024 01:51 23,8 °C 16,4 °C 59 % 92 % 1006,4 hPa 0,0 l/m² 0,0 km/h (0 Bft) N 0 ° 0 min 0 W/m² 15,1 °C 16,4 °C 0,0 km/h (0 Bft)
10.09.2024 01:52 23,8 °C 16,4 °C 59 % 92 % 1006,5 hPa 0,0 l/m² 0,0 km/h (0 Bft) N 0 ° 0 min 0 W/m² 15,1 °C 16,4 °C 0,0 km/h (0 Bft)
10.09.2024 01:53 23,8 °C 16,4 °C 59 % 92 % 1006,5 hPa 0,0 l/m² 0,0 km/h (0 Bft) N 0 ° 0 min 0 W/m² 15,1 °C 16,4 °C 0,0 km/h (0 Bft)
10.09.2024 01:54 23,8 °C 16,4 °C 59 % 92 % 1006,5 hPa 0,0 l/m² 0,0 km/h (0 Bft) N 0 ° 0 min 0 W/m² 15,1 °C 16,4 °C 0,0 km/h (0 Bft)
10.09.2024 01:55 23,8 °C 16,4 °C 59 % 92 % 1006,5 hPa 0,0 l/m² 0,0 km/h (0 Bft) N 0 ° 0 min 0 W/m² 15,1 °C 16,4 °C 0,0 km/h (0 Bft)
10.09.2024 01:56 23,8 °C 16,4 °C 59 % 92 % 1006,5 hPa 0,0 l/m² 0,0 km/h (0 Bft) N 0 ° 0 min 0 W/m² 15,1 °C 16,4 °C 0,0 km/h (0 Bft)
10.09.2024 01:57 23,8 °C 16,4 °C 59 % 92 % 1006,5 hPa 0,0 l/m² 0,0 km/h (0 Bft) N 0 ° 0 min 0 W/m² 15,1 °C 16,4 °C 0,0 km/h (0 Bft)
10.09.2024 01:58 23,8 °C 16,4 °C 59 % 92 % 1006,5 hPa 0,0 l/m² 1,6 km/h (1 Bft) SW 225 ° 0 min 0 W/m² 15,1 °C 16,4 °C 3,2 km/h (1 Bft)
10.09.2024 01:59 23,8 °C 16,4 °C 59 % 92 % 1006,6 hPa 0,0 l/m² 4,8 km/h (1 Bft) SW 225 ° 0 min 0 W/m² 15,1 °C 16,4 °C 6,4 km/h (2 Bft)
10.09.2024 02:00 23,8 °C 16,4 °C 59 % 92 % 1006,5 hPa 0,0 l/m² 3,2 km/h (1 Bft) SW 225 ° 0 min 0 W/m² 15,1 °C 16,4 °C 6,4 km/h (2 Bft)
10.09.2024 02:01 23,8 °C 16,4 °C 59 % 92 % 1006,6 hPa 0,0 l/m² 4,8 km/h (1 Bft) SW 225 ° 0 min 0 W/m² 15,1 °C 16,4 °C 6,4 km/h (2 Bft)
10.09.2024 02:02 23,8 °C 16,4 °C 59 % 92 % 1006,5 hPa 0,0 l/m² 4,8 km/h (1 Bft) SW 225 ° 0 min 0 W/m² 15,1 °C 16,4 °C 8,0 km/h (2 Bft)
10.09.2024 02:03 23,8 °C 16,4 °C 59 % 92 % 1006,5 hPa 0,0 l/m² 6,4 km/h (2 Bft) SW 225 ° 0 min 0 W/m² 15,1 °C 16,4 °C 9,7 km/h (2 Bft)
10.09.2024 02:04 23,8 °C 16,4 °C 59 % 92 % 1006,5 hPa 0,0 l/m² 6,4 km/h (2 Bft) SW 225 ° 0 min 0 W/m² 15,1 °C 16,4 °C 9,7 km/h (2 Bft)
10.09.2024 02:05 23,8 °C 16,4 °C 59 % 92 % 1006,6 hPa 0,0 l/m² 4,8 km/h (1 Bft) SW 225 ° 0 min 0 W/m² 15,1 °C 16,4 °C 8,0 km/h (2 Bft)
10.09.2024 02:06 23,8 °C 16,4 °C 59 % 92 % 1006,5 hPa 0,0 l/m² 4,8 km/h (1 Bft) SW 225 ° 0 min 0 W/m² 15,1 °C 16,4 °C 8,0 km/h (2 Bft)
10.09.2024 02:07 23,8 °C 16,4 °C 59 % 92 % 1006,6 hPa 0,0 l/m² 4,8 km/h (1 Bft) SW 225 ° 0 min 0 W/m² 15,1 °C 16,4 °C 9,7 km/h (2 Bft)
10.09.2024 02:08 23,8 °C 16,4 °C 59 % 92 % 1006,5 hPa 0,0 l/m² 4,8 km/h (1 Bft) SW 225 ° 0 min 0 W/m² 15,1 °C 16,4 °C 8,0 km/h (2 Bft)
10.09.2024 02:09 23,8 °C 16,4 °C 59 % 92 % 1006,5 hPa 0,0 l/m² 3,2 km/h (1 Bft) SW 225 ° 0 min 0 W/m² 15,1 °C 16,4 °C 4,8 km/h (1 Bft)
10.09.2024 02:10 23,8 °C 16,4 °C 59 % 92 % 1006,5 hPa 0,0 l/m² 4,8 km/h (1 Bft) SW 225 ° 0 min 0 W/m² 15,1 °C 16,4 °C 8,0 km/h (2 Bft)
10.09.2024 02:11 23,8 °C 16,4 °C 59 % 92 % 1006,5 hPa 0,0 l/m² 6,4 km/h (2 Bft) SW 225 ° 0 min 0 W/m² 15,1 °C 16,4 °C 8,0 km/h (2 Bft)
10.09.2024 02:12 23,8 °C 16,4 °C 59 % 92 % 1006,6 hPa 0,0 l/m² 8,0 km/h (2 Bft) SW 225 ° 0 min 0 W/m² 15,1 °C 15,6 °C 11,3 km/h (2 Bft)
10.09.2024 02:13 23,8 °C 16,4 °C 59 % 92 % 1006,6 hPa 0,0 l/m² 8,0 km/h (2 Bft) W-SW 247 ° 0 min 0 W/m² 15,1 °C 15,6 °C 11,3 km/h (2 Bft)
10.09.2024 02:14 23,8 °C 16,4 °C 59 % 92 % 1006,5 hPa 0,0 l/m² 6,4 km/h (2 Bft) W-SW 247 ° 0 min 0 W/m² 15,1 °C 16,4 °C 9,7 km/h (2 Bft)
10.09.2024 02:15 23,8 °C 16,4 °C 59 % 92 % 1006,5 hPa 0,0 l/m² 6,4 km/h (2 Bft) SW 225 ° 0 min 0 W/m² 15,1 °C 16,4 °C 8,0 km/h (2 Bft)
10.09.2024 02:16 23,8 °C 16,4 °C 59 % 92 % 1006,6 hPa 0,0 l/m² 8,0 km/h (2 Bft) W-SW 247 ° 0 min 0 W/m² 15,1 °C 15,6 °C 11,3 km/h (2 Bft)
10.09.2024 02:17 23,8 °C 16,4 °C 59 % 92 % 1006,7 hPa 0,2 l/m² 8,0 km/h (2 Bft) SW 225 ° 0 min 0 W/m² 15,1 °C 15,6 °C 12,9 km/h (3 Bft)
10.09.2024 02:18 23,8 °C 16,4 °C 59 % 92 % 1006,7 hPa 0,0 l/m² 6,4 km/h (2 Bft) SW 225 ° 0 min 0 W/m² 15,1 °C 16,4 °C 12,9 km/h (3 Bft)
10.09.2024 02:19 23,8 °C 16,4 °C 59 % 92 % 1006,6 hPa 0,0 l/m² 6,4 km/h (2 Bft) SW 225 ° 0 min 0 W/m² 15,1 °C 16,4 °C 11,3 km/h (2 Bft)
10.09.2024 02:20 23,8 °C 16,4 °C 59 % 92 % 1006,6 hPa 0,0 l/m² 4,8 km/h (1 Bft) SW 225 ° 0 min 0 W/m² 15,1 °C 16,4 °C 6,4 km/h (2 Bft)
10.09.2024 02:21 23,8 °C 16,4 °C 59 % 92 % 1006,6 hPa 0,0 l/m² 6,4 km/h (2 Bft) SW 225 ° 0 min 0 W/m² 15,1 °C 16,4 °C 8,0 km/h (2 Bft)
10.09.2024 02:22 23,8 °C 16,4 °C 59 % 92 % 1006,7 hPa 0,0 l/m² 6,4 km/h (2 Bft) W-SW 247 ° 0 min 0 W/m² 15,1 °C 16,4 °C 8,0 km/h (2 Bft)
10.09.2024 02:23 23,8 °C 16,4 °C 59 % 92 % 1006,6 hPa 0,0 l/m² 6,4 km/h (2 Bft) W-SW 247 ° 0 min 0 W/m² 15,1 °C 16,4 °C 9,7 km/h (2 Bft)
10.09.2024 02:24 23,8 °C 16,4 °C 59 % 92 % 1006,8 hPa 0,0 l/m² 6,4 km/h (2 Bft) SW 225 ° 0 min 0 W/m² 15,1 °C 16,4 °C 8,0 km/h (2 Bft)
10.09.2024 02:25 23,8 °C 16,4 °C 59 % 92 % 1006,7 hPa 0,0 l/m² 6,4 km/h (2 Bft) W-SW 247 ° 0 min 0 W/m² 15,1 °C 16,4 °C 8,0 km/h (2 Bft)
10.09.2024 02:26 23,8 °C 16,4 °C 59 % 92 % 1006,7 hPa 0,0 l/m² 6,4 km/h (2 Bft) W-SW 247 ° 0 min 0 W/m² 15,1 °C 16,4 °C 8,0 km/h (2 Bft)
10.09.2024 02:27 23,8 °C 16,4 °C 59 % 92 % 1006,7 hPa 0,0 l/m² 3,2 km/h (1 Bft) W-SW 247 ° 0 min 0 W/m² 15,1 °C 16,4 °C 8,0 km/h (2 Bft)
10.09.2024 02:28 23,8 °C 16,3 °C 59 % 92 % 1006,7 hPa 0,0 l/m² 3,2 km/h (1 Bft) W-SW 247 ° 0 min 0 W/m² 15,0 °C 16,3 °C 4,8 km/h (1 Bft)
10.09.2024 02:29 23,8 °C 16,4 °C 59 % 92 % 1006,7 hPa 0,0 l/m² 1,6 km/h (1 Bft) W-SW 247 ° 0 min 0 W/m² 15,1 °C 16,4 °C 4,8 km/h (1 Bft)
10.09.2024 02:30 23,8 °C 16,3 °C 59 % 92 % 1006,7 hPa 0,0 l/m² 3,2 km/h (1 Bft) W-SW 247 ° 0 min 0 W/m² 15,0 °C 16,3 °C 6,4 km/h (2 Bft)
10.09.2024 02:31 23,8 °C 16,4 °C 59 % 92 % 1006,7 hPa 0,0 l/m² 6,4 km/h (2 Bft) W-SW 247 ° 0 min 0 W/m² 15,1 °C 16,4 °C 8,0 km/h (2 Bft)
10.09.2024 02:32 23,7 °C 16,3 °C 59 % 92 % 1006,7 hPa 0,0 l/m² 4,8 km/h (1 Bft) W-SW 247 ° 0 min 0 W/m² 15,0 °C 16,3 °C 8,0 km/h (2 Bft)
10.09.2024 02:33 23,8 °C 16,3 °C 59 % 92 % 1006,8 hPa 0,0 l/m² 3,2 km/h (1 Bft) W-SW 247 ° 0 min 0 W/m² 15,0 °C 16,3 °C 6,4 km/h (2 Bft)
10.09.2024 02:34 23,8 °C 16,3 °C 59 % 92 % 1006,7 hPa 0,0 l/m² 1,6 km/h (1 Bft) W-SW 247 ° 0 min 0 W/m² 15,0 °C 16,3 °C 3,2 km/h (1 Bft)
10.09.2024 02:35 23,8 °C 16,3 °C 59 % 92 % 1006,7 hPa 0,0 l/m² 1,6 km/h (1 Bft) W-SW 247 ° 0 min 0 W/m² 15,0 °C 16,3 °C 4,8 km/h (1 Bft)
10.09.2024 02:36 23,7 °C 16,3 °C 59 % 92 % 1006,7 hPa 0,0 l/m² 3,2 km/h (1 Bft) W-SW 247 ° 0 min 0 W/m² 15,0 °C 16,3 °C 4,8 km/h (1 Bft)
10.09.2024 02:37 23,8 °C 16,3 °C 59 % 92 % 1006,6 hPa 0,0 l/m² 4,8 km/h (1 Bft) SW 225 ° 0 min 0 W/m² 15,0 °C 16,3 °C 8,0 km/h (2 Bft)
10.09.2024 02:38 23,8 °C 16,3 °C 59 % 92 % 1006,7 hPa 0,0 l/m² 4,8 km/h (1 Bft) SW 225 ° 0 min 0 W/m² 15,0 °C 16,3 °C 6,4 km/h (2 Bft)
10.09.2024 02:39 23,7 °C 16,3 °C 59 % 92 % 1006,7 hPa 0,0 l/m² 4,8 km/h (1 Bft) SW 225 ° 0 min 0 W/m² 15,0 °C 16,3 °C 6,4 km/h (2 Bft)
10.09.2024 02:40 23,7 °C 16,3 °C 59 % 92 % 1006,7 hPa 0,0 l/m² 4,8 km/h (1 Bft) SW 225 ° 0 min 0 W/m² 15,0 °C 16,3 °C 8,0 km/h (2 Bft)
10.09.2024 02:41 23,8 °C 16,3 °C 59 % 92 % 1006,7 hPa 0,0 l/m² 4,8 km/h (1 Bft) W-SW 247 ° 0 min 0 W/m² 15,0 °C 16,3 °C 6,4 km/h (2 Bft)
10.09.2024 02:42 23,7 °C 16,3 °C 59 % 92 % 1006,7 hPa 0,0 l/m² 3,2 km/h (1 Bft) W-SW 247 ° 0 min 0 W/m² 15,0 °C 16,3 °C 4,8 km/h (1 Bft)
10.09.2024 02:43 23,7 °C 16,3 °C 59 % 92 % 1006,7 hPa 0,0 l/m² 3,2 km/h (1 Bft) W-SW 247 ° 0 min 0 W/m² 15,0 °C 16,3 °C 4,8 km/h (1 Bft)
10.09.2024 02:44 23,8 °C 16,3 °C 59 % 92 % 1006,7 hPa 0,0 l/m² 1,6 km/h (1 Bft) SW 225 ° 0 min 0 W/m² 15,0 °C 16,3 °C 4,8 km/h (1 Bft)
10.09.2024 02:45 23,7 °C 16,3 °C 59 % 92 % 1006,7 hPa 0,0 l/m² 3,2 km/h (1 Bft) SW 225 ° 0 min 0 W/m² 15,0 °C 16,3 °C 6,4 km/h (2 Bft)
10.09.2024 02:46 23,7 °C 16,3 °C 59 % 92 % 1006,8 hPa 0,0 l/m² 3,2 km/h (1 Bft) SW 225 ° 0 min 0 W/m² 15,0 °C 16,3 °C 4,8 km/h (1 Bft)
10.09.2024 02:47 23,7 °C 16,3 °C 59 % 92 % 1006,8 hPa 0,0 l/m² 4,8 km/h (1 Bft) SW 225 ° 0 min 0 W/m² 15,0 °C 16,3 °C 8,0 km/h (2 Bft)
10.09.2024 02:48 23,7 °C 16,3 °C 59 % 92 % 1006,8 hPa 0,0 l/m² 4,8 km/h (1 Bft) SW 225 ° 0 min 0 W/m² 15,0 °C 16,3 °C 8,0 km/h (2 Bft)
10.09.2024 02:49 23,8 °C 16,3 °C 59 % 92 % 1006,8 hPa 0,0 l/m² 4,8 km/h (1 Bft) SW 225 ° 0 min 0 W/m² 15,0 °C 16,3 °C 6,4 km/h (2 Bft)
10.09.2024 02:50 23,7 °C 16,3 °C 59 % 92 % 1006,8 hPa 0,0 l/m² 4,8 km/h (1 Bft) SW 225 ° 0 min 0 W/m² 15,0 °C 16,3 °C 6,4 km/h (2 Bft)
10.09.2024 02:51 23,7 °C 16,3 °C 59 % 92 % 1006,8 hPa 0,0 l/m² 4,8 km/h (1 Bft) SW 225 ° 0 min 0 W/m² 15,0 °C 16,3 °C 6,4 km/h (2 Bft)
10.09.2024 02:52 23,7 °C 16,3 °C 59 % 92 % 1006,8 hPa 0,0 l/m² 4,8 km/h (1 Bft) SW 225 ° 0 min 0 W/m² 15,0 °C 16,3 °C 6,4 km/h (2 Bft)
10.09.2024 02:53 23,7 °C 16,3 °C 59 % 92 % 1006,8 hPa 0,0 l/m² 4,8 km/h (1 Bft) SW 225 ° 0 min 0 W/m² 15,0 °C 16,3 °C 6,4 km/h (2 Bft)
10.09.2024 02:54 23,7 °C 16,3 °C 59 % 92 % 1006,8 hPa 0,0 l/m² 0,0 km/h (0 Bft) SW 225 ° 0 min 0 W/m² 15,0 °C 16,3 °C 3,2 km/h (1 Bft)
10.09.2024 02:55 23,7 °C 16,3 °C 59 % 92 % 1006,8 hPa 0,0 l/m² 1,6 km/h (1 Bft) SW 225 ° 0 min 0 W/m² 15,0 °C 16,3 °C 4,8 km/h (1 Bft)
10.09.2024 02:56 23,7 °C 16,3 °C 59 % 92 % 1006,8 hPa 0,0 l/m² 4,8 km/h (1 Bft) SW 225 ° 0 min 0 W/m² 15,0 °C 16,3 °C 6,4 km/h (2 Bft)
10.09.2024 02:57 23,7 °C 16,3 °C 59 % 92 % 1006,8 hPa 0,0 l/m² 3,2 km/h (1 Bft) SW 225 ° 0 min 0 W/m² 15,0 °C 16,3 °C 4,8 km/h (1 Bft)
10.09.2024 02:58 23,7 °C 16,3 °C 59 % 92 % 1006,8 hPa 0,0 l/m² 3,2 km/h (1 Bft) SW 225 ° 0 min 0 W/m² 15,0 °C 16,3 °C 4,8 km/h (1 Bft)
10.09.2024 02:59 23,7 °C 16,3 °C 59 % 92 % 1006,8 hPa 0,0 l/m² 1,6 km/h (1 Bft) SW 225 ° 0 min 0 W/m² 15,0 °C 16,3 °C 6,4 km/h (2 Bft)
10.09.2024 03:00 23,8 °C 16,3 °C 59 % 92 % 1006,8 hPa 0,0 l/m² 6,4 km/h (2 Bft) W-SW 247 ° 0 min 0 W/m² 15,0 °C 16,3 °C 8,0 km/h (2 Bft)
10.09.2024 03:01 23,7 °C 16,3 °C 59 % 92 % 1006,8 hPa 0,0 l/m² 6,4 km/h (2 Bft) W-SW 247 ° 0 min 0 W/m² 15,0 °C 16,3 °C 11,3 km/h (2 Bft)
10.09.2024 03:02 23,7 °C 16,3 °C 59 % 92 % 1006,8 hPa 0,0 l/m² 4,8 km/h (1 Bft) SW 225 ° 0 min 0 W/m² 15,0 °C 16,3 °C 8,0 km/h (2 Bft)
10.09.2024 03:03 23,7 °C 16,3 °C 59 % 92 % 1006,9 hPa 0,0 l/m² 4,8 km/h (1 Bft) SW 225 ° 0 min 0 W/m² 15,0 °C 16,3 °C 9,7 km/h (2 Bft)
10.09.2024 03:04 23,7 °C 16,3 °C 59 % 92 % 1006,8 hPa 0,0 l/m² 8,0 km/h (2 Bft) SW 225 ° 0 min 0 W/m² 15,0 °C 15,5 °C 9,7 km/h (2 Bft)
10.09.2024 03:05 23,7 °C 16,3 °C 59 % 92 % 1006,9 hPa 0,0 l/m² 6,4 km/h (2 Bft) SW 225 ° 0 min 0 W/m² 15,0 °C 16,3 °C 9,7 km/h (2 Bft)
10.09.2024 03:06 23,7 °C 16,3 °C 59 % 92 % 1006,9 hPa 0,0 l/m² 4,8 km/h (1 Bft) SW 225 ° 0 min 0 W/m² 15,0 °C 16,3 °C 6,4 km/h (2 Bft)
10.09.2024 03:07 23,7 °C 16,3 °C 59 % 92 % 1006,9 hPa 0,0 l/m² 3,2 km/h (1 Bft) SW 225 ° 0 min 0 W/m² 15,0 °C 16,3 °C 8,0 km/h (2 Bft)
10.09.2024 03:08 23,7 °C 16,3 °C 59 % 92 % 1006,8 hPa 0,0 l/m² 4,8 km/h (1 Bft) SW 225 ° 0 min 0 W/m² 15,0 °C 16,3 °C 8,0 km/h (2 Bft)
10.09.2024 03:09 23,7 °C 16,3 °C 59 % 92 % 1006,9 hPa 0,0 l/m² 4,8 km/h (1 Bft) SW 225 ° 0 min 0 W/m² 15,0 °C 16,3 °C 8,0 km/h (2 Bft)
10.09.2024 03:10 23,7 °C 16,3 °C 59 % 92 % 1006,9 hPa 0,0 l/m² 4,8 km/h (1 Bft) SW 225 ° 0 min 0 W/m² 15,0 °C 16,3 °C 8,0 km/h (2 Bft)
10.09.2024 03:11 23,7 °C 16,3 °C 59 % 92 % 1006,8 hPa 0,0 l/m² 8,0 km/h (2 Bft) W-SW 247 ° 0 min 0 W/m² 15,0 °C 15,5 °C 11,3 km/h (2 Bft)
10.09.2024 03:12 23,7 °C 16,3 °C 59 % 92 % 1006,9 hPa 0,0 l/m² 6,4 km/h (2 Bft) W-SW 247 ° 0 min 0 W/m² 15,0 °C 16,3 °C 8,0 km/h (2 Bft)
10.09.2024 03:13 23,7 °C 16,3 °C 59 % 92 % 1006,9 hPa 0,0 l/m² 6,4 km/h (2 Bft) W-SW 247 ° 0 min 0 W/m² 15,0 °C 16,3 °C 9,7 km/h (2 Bft)
10.09.2024 03:14 23,7 °C 16,3 °C 59 % 92 % 1006,9 hPa 0,0 l/m² 6,4 km/h (2 Bft) W-SW 247 ° 0 min 0 W/m² 15,0 °C 16,3 °C 11,3 km/h (2 Bft)
10.09.2024 03:15 23,7 °C 16,3 °C 59 % 92 % 1006,9 hPa 0,0 l/m² 4,8 km/h (1 Bft) SW 225 ° 0 min 0 W/m² 15,0 °C 16,3 °C 12,9 km/h (3 Bft)
10.09.2024 03:16 23,7 °C 16,3 °C 59 % 92 % 1007,0 hPa 0,0 l/m² 6,4 km/h (2 Bft) W-SW 247 ° 0 min 0 W/m² 15,0 °C 16,3 °C 12,9 km/h (3 Bft)
10.09.2024 03:17 23,7 °C 16,3 °C 59 % 92 % 1006,9 hPa 0,0 l/m² 4,8 km/h (1 Bft) W-SW 247 ° 0 min 0 W/m² 15,0 °C 16,3 °C 6,4 km/h (2 Bft)
10.09.2024 03:18 23,7 °C 16,3 °C 59 % 92 % 1007,0 hPa 0,0 l/m² 4,8 km/h (1 Bft) W-SW 247 ° 0 min 0 W/m² 15,0 °C 16,3 °C 8,0 km/h (2 Bft)
10.09.2024 03:19 23,7 °C 16,3 °C 59 % 92 % 1007,0 hPa 0,0 l/m² 6,4 km/h (2 Bft) SW 225 ° 0 min 0 W/m² 15,0 °C 16,3 °C 11,3 km/h (2 Bft)
10.09.2024 03:20 23,7 °C 16,3 °C 59 % 92 % 1007,0 hPa 0,0 l/m² 6,4 km/h (2 Bft) W-SW 247 ° 0 min 0 W/m² 15,0 °C 16,3 °C 12,9 km/h (3 Bft)
10.09.2024 03:21 23,7 °C 16,3 °C 59 % 92 % 1007,0 hPa 0,0 l/m² 9,7 km/h (2 Bft) W-SW 247 ° 0 min 0 W/m² 15,0 °C 14,7 °C 14,5 km/h (3 Bft)
10.09.2024 03:22 23,7 °C 16,3 °C 59 % 92 % 1007,0 hPa 0,0 l/m² 8,0 km/h (2 Bft) W-SW 247 ° 0 min 0 W/m² 15,0 °C 15,5 °C 12,9 km/h (3 Bft)
10.09.2024 03:23 23,7 °C 16,3 °C 59 % 92 % 1007,0 hPa 0,0 l/m² 14,5 km/h (3 Bft) W-SW 247 ° 0 min 0 W/m² 15,0 °C 12,9 °C 16,1 km/h (3 Bft)
10.09.2024 03:24 23,7 °C 16,3 °C 59 % 92 % 1007,0 hPa 0,0 l/m² 12,9 km/h (3 Bft) W-SW 247 ° 0 min 0 W/m² 15,0 °C 13,4 °C 16,1 km/h (3 Bft)
10.09.2024 03:25 23,7 °C 16,3 °C 59 % 92 % 1007,0 hPa 0,0 l/m² 11,3 km/h (2 Bft) SW 225 ° 0 min 0 W/m² 15,0 °C 14,0 °C 14,5 km/h (3 Bft)
10.09.2024 03:26 23,7 °C 16,3 °C 59 % 92 % 1007,1 hPa 0,0 l/m² 9,7 km/h (2 Bft) SW 225 ° 0 min 0 W/m² 15,0 °C 14,7 °C 12,9 km/h (3 Bft)
10.09.2024 03:27 23,7 °C 16,3 °C 59 % 92 % 1007,0 hPa 0,0 l/m² 9,7 km/h (2 Bft) SW 225 ° 0 min 0 W/m² 15,0 °C 14,7 °C 14,5 km/h (3 Bft)
10.09.2024 03:28 23,7 °C 16,3 °C 59 % 92 % 1007,1 hPa 0,0 l/m² 8,0 km/h (2 Bft) SW 225 ° 0 min 0 W/m² 15,0 °C 15,5 °C 11,3 km/h (2 Bft)
10.09.2024 03:29 23,7 °C 16,3 °C 59 % 92 % 1007,0 hPa 0,0 l/m² 9,7 km/h (2 Bft) W-SW 247 ° 0 min 0 W/m² 15,0 °C 14,7 °C 14,5 km/h (3 Bft)
10.09.2024 03:30 23,7 °C 16,3 °C 59 % 92 % 1007,1 hPa 0,0 l/m² 8,0 km/h (2 Bft) SW 225 ° 0 min 0 W/m² 15,0 °C 15,5 °C 9,7 km/h (2 Bft)
10.09.2024 03:31 23,7 °C 16,3 °C 59 % 92 % 1007,1 hPa 0,0 l/m² 8,0 km/h (2 Bft) SW 225 ° 0 min 0 W/m² 15,0 °C 15,5 °C 11,3 km/h (2 Bft)
10.09.2024 03:32 23,7 °C 16,3 °C 59 % 92 % 1007,1 hPa 0,0 l/m² 9,7 km/h (2 Bft) SW 225 ° 0 min 0 W/m² 15,0 °C 14,7 °C 12,9 km/h (3 Bft)
10.09.2024 03:33 23,7 °C 16,3 °C 59 % 92 % 1007,1 hPa 0,0 l/m² 11,3 km/h (2 Bft) SW 225 ° 0 min 0 W/m² 15,0 °C 14,0 °C 16,1 km/h (3 Bft)
10.09.2024 03:34 23,7 °C 16,3 °C 59 % 92 % 1007,2 hPa 0,0 l/m² 11,3 km/h (2 Bft) SW 225 ° 0 min 0 W/m² 15,0 °C 14,0 °C 16,1 km/h (3 Bft)
10.09.2024 03:35 23,7 °C 16,3 °C 59 % 92 % 1007,2 hPa 0,0 l/m² 11,3 km/h (2 Bft) W-SW 247 ° 0 min 0 W/m² 15,0 °C 14,0 °C 16,1 km/h (3 Bft)
10.09.2024 03:36 23,7 °C 16,3 °C 59 % 92 % 1007,1 hPa 0,0 l/m² 11,3 km/h (2 Bft) SW 225 ° 0 min 0 W/m² 15,0 °C 14,0 °C 14,5 km/h (3 Bft)
10.09.2024 03:37 23,7 °C 16,3 °C 59 % 92 % 1007,1 hPa 0,0 l/m² 9,7 km/h (2 Bft) SW 225 ° 0 min 0 W/m² 15,0 °C 14,7 °C 14,5 km/h (3 Bft)
10.09.2024 03:38 23,7 °C 16,3 °C 59 % 92 % 1007,1 hPa 0,0 l/m² 12,9 km/h (3 Bft) SW 225 ° 0 min 0 W/m² 15,0 °C 13,4 °C 19,3 km/h (3 Bft)
10.09.2024 03:39 23,7 °C 16,3 °C 59 % 92 % 1007,1 hPa 0,0 l/m² 11,3 km/h (2 Bft) SW 225 ° 0 min 0 W/m² 15,0 °C 14,0 °C 14,5 km/h (3 Bft)
10.09.2024 03:40 23,7 °C 16,3 °C 59 % 92 % 1007,1 hPa 0,0 l/m² 12,9 km/h (3 Bft) SW 225 ° 0 min 0 W/m² 15,0 °C 13,4 °C 19,3 km/h (3 Bft)
10.09.2024 03:41 23,7 °C 16,3 °C 59 % 91 % 1007,0 hPa 0,0 l/m² 12,9 km/h (3 Bft) SW 225 ° 0 min 0 W/m² 14,8 °C 13,4 °C 16,1 km/h (3 Bft)
10.09.2024 03:42 23,7 °C 16,3 °C 59 % 91 % 1007,1 hPa 0,0 l/m² 9,7 km/h (2 Bft) SW 225 ° 0 min 0 W/m² 14,8 °C 14,7 °C 16,1 km/h (3 Bft)
10.09.2024 03:43 23,7 °C 16,3 °C 59 % 92 % 1007,1 hPa 0,0 l/m² 9,7 km/h (2 Bft) SW 225 ° 0 min 0 W/m² 15,0 °C 14,7 °C 14,5 km/h (3 Bft)
10.09.2024 03:44 23,7 °C 16,3 °C 59 % 91 % 1007,1 hPa 0,0 l/m² 11,3 km/h (2 Bft) SW 225 ° 0 min 0 W/m² 14,8 °C 14,0 °C 16,1 km/h (3 Bft)
10.09.2024 03:45 23,7 °C 16,3 °C 59 % 92 % 1007,1 hPa 0,0 l/m² 12,9 km/h (3 Bft) SW 225 ° 0 min 0 W/m² 15,0 °C 13,4 °C 16,1 km/h (3 Bft)
10.09.2024 03:46 23,7 °C 16,3 °C 59 % 91 % 1007,2 hPa 0,0 l/m² 9,7 km/h (2 Bft) W-SW 247 ° 0 min 0 W/m² 14,8 °C 14,7 °C 16,1 km/h (3 Bft)
10.09.2024 03:47 23,7 °C 16,3 °C 59 % 91 % 1007,1 hPa 0,0 l/m² 11,3 km/h (2 Bft) SW 225 ° 0 min 0 W/m² 14,8 °C 14,0 °C 14,5 km/h (3 Bft)
10.09.2024 03:48 23,7 °C 16,3 °C 59 % 91 % 1007,1 hPa 0,0 l/m² 9,7 km/h (2 Bft) W-SW 247 ° 0 min 0 W/m² 14,8 °C 14,7 °C 12,9 km/h (3 Bft)
10.09.2024 03:49 23,7 °C 16,3 °C 59 % 91 % 1007,1 hPa 0,0 l/m² 9,7 km/h (2 Bft) W-SW 247 ° 0 min 0 W/m² 14,8 °C 14,7 °C 11,3 km/h (2 Bft)
10.09.2024 03:50 23,7 °C 16,3 °C 59 % 91 % 1007,1 hPa 0,0 l/m² 8,0 km/h (2 Bft) W-SW 247 ° 0 min 0 W/m² 14,8 °C 15,5 °C 12,9 km/h (3 Bft)
10.09.2024 03:51 23,7 °C 16,3 °C 59 % 91 % 1007,1 hPa 0,0 l/m² 11,3 km/h (2 Bft) W-SW 247 ° 0 min 0 W/m² 14,8 °C 14,0 °C 17,7 km/h (3 Bft)
10.09.2024 03:52 23,7 °C 16,3 °C 59 % 91 % 1007,1 hPa 0,0 l/m² 11,3 km/h (2 Bft) SW 225 ° 0 min 0 W/m² 14,8 °C 14,0 °C 14,5 km/h (3 Bft)
10.09.2024 03:53 23,7 °C 16,3 °C 59 % 91 % 1007,2 hPa 0,0 l/m² 11,3 km/h (2 Bft) W-SW 247 ° 0 min 0 W/m² 14,8 °C 14,0 °C 14,5 km/h (3 Bft)
10.09.2024 03:54 23,7 °C 16,3 °C 59 % 91 % 1007,1 hPa 0,0 l/m² 11,3 km/h (2 Bft) W-SW 247 ° 0 min 0 W/m² 14,8 °C 14,0 °C 16,1 km/h (3 Bft)
10.09.2024 03:55 23,7 °C 16,3 °C 59 % 91 % 1007,2 hPa 0,0 l/m² 8,0 km/h (2 Bft) W-SW 247 ° 0 min 0 W/m² 14,8 °C 15,5 °C 12,9 km/h (3 Bft)
10.09.2024 03:56 23,7 °C 16,3 °C 59 % 91 % 1007,1 hPa 0,0 l/m² 8,0 km/h (2 Bft) W-SW 247 ° 0 min 0 W/m² 14,8 °C 15,5 °C 11,3 km/h (2 Bft)
10.09.2024 03:57 23,7 °C 16,3 °C 59 % 91 % 1007,2 hPa 0,0 l/m² 8,0 km/h (2 Bft) W-SW 247 ° 0 min 0 W/m² 14,8 °C 15,5 °C 14,5 km/h (3 Bft)
10.09.2024 03:58 23,7 °C 16,3 °C 59 % 92 % 1007,1 hPa 0,0 l/m² 8,0 km/h (2 Bft) W-SW 247 ° 0 min 0 W/m² 15,0 °C 15,5 °C 11,3 km/h (2 Bft)
10.09.2024 03:59 23,7 °C 16,3 °C 59 % 92 % 1007,1 hPa 0,0 l/m² 8,0 km/h (2 Bft) SW 225 ° 0 min 0 W/m² 15,0 °C 15,5 °C 11,3 km/h (2 Bft)
10.09.2024 04:00 23,7 °C 16,3 °C 59 % 92 % 1007,1 hPa 0,0 l/m² 6,4 km/h (2 Bft) SW 225 ° 0 min 0 W/m² 15,0 °C 16,3 °C 11,3 km/h (2 Bft)
10.09.2024 04:01 23,7 °C 16,3 °C 59 % 92 % 1007,1 hPa 0,0 l/m² 6,4 km/h (2 Bft) W-SW 247 ° 0 min 0 W/m² 15,0 °C 16,3 °C 9,7 km/h (2 Bft)
10.09.2024 04:02 23,7 °C 16,3 °C 59 % 92 % 1007,1 hPa 0,0 l/m² 4,8 km/h (1 Bft) W-SW 247 ° 0 min 0 W/m² 15,0 °C 16,3 °C 8,0 km/h (2 Bft)
10.09.2024 04:03 23,7 °C 16,3 °C 59 % 92 % 1007,1 hPa 0,0 l/m² 6,4 km/h (2 Bft) SW 225 ° 0 min 0 W/m² 15,0 °C 16,3 °C 8,0 km/h (2 Bft)
10.09.2024 04:04 23,7 °C 16,3 °C 59 % 92 % 1007,1 hPa 0,0 l/m² 4,8 km/h (1 Bft) W-SW 247 ° 0 min 0 W/m² 15,0 °C 16,3 °C 8,0 km/h (2 Bft)
10.09.2024 04:05 23,7 °C 16,2 °C 59 % 92 % 1007,1 hPa 0,0 l/m² 3,2 km/h (1 Bft) W-SW 247 ° 0 min 0 W/m² 14,9 °C 16,2 °C 6,4 km/h (2 Bft)
10.09.2024 04:06 23,7 °C 16,3 °C 59 % 92 % 1007,1 hPa 0,0 l/m² 6,4 km/h (2 Bft) W-SW 247 ° 0 min 0 W/m² 15,0 °C 16,3 °C 9,7 km/h (2 Bft)
10.09.2024 04:07 23,7 °C 16,2 °C 59 % 92 % 1007,1 hPa 0,0 l/m² 4,8 km/h (1 Bft) W-SW 247 ° 0 min 0 W/m² 14,9 °C 16,2 °C 8,0 km/h (2 Bft)
10.09.2024 04:08 23,7 °C 16,2 °C 59 % 92 % 1007,1 hPa 0,0 l/m² 6,4 km/h (2 Bft) W-SW 247 ° 0 min 0 W/m² 14,9 °C 16,2 °C 8,0 km/h (2 Bft)
10.09.2024 04:09 23,7 °C 16,2 °C 59 % 92 % 1007,1 hPa 0,0 l/m² 6,4 km/h (2 Bft) W-SW 247 ° 0 min 0 W/m² 14,9 °C 16,2 °C 8,0 km/h (2 Bft)
10.09.2024 04:10 23,7 °C 16,3 °C 59 % 92 % 1007,1 hPa 0,0 l/m² 6,4 km/h (2 Bft) W-SW 247 ° 0 min 0 W/m² 15,0 °C 16,3 °C 9,7 km/h (2 Bft)
10.09.2024 04:11 23,7 °C 16,2 °C 59 % 92 % 1007,1 hPa 0,0 l/m² 4,8 km/h (1 Bft) W-SW 247 ° 0 min 0 W/m² 14,9 °C 16,2 °C 6,4 km/h (2 Bft)
10.09.2024 04:12 23,7 °C 16,2 °C 59 % 92 % 1007,1 hPa 0,0 l/m² 6,4 km/h (2 Bft) W-SW 247 ° 0 min 0 W/m² 14,9 °C 16,2 °C 11,3 km/h (2 Bft)
10.09.2024 04:13 23,7 °C 16,2 °C 59 % 92 % 1007,1 hPa 0,0 l/m² 6,4 km/h (2 Bft) W-SW 247 ° 0 min 0 W/m² 14,9 °C 16,2 °C 8,0 km/h (2 Bft)
10.09.2024 04:14 23,7 °C 16,2 °C 59 % 92 % 1007,2 hPa 0,0 l/m² 3,2 km/h (1 Bft) W-SW 247 ° 0 min 0 W/m² 14,9 °C 16,2 °C 4,8 km/h (1 Bft)
10.09.2024 04:15 23,7 °C 16,2 °C 59 % 92 % 1007,2 hPa 0,0 l/m² 3,2 km/h (1 Bft) W-SW 247 ° 0 min 0 W/m² 14,9 °C 16,2 °C 6,4 km/h (2 Bft)
10.09.2024 04:16 23,7 °C 16,2 °C 59 % 92 % 1007,2 hPa 0,0 l/m² 4,8 km/h (1 Bft) W-SW 247 ° 0 min 0 W/m² 14,9 °C 16,2 °C 6,4 km/h (2 Bft)
10.09.2024 04:17 23,7 °C 16,2 °C 59 % 92 % 1007,2 hPa 0,0 l/m² 6,4 km/h (2 Bft) W-SW 247 ° 0 min 0 W/m² 14,9 °C 16,2 °C 8,0 km/h (2 Bft)
10.09.2024 04:18 23,7 °C 16,2 °C 59 % 92 % 1007,2 hPa 0,0 l/m² 4,8 km/h (1 Bft) W-SW 247 ° 0 min 0 W/m² 14,9 °C 16,2 °C 8,0 km/h (2 Bft)
10.09.2024 04:19 23,7 °C 16,2 °C 59 % 92 % 1007,2 hPa 0,0 l/m² 4,8 km/h (1 Bft) W-SW 247 ° 0 min 0 W/m² 14,9 °C 16,2 °C 8,0 km/h (2 Bft)
10.09.2024 04:20 23,7 °C 16,2 °C 59 % 92 % 1007,2 hPa 0,0 l/m² 8,0 km/h (2 Bft) W-SW 247 ° 0 min 0 W/m² 14,9 °C 15,4 °C 11,3 km/h (2 Bft)
10.09.2024 04:21 23,7 °C 16,2 °C 59 % 92 % 1007,2 hPa 0,0 l/m² 4,8 km/h (1 Bft) W-SW 247 ° 0 min 0 W/m² 14,9 °C 16,2 °C 8,0 km/h (2 Bft)
10.09.2024 04:22 23,7 °C 16,2 °C 59 % 92 % 1007,2 hPa 0,0 l/m² 4,8 km/h (1 Bft) W-SW 247 ° 0 min 0 W/m² 14,9 °C 16,2 °C 6,4 km/h (2 Bft)
10.09.2024 04:23 23,7 °C 16,2 °C 59 % 92 % 1007,3 hPa 0,0 l/m² 4,8 km/h (1 Bft) W-SW 247 ° 0 min 0 W/m² 14,9 °C 16,2 °C 6,4 km/h (2 Bft)
10.09.2024 04:24 23,7 °C 16,2 °C 59 % 92 % 1007,3 hPa 0,0 l/m² 4,8 km/h (1 Bft) W-SW 247 ° 0 min 0 W/m² 14,9 °C 16,2 °C 6,4 km/h (2 Bft)
10.09.2024 04:25 23,7 °C 16,2 °C 59 % 92 % 1007,3 hPa 0,0 l/m² 4,8 km/h (1 Bft) W-SW 247 ° 0 min 0 W/m² 14,9 °C 16,2 °C 6,4 km/h (2 Bft)
10.09.2024 04:26 23,7 °C 16,2 °C 59 % 92 % 1007,3 hPa 0,0 l/m² 6,4 km/h (2 Bft) W-SW 247 ° 0 min 0 W/m² 14,9 °C 16,2 °C 9,7 km/h (2 Bft)
10.09.2024 04:27 23,7 °C 16,2 °C 59 % 92 % 1007,3 hPa 0,0 l/m² 6,4 km/h (2 Bft) W-SW 247 ° 0 min 0 W/m² 14,9 °C 16,2 °C 8,0 km/h (2 Bft)
10.09.2024 04:28 23,7 °C 16,2 °C 59 % 92 % 1007,5 hPa 0,0 l/m² 6,4 km/h (2 Bft) W-SW 247 ° 0 min 0 W/m² 14,9 °C 16,2 °C 8,0 km/h (2 Bft)
10.09.2024 04:29 23,7 °C 16,2 °C 59 % 92 % 1007,3 hPa 0,0 l/m² 4,8 km/h (1 Bft) W-SW 247 ° 0 min 0 W/m² 14,9 °C 16,2 °C 8,0 km/h (2 Bft)
10.09.2024 04:30 23,7 °C 16,2 °C 59 % 92 % 1007,4 hPa 0,0 l/m² 6,4 km/h (2 Bft) W-SW 247 ° 0 min 0 W/m² 14,9 °C 16,2 °C 8,0 km/h (2 Bft)
10.09.2024 04:31 23,7 °C 16,2 °C 59 % 92 % 1007,3 hPa 0,0 l/m² 3,2 km/h (1 Bft) W-SW 247 ° 0 min 0 W/m² 14,9 °C 16,2 °C 4,8 km/h (1 Bft)
10.09.2024 04:32 23,7 °C 16,2 °C 59 % 92 % 1007,4 hPa 0,0 l/m² 3,2 km/h (1 Bft) W-SW 247 ° 0 min 0 W/m² 14,9 °C 16,2 °C 6,4 km/h (2 Bft)
10.09.2024 04:33 23,7 °C 16,2 °C 59 % 92 % 1007,4 hPa 0,0 l/m² 6,4 km/h (2 Bft) W-SW 247 ° 0 min 0 W/m² 14,9 °C 16,2 °C 8,0 km/h (2 Bft)
10.09.2024 04:34 23,7 °C 16,2 °C 59 % 92 % 1007,4 hPa 0,0 l/m² 6,4 km/h (2 Bft) W-SW 247 ° 0 min 0 W/m² 14,9 °C 16,2 °C 8,0 km/h (2 Bft)
10.09.2024 04:35 23,7 °C 16,2 °C 59 % 92 % 1007,4 hPa 0,0 l/m² 3,2 km/h (1 Bft) W-SW 247 ° 0 min 0 W/m² 14,9 °C 16,2 °C 6,4 km/h (2 Bft)
10.09.2024 04:36 23,7 °C 16,2 °C 59 % 92 % 1007,5 hPa 0,0 l/m² 3,2 km/h (1 Bft) W-SW 247 ° 0 min 0 W/m² 14,9 °C 16,2 °C 4,8 km/h (1 Bft)
10.09.2024 04:37 23,7 °C 16,2 °C 59 % 92 % 1007,4 hPa 0,0 l/m² 4,8 km/h (1 Bft) W-SW 247 ° 0 min 0 W/m² 14,9 °C 16,2 °C 6,4 km/h (2 Bft)
10.09.2024 04:38 23,7 °C 16,2 °C 59 % 92 % 1007,5 hPa 0,0 l/m² 3,2 km/h (1 Bft) W-SW 247 ° 0 min 0 W/m² 14,9 °C 16,2 °C 6,4 km/h (2 Bft)
10.09.2024 04:39 23,7 °C 16,2 °C 59 % 92 % 1007,5 hPa 0,0 l/m² 3,2 km/h (1 Bft) W-SW 247 ° 0 min 0 W/m² 14,9 °C 16,2 °C 4,8 km/h (1 Bft)
10.09.2024 04:40 23,7 °C 16,2 °C 59 % 92 % 1007,5 hPa 0,0 l/m² 3,2 km/h (1 Bft) W-SW 247 ° 0 min 0 W/m² 14,9 °C 16,2 °C 4,8 km/h (1 Bft)
10.09.2024 04:41 23,7 °C 16,2 °C 59 % 92 % 1007,5 hPa 0,0 l/m² 4,8 km/h (1 Bft) W-SW 247 ° 0 min 0 W/m² 14,9 °C 16,2 °C 8,0 km/h (2 Bft)
10.09.2024 04:42 23,7 °C 16,2 °C 59 % 92 % 1007,5 hPa 0,0 l/m² 4,8 km/h (1 Bft) W-SW 247 ° 0 min 0 W/m² 14,9 °C 16,2 °C 8,0 km/h (2 Bft)
10.09.2024 04:43 23,7 °C 16,2 °C 59 % 92 % 1007,5 hPa 0,0 l/m² 4,8 km/h (1 Bft) W-SW 247 ° 0 min 0 W/m² 14,9 °C 16,2 °C 8,0 km/h (2 Bft)
10.09.2024 04:44 23,7 °C 16,2 °C 59 % 92 % 1007,5 hPa 0,0 l/m² 4,8 km/h (1 Bft) W-SW 247 ° 0 min 0 W/m² 14,9 °C 16,2 °C 6,4 km/h (2 Bft)
10.09.2024 04:45 23,7 °C 16,2 °C 59 % 92 % 1007,5 hPa 0,0 l/m² 4,8 km/h (1 Bft) W-SW 247 ° 0 min 0 W/m² 14,9 °C 16,2 °C 6,4 km/h (2 Bft)
10.09.2024 04:46 23,7 °C 16,2 °C 59 % 92 % 1007,5 hPa 0,0 l/m² 4,8 km/h (1 Bft) W-SW 247 ° 0 min 0 W/m² 14,9 °C 16,2 °C 8,0 km/h (2 Bft)
10.09.2024 04:47 23,6 °C 16,2 °C 59 % 92 % 1007,4 hPa 0,0 l/m² 3,2 km/h (1 Bft) W-SW 247 ° 0 min 0 W/m² 14,9 °C 16,2 °C 4,8 km/h (1 Bft)
10.09.2024 04:48 23,7 °C 16,2 °C 59 % 92 % 1007,4 hPa 0,0 l/m² 3,2 km/h (1 Bft) W-SW 247 ° 0 min 0 W/m² 14,9 °C 16,2 °C 6,4 km/h (2 Bft)
10.09.2024 04:49 23,7 °C 16,3 °C 59 % 92 % 1007,5 hPa 0,0 l/m² 3,2 km/h (1 Bft) W-SW 247 ° 0 min 0 W/m² 15,0 °C 16,3 °C 4,8 km/h (1 Bft)
10.09.2024 04:50 23,7 °C 16,2 °C 59 % 92 % 1007,5 hPa 0,0 l/m² 4,8 km/h (1 Bft) W-SW 247 ° 0 min 0 W/m² 14,9 °C 16,2 °C 8,0 km/h (2 Bft)
10.09.2024 04:51 23,7 °C 16,2 °C 59 % 92 % 1007,6 hPa 0,0 l/m² 4,8 km/h (1 Bft) W-SW 247 ° 0 min 0 W/m² 14,9 °C 16,2 °C 6,4 km/h (2 Bft)
10.09.2024 04:52 23,7 °C 16,2 °C 59 % 92 % 1007,5 hPa 0,0 l/m² 4,8 km/h (1 Bft) W-SW 247 ° 0 min 0 W/m² 14,9 °C 16,2 °C 6,4 km/h (2 Bft)
10.09.2024 04:53 23,7 °C 16,2 °C 59 % 92 % 1007,5 hPa 0,0 l/m² 3,2 km/h (1 Bft) W-SW 247 ° 0 min 0 W/m² 14,9 °C 16,2 °C 6,4 km/h (2 Bft)
10.09.2024 04:54 23,7 °C 16,2 °C 59 % 92 % 1007,5 hPa 0,0 l/m² 3,2 km/h (1 Bft) W-SW 247 ° 0 min 0 W/m² 14,9 °C 16,2 °C 8,0 km/h (2 Bft)
10.09.2024 04:55 23,7 °C 16,3 °C 59 % 92 % 1007,5 hPa 0,0 l/m² 4,8 km/h (1 Bft) W-SW 247 ° 0 min 0 W/m² 15,0 °C 16,3 °C 8,0 km/h (2 Bft)
10.09.2024 04:56 23,7 °C 16,3 °C 59 % 92 % 1007,5 hPa 0,0 l/m² 4,8 km/h (1 Bft) W-SW 247 ° 0 min 0 W/m² 15,0 °C 16,3 °C 8,0 km/h (2 Bft)
10.09.2024 04:57 23,7 °C 16,2 °C 59 % 92 % 1007,5 hPa 0,0 l/m² 3,2 km/h (1 Bft) W-SW 247 ° 0 min 0 W/m² 14,9 °C 16,2 °C 6,4 km/h (2 Bft)
10.09.2024 04:58 23,7 °C 16,2 °C 59 % 92 % 1007,5 hPa 0,0 l/m² 1,6 km/h (1 Bft) W-SW 247 ° 0 min 0 W/m² 14,9 °C 16,2 °C 4,8 km/h (1 Bft)
10.09.2024 04:59 23,7 °C 16,3 °C 59 % 92 % 1007,6 hPa 0,0 l/m² 3,2 km/h (1 Bft) W-SW 247 ° 0 min 0 W/m² 15,0 °C 16,3 °C 6,4 km/h (2 Bft)
10.09.2024 05:00 23,7 °C 16,2 °C 59 % 92 % 1007,6 hPa 0,0 l/m² 4,8 km/h (1 Bft) W-SW 247 ° 0 min 0 W/m² 14,9 °C 16,2 °C 9,7 km/h (2 Bft)
10.09.2024 05:01 23,7 °C 16,2 °C 59 % 92 % 1007,6 hPa 0,0 l/m² 3,2 km/h (1 Bft) W-SW 247 ° 0 min 0 W/m² 14,9 °C 16,2 °C 4,8 km/h (1 Bft)
10.09.2024 05:02 23,7 °C 16,3 °C 59 % 92 % 1007,5 hPa 0,0 l/m² 4,8 km/h (1 Bft) W-SW 247 ° 0 min 0 W/m² 15,0 °C 16,3 °C 6,4 km/h (2 Bft)
10.09.2024 05:03 23,7 °C 16,2 °C 59 % 92 % 1007,6 hPa 0,0 l/m² 4,8 km/h (1 Bft) W-SW 247 ° 0 min 0 W/m² 14,9 °C 16,2 °C 8,0 km/h (2 Bft)
10.09.2024 05:04 23,7 °C 16,2 °C 59 % 92 % 1007,6 hPa 0,0 l/m² 4,8 km/h (1 Bft) W-SW 247 ° 0 min 0 W/m² 14,9 °C 16,2 °C 6,4 km/h (2 Bft)
10.09.2024 05:05 23,7 °C 16,3 °C 59 % 92 % 1007,6 hPa 0,0 l/m² 6,4 km/h (2 Bft) W-SW 247 ° 0 min 0 W/m² 15,0 °C 16,3 °C 9,7 km/h (2 Bft)
10.09.2024 05:06 23,7 °C 16,3 °C 59 % 92 % 1007,6 hPa 0,0 l/m² 4,8 km/h (1 Bft) W-SW 247 ° 0 min 0 W/m² 15,0 °C 16,3 °C 8,0 km/h (2 Bft)
10.09.2024 05:07 23,7 °C 16,3 °C 59 % 92 % 1007,6 hPa 0,0 l/m² 6,4 km/h (2 Bft) W-SW 247 ° 0 min 0 W/m² 15,0 °C 16,3 °C 8,0 km/h (2 Bft)
10.09.2024 05:08 23,7 °C 16,3 °C 59 % 92 % 1007,6 hPa 0,0 l/m² 8,0 km/h (2 Bft) W-SW 247 ° 0 min 0 W/m² 15,0 °C 15,5 °C 11,3 km/h (2 Bft)
10.09.2024 05:09 23,7 °C 16,3 °C 59 % 92 % 1007,7 hPa 0,0 l/m² 6,4 km/h (2 Bft) W-SW 247 ° 0 min 0 W/m² 15,0 °C 16,3 °C 11,3 km/h (2 Bft)
10.09.2024 05:10 23,7 °C 16,3 °C 59 % 92 % 1007,7 hPa 0,0 l/m² 4,8 km/h (1 Bft) W-SW 247 ° 0 min 0 W/m² 15,0 °C 16,3 °C 6,4 km/h (2 Bft)
10.09.2024 05:11 23,7 °C 16,3 °C 59 % 92 % 1007,7 hPa 0,0 l/m² 6,4 km/h (2 Bft) W-SW 247 ° 0 min 0 W/m² 15,0 °C 16,3 °C 9,7 km/h (2 Bft)
10.09.2024 05:12 23,7 °C 16,3 °C 60 % 92 % 1007,6 hPa 0,0 l/m² 8,0 km/h (2 Bft) W-SW 247 ° 0 min 0 W/m² 15,0 °C 15,5 °C 11,3 km/h (2 Bft)
10.09.2024 05:13 23,7 °C 16,3 °C 60 % 92 % 1007,7 hPa 0,0 l/m² 6,4 km/h (2 Bft) W-SW 247 ° 0 min 0 W/m² 15,0 °C 16,3 °C 9,7 km/h (2 Bft)
10.09.2024 05:14 23,7 °C 16,3 °C 60 % 92 % 1007,7 hPa 0,0 l/m² 6,4 km/h (2 Bft) W-SW 247 ° 0 min 0 W/m² 15,0 °C 16,3 °C 8,0 km/h (2 Bft)
10.09.2024 05:15 23,7 °C 16,3 °C 60 % 92 % 1007,8 hPa 0,0 l/m² 8,0 km/h (2 Bft) W-SW 247 ° 0 min 0 W/m² 15,0 °C 15,5 °C 11,3 km/h (2 Bft)
10.09.2024 05:16 23,7 °C 16,3 °C 60 % 92 % 1007,8 hPa 0,0 l/m² 9,7 km/h (2 Bft) W-SW 247 ° 0 min 0 W/m² 15,0 °C 14,7 °C 14,5 km/h (3 Bft)
10.09.2024 05:17 23,7 °C 16,3 °C 60 % 92 % 1007,8 hPa 0,0 l/m² 4,8 km/h (1 Bft) W-SW 247 ° 0 min 0 W/m² 15,0 °C 16,3 °C 8,0 km/h (2 Bft)
10.09.2024 05:18 23,7 °C 16,3 °C 60 % 92 % 1007,7 hPa 0,0 l/m² 8,0 km/h (2 Bft) W-SW 247 ° 0 min 0 W/m² 15,0 °C 15,5 °C 12,9 km/h (3 Bft)
10.09.2024 05:19 23,7 °C 16,3 °C 60 % 92 % 1007,8 hPa 0,0 l/m² 9,7 km/h (2 Bft) W-SW 247 ° 0 min 0 W/m² 15,0 °C 14,7 °C 12,9 km/h (3 Bft)
10.09.2024 05:20 23,7 °C 16,3 °C 60 % 92 % 1007,8 hPa 0,0 l/m² 6,4 km/h (2 Bft) W-SW 247 ° 0 min 0 W/m² 15,0 °C 16,3 °C 12,9 km/h (3 Bft)
10.09.2024 05:21 23,7 °C 16,3 °C 60 % 92 % 1007,8 hPa 0,0 l/m² 8,0 km/h (2 Bft) W 270 ° 0 min 0 W/m² 15,0 °C 15,5 °C 14,5 km/h (3 Bft)
10.09.2024 05:22 23,7 °C 16,3 °C 60 % 92 % 1007,8 hPa 0,0 l/m² 8,0 km/h (2 Bft) W 270 ° 0 min 0 W/m² 15,0 °C 15,5 °C 14,5 km/h (3 Bft)
10.09.2024 05:23 23,7 °C 16,3 °C 60 % 92 % 1007,8 hPa 0,0 l/m² 8,0 km/h (2 Bft) W-SW 247 ° 0 min 0 W/m² 15,0 °C 15,5 °C 14,5 km/h (3 Bft)
10.09.2024 05:24 23,7 °C 16,2 °C 60 % 91 % 1007,9 hPa 0,0 l/m² 14,5 km/h (3 Bft) W 270 ° 0 min 0 W/m² 14,7 °C 12,8 °C 24,1 km/h (4 Bft)
10.09.2024 05:25 23,7 °C 16,2 °C 60 % 91 % 1007,9 hPa 0,0 l/m² 9,7 km/h (2 Bft) W 270 ° 0 min 0 W/m² 14,7 °C 14,6 °C 16,1 km/h (3 Bft)
10.09.2024 05:26 23,7 °C 16,2 °C 60 % 91 % 1007,9 hPa 0,0 l/m² 12,9 km/h (3 Bft) W-SW 247 ° 0 min 0 W/m² 14,7 °C 13,3 °C 24,1 km/h (4 Bft)
10.09.2024 05:27 23,7 °C 16,1 °C 60 % 91 % 1007,9 hPa 0,0 l/m² 14,5 km/h (3 Bft) W 270 ° 0 min 0 W/m² 14,6 °C 12,7 °C 20,9 km/h (4 Bft)
10.09.2024 05:28 23,7 °C 16,1 °C 60 % 91 % 1008,0 hPa 0,0 l/m² 8,0 km/h (2 Bft) W 270 ° 0 min 0 W/m² 14,6 °C 15,3 °C 20,9 km/h (4 Bft)
10.09.2024 05:29 23,7 °C 16,1 °C 60 % 91 % 1007,9 hPa 0,0 l/m² 11,3 km/h (2 Bft) W 270 ° 0 min 0 W/m² 14,6 °C 13,8 °C 16,1 km/h (3 Bft)
10.09.2024 05:30 23,7 °C 16,1 °C 60 % 91 % 1007,9 hPa 0,0 l/m² 14,5 km/h (3 Bft) W 270 ° 0 min 0 W/m² 14,6 °C 12,7 °C 19,3 km/h (3 Bft)
10.09.2024 05:31 23,7 °C 16,1 °C 60 % 91 % 1008,0 hPa 0,0 l/m² 11,3 km/h (2 Bft) W 270 ° 0 min 0 W/m² 14,6 °C 13,8 °C 16,1 km/h (3 Bft)
10.09.2024 05:32 23,7 °C 16,1 °C 60 % 91 % 1007,9 hPa 0,0 l/m² 11,3 km/h (2 Bft) W-NW 292 ° 0 min 0 W/m² 14,6 °C 13,8 °C 17,7 km/h (3 Bft)
10.09.2024 05:33 23,7 °C 16,1 °C 60 % 91 % 1007,9 hPa 0,0 l/m² 14,5 km/h (3 Bft) W-NW 292 ° 0 min 0 W/m² 14,6 °C 12,7 °C 19,3 km/h (3 Bft)
10.09.2024 05:34 23,7 °C 16,1 °C 60 % 90 % 1008,0 hPa 0,0 l/m² 8,0 km/h (2 Bft) W 270 ° 0 min 0 W/m² 14,5 °C 15,3 °C 14,5 km/h (3 Bft)
10.09.2024 05:35 23,7 °C 16,0 °C 60 % 90 % 1008,0 hPa 0,0 l/m² 12,9 km/h (3 Bft) W-NW 292 ° 0 min 0 W/m² 14,4 °C 13,1 °C 27,4 km/h (5 Bft)
10.09.2024 05:36 23,7 °C 16,0 °C 60 % 90 % 1008,0 hPa 0,0 l/m² 17,7 km/h (3 Bft) W 270 ° 0 min 0 W/m² 14,4 °C 11,6 °C 30,6 km/h (5 Bft)
10.09.2024 05:37 23,7 °C 15,9 °C 60 % 90 % 1008,1 hPa 0,0 l/m² 17,7 km/h (3 Bft) W-NW 292 ° 0 min 0 W/m² 14,3 °C 11,5 °C 30,6 km/h (5 Bft)
10.09.2024 05:38 23,7 °C 15,9 °C 60 % 90 % 1008,1 hPa 0,0 l/m² 20,9 km/h (4 Bft) W 270 ° 0 min 0 W/m² 14,3 °C 10,7 °C 30,6 km/h (5 Bft)
10.09.2024 05:39 23,7 °C 15,9 °C 60 % 90 % 1008,1 hPa 0,0 l/m² 19,3 km/h (3 Bft) W 270 ° 0 min 0 W/m² 14,3 °C 11,1 °C 27,4 km/h (5 Bft)
10.09.2024 05:40 23,7 °C 15,8 °C 60 % 89 % 1008,1 hPa 0,0 l/m² 12,9 km/h (3 Bft) W-NW 292 ° 0 min 0 W/m² 14,0 °C 12,9 °C 24,1 km/h (4 Bft)
10.09.2024 05:41 23,7 °C 15,8 °C 60 % 89 % 1008,2 hPa 0,0 l/m² 14,5 km/h (3 Bft) NW 315 ° 0 min 0 W/m² 14,0 °C 12,3 °C 25,7 km/h (4 Bft)
10.09.2024 05:42 23,7 °C 15,7 °C 60 % 89 % 1008,1 hPa 0,0 l/m² 19,3 km/h (3 Bft) W 270 ° 0 min 0 W/m² 13,9 °C 10,8 °C 29,0 km/h (5 Bft)
10.09.2024 05:43 23,7 °C 15,7 °C 60 % 89 % 1008,2 hPa 0,0 l/m² 11,3 km/h (2 Bft) W 270 ° 0 min 0 W/m² 13,9 °C 13,3 °C 17,7 km/h (3 Bft)
10.09.2024 05:44 23,7 °C 15,6 °C 60 % 89 % 1008,1 hPa 0,0 l/m² 9,7 km/h (2 Bft) W-NW 292 ° 0 min 0 W/m² 13,8 °C 13,9 °C 20,9 km/h (4 Bft)
10.09.2024 05:45 23,7 °C 15,6 °C 60 % 89 % 1008,2 hPa 0,0 l/m² 8,0 km/h (2 Bft) W-NW 292 ° 0 min 0 W/m² 13,8 °C 14,7 °C 14,5 km/h (3 Bft)
10.09.2024 05:46 23,7 °C 15,5 °C 60 % 89 % 1008,2 hPa 0,0 l/m² 12,9 km/h (3 Bft) W-NW 292 ° 0 min 0 W/m² 13,7 °C 12,5 °C 22,5 km/h (4 Bft)
10.09.2024 05:47 23,7 °C 15,5 °C 60 % 89 % 1008,2 hPa 0,0 l/m² 9,7 km/h (2 Bft) W-NW 292 ° 0 min 0 W/m² 13,7 °C 13,8 °C 19,3 km/h (3 Bft)
10.09.2024 05:48 23,7 °C 15,4 °C 60 % 89 % 1008,2 hPa 0,0 l/m² 8,0 km/h (2 Bft) W-NW 292 ° 0 min 0 W/m² 13,6 °C 14,5 °C 14,5 km/h (3 Bft)
10.09.2024 05:49 23,7 °C 15,4 °C 60 % 89 % 1008,2 hPa 0,0 l/m² 8,0 km/h (2 Bft) W 270 ° 0 min 0 W/m² 13,6 °C 14,5 °C 16,1 km/h (3 Bft)
10.09.2024 05:50 23,7 °C 15,4 °C 60 % 89 % 1008,3 hPa 0,0 l/m² 1,6 km/h (1 Bft) W-NW 292 ° 0 min 0 W/m² 13,6 °C 15,4 °C 6,4 km/h (2 Bft)
10.09.2024 05:51 23,7 °C 15,4 °C 60 % 89 % 1008,2 hPa 0,0 l/m² 4,8 km/h (1 Bft) W-NW 292 ° 0 min 0 W/m² 13,6 °C 15,4 °C 16,1 km/h (3 Bft)
10.09.2024 05:52 23,7 °C 15,3 °C 60 % 89 % 1008,2 hPa 0,0 l/m² 6,4 km/h (2 Bft) W-NW 292 ° 0 min 0 W/m² 13,5 °C 15,3 °C 12,9 km/h (3 Bft)
10.09.2024 05:53 23,7 °C 15,3 °C 60 % 89 % 1008,2 hPa 0,0 l/m² 9,7 km/h (2 Bft) W-NW 292 ° 0 min 0 W/m² 13,5 °C 13,6 °C 19,3 km/h (3 Bft)
10.09.2024 05:54 23,7 °C 15,3 °C 60 % 89 % 1008,2 hPa 0,0 l/m² 6,4 km/h (2 Bft) NW 315 ° 0 min 0 W/m² 13,5 °C 15,3 °C 16,1 km/h (3 Bft)
10.09.2024 05:55 23,7 °C 15,3 °C 59 % 89 % 1008,1 hPa 0,0 l/m² 4,8 km/h (1 Bft) W-NW 292 ° 0 min 0 W/m² 13,5 °C 15,3 °C 6,4 km/h (2 Bft)
10.09.2024 05:56 23,7 °C 15,3 °C 59 % 89 % 1008,1 hPa 0,0 l/m² 8,0 km/h (2 Bft) W-NW 292 ° 0 min 0 W/m² 13,5 °C 14,4 °C 12,9 km/h (3 Bft)
10.09.2024 05:57 23,7 °C 15,3 °C 59 % 89 % 1008,1 hPa 0,0 l/m² 8,0 km/h (2 Bft) W-NW 292 ° 0 min 0 W/m² 13,5 °C 14,4 °C 12,9 km/h (3 Bft)
10.09.2024 05:58 23,6 °C 15,3 °C 59 % 89 % 1008,2 hPa 0,0 l/m² 4,8 km/h (1 Bft) W-NW 292 ° 0 min 0 W/m² 13,5 °C 15,3 °C 9,7 km/h (2 Bft)
10.09.2024 05:59 23,7 °C 15,2 °C 59 % 89 % 1008,2 hPa 0,0 l/m² 8,0 km/h (2 Bft) W-NW 292 ° 0 min 0 W/m² 13,4 °C 14,3 °C 14,5 km/h (3 Bft)
10.09.2024 06:00 23,7 °C 15,2 °C 59 % 89 % 1008,2 hPa 0,0 l/m² 3,2 km/h (1 Bft) W-NW 292 ° 0 min 0 W/m² 13,4 °C 15,2 °C 8,0 km/h (2 Bft)
10.09.2024 06:01 23,7 °C 15,2 °C 59 % 90 % 1008,2 hPa 0,0 l/m² 8,0 km/h (2 Bft) W-NW 292 ° 0 min 0 W/m² 13,6 °C 14,3 °C 12,9 km/h (3 Bft)
10.09.2024 06:02 23,6 °C 15,2 °C 59 % 90 % 1008,2 hPa 0,0 l/m² 3,2 km/h (1 Bft) W-NW 292 ° 0 min 0 W/m² 13,6 °C 15,2 °C 8,0 km/h (2 Bft)
10.09.2024 06:03 23,6 °C 15,2 °C 59 % 90 % 1008,3 hPa 0,0 l/m² 3,2 km/h (1 Bft) W-NW 292 ° 0 min 0 W/m² 13,6 °C 15,2 °C 6,4 km/h (2 Bft)
10.09.2024 06:04 23,6 °C 15,2 °C 59 % 90 % 1008,2 hPa 0,0 l/m² 4,8 km/h (1 Bft) W-NW 292 ° 0 min 0 W/m² 13,6 °C 15,2 °C 14,5 km/h (3 Bft)
10.09.2024 06:05 23,7 °C 15,2 °C 59 % 90 % 1008,2 hPa 0,0 l/m² 4,8 km/h (1 Bft) W-NW 292 ° 0 min 0 W/m² 13,6 °C 15,2 °C 16,1 km/h (3 Bft)
10.09.2024 06:06 23,7 °C 15,2 °C 59 % 90 % 1008,2 hPa 0,2 l/m² 4,8 km/h (1 Bft) NW 315 ° 0 min 0 W/m² 13,6 °C 15,2 °C 11,3 km/h (2 Bft)
10.09.2024 06:07 23,7 °C 15,2 °C 59 % 90 % 1008,2 hPa 0,0 l/m² 9,7 km/h (2 Bft) W-NW 292 ° 0 min 0 W/m² 13,6 °C 13,5 °C 14,5 km/h (3 Bft)
10.09.2024 06:08 23,6 °C 15,1 °C 59 % 90 % 1008,3 hPa 0,0 l/m² 9,7 km/h (2 Bft) NW 315 ° 0 min 0 W/m² 13,5 °C 13,4 °C 14,5 km/h (3 Bft)
10.09.2024 06:09 23,6 °C 15,1 °C 59 % 90 % 1008,2 hPa 0,0 l/m² 9,7 km/h (2 Bft) W-NW 292 ° 0 min 0 W/m² 13,5 °C 13,4 °C 19,3 km/h (3 Bft)
10.09.2024 06:10 23,6 °C 15,1 °C 59 % 90 % 1008,2 hPa 0,0 l/m² 9,7 km/h (2 Bft) W-NW 292 ° 0 min 0 W/m² 13,5 °C 13,4 °C 17,7 km/h (3 Bft)
10.09.2024 06:11 23,6 °C 15,1 °C 59 % 90 % 1008,3 hPa 0,0 l/m² 9,7 km/h (2 Bft) W-NW 292 ° 0 min 0 W/m² 13,5 °C 13,4 °C 16,1 km/h (3 Bft)
10.09.2024 06:12 23,6 °C 15,1 °C 59 % 90 % 1008,3 hPa 0,0 l/m² 4,8 km/h (1 Bft) W-NW 292 ° 0 min 0 W/m² 13,5 °C 15,1 °C 9,7 km/h (2 Bft)
10.09.2024 06:13 23,6 °C 15,1 °C 59 % 90 % 1008,3 hPa 0,0 l/m² 6,4 km/h (2 Bft) W-NW 292 ° 0 min 0 W/m² 13,5 °C 15,1 °C 16,1 km/h (3 Bft)
10.09.2024 06:14 23,6 °C 15,0 °C 59 % 90 % 1008,3 hPa 0,0 l/m² 4,8 km/h (1 Bft) W-NW 292 ° 0 min 0 W/m² 13,4 °C 15,0 °C 12,9 km/h (3 Bft)
10.09.2024 06:15 23,6 °C 15,0 °C 59 % 90 % 1008,3 hPa 0,0 l/m² 4,8 km/h (1 Bft) W-NW 292 ° 0 min 0 W/m² 13,4 °C 15,0 °C 11,3 km/h (2 Bft)
10.09.2024 06:16 23,6 °C 15,0 °C 59 % 90 % 1008,4 hPa 0,0 l/m² 11,3 km/h (2 Bft) NW 315 ° 0 min 0 W/m² 13,4 °C 12,6 °C 19,3 km/h (3 Bft)
10.09.2024 06:17 23,6 °C 14,9 °C 59 % 90 % 1008,4 hPa 0,0 l/m² 6,4 km/h (2 Bft) W-NW 292 ° 0 min 0 W/m² 13,3 °C 14,9 °C 20,9 km/h (4 Bft)
10.09.2024 06:18 23,6 °C 14,9 °C 59 % 90 % 1008,3 hPa 0,0 l/m² 8,0 km/h (2 Bft) W 270 ° 0 min 0 W/m² 13,3 °C 14,0 °C 24,1 km/h (4 Bft)
10.09.2024 06:19 23,6 °C 14,9 °C 59 % 90 % 1008,4 hPa 0,0 l/m² 8,0 km/h (2 Bft) W-NW 292 ° 0 min 0 W/m² 13,3 °C 14,0 °C 16,1 km/h (3 Bft)
10.09.2024 06:25 23,7 °C 14,8 °C 59 % 90 % 1008,6 hPa 0,0 l/m² 6,4 km/h (2 Bft) W-NW 292 ° 0 min 0 W/m² 13,2 °C 14,8 °C 12,9 km/h (3 Bft)
10.09.2024 06:26 23,7 °C 14,8 °C 59 % 90 % 1008,6 hPa 0,0 l/m² 6,5 km/h (2 Bft) W-SW 254 ° 0 min 0 W/m² 13,2 °C 14,8 °C 11,3 km/h (2 Bft)
10.09.2024 06:27 23,7 °C 14,8 °C 59 % 90 % 1008,6 hPa 0,0 l/m² 5,4 km/h (2 Bft) W-NW 288 ° 0 min 0 W/m² 13,2 °C 14,8 °C 9,7 km/h (2 Bft)
10.09.2024 06:29 23,7 °C 14,8 °C 58 % 90 % 1008,6 hPa 0,0 l/m² 3,0 km/h (1 Bft) W 279 ° 0 min 0 W/m² 13,2 °C 14,8 °C 6,4 km/h (2 Bft)
10.09.2024 06:30 23,7 °C 14,8 °C 58 % 90 % 1008,6 hPa 0,0 l/m² 1,9 km/h (1 Bft) W 265 ° 0 min 0 W/m² 13,2 °C 14,8 °C 6,4 km/h (2 Bft)
10.09.2024 06:32 23,7 °C 14,8 °C 58 % 90 % 1008,6 hPa 0,0 l/m² 4,7 km/h (1 Bft) W-SW 254 ° 0 min 0 W/m² 13,2 °C 14,8 °C 11,3 km/h (2 Bft)
10.09.2024 06:33 23,7 °C 14,8 °C 58 % 90 % 1008,7 hPa 0,0 l/m² 3,2 km/h (1 Bft) W-SW 252 ° 0 min 0 W/m² 13,2 °C 14,8 °C 6,4 km/h (2 Bft)
10.09.2024 06:35 23,7 °C 14,8 °C 58 % 90 % 1008,7 hPa 0,0 l/m² 3,2 km/h (1 Bft) W-SW 246 ° 0 min 0 W/m² 13,2 °C 14,8 °C 8,0 km/h (2 Bft)
10.09.2024 06:37 23,7 °C 14,8 °C 58 % 90 % 1008,7 hPa 0,0 l/m² 5,0 km/h (1 Bft) W-NW 285 ° 0 min 0 W/m² 13,2 °C 14,8 °C 11,3 km/h (2 Bft)
10.09.2024 06:39 23,7 °C 14,8 °C 58 % 90 % 1008,8 hPa 0,0 l/m² 6,4 km/h (2 Bft) W-NW 292 ° 0 min 0 W/m² 13,2 °C 14,8 °C 14,5 km/h (3 Bft)
10.09.2024 06:40 23,7 °C 14,8 °C 58 % 90 % 1008,8 hPa 0,0 l/m² 6,0 km/h (2 Bft) W 273 ° 0 min 0 W/m² 13,2 °C 14,8 °C 14,5 km/h (3 Bft)
10.09.2024 06:41 23,7 °C 14,8 °C 58 % 90 % 1008,8 hPa 0,0 l/m² 2,2 km/h (1 Bft) W 273 ° 0 min 0 W/m² 13,2 °C 14,8 °C 4,8 km/h (1 Bft)
10.09.2024 06:42 23,7 °C 14,8 °C 58 % 90 % 1008,8 hPa 0,0 l/m² 2,6 km/h (1 Bft) W 269 ° 0 min 0 W/m² 13,2 °C 14,8 °C 11,3 km/h (2 Bft)
10.09.2024 06:44 23,7 °C 14,8 °C 58 % 90 % 1008,9 hPa 0,0 l/m² 4,6 km/h (1 Bft) W 268 ° 0 min 0 W/m² 13,2 °C 14,8 °C 12,9 km/h (3 Bft)
10.09.2024 06:46 23,7 °C 14,8 °C 58 % 90 % 1008,9 hPa 0,0 l/m² 4,5 km/h (1 Bft) W-SW 252 ° 0 min 0 W/m² 13,2 °C 14,8 °C 9,7 km/h (2 Bft)
10.09.2024 06:47 23,7 °C 14,7 °C 58 % 90 % 1008,9 hPa 0,0 l/m² 4,8 km/h (1 Bft) W 277 ° 0 min 0 W/m² 13,1 °C 14,7 °C 9,7 km/h (2 Bft)
10.09.2024 06:49 23,7 °C 14,7 °C 58 % 90 % 1009,0 hPa 0,0 l/m² 5,7 km/h (2 Bft) W-SW 240 ° 0 min 0 W/m² 13,1 °C 14,7 °C 11,3 km/h (2 Bft)
10.09.2024 06:50 23,7 °C 14,7 °C 58 % 90 % 1009,0 hPa 0,0 l/m² 7,3 km/h (2 Bft) W-SW 248 ° 0 min 0 W/m² 13,1 °C 14,2 °C 12,9 km/h (3 Bft)
10.09.2024 06:51 23,7 °C 14,7 °C 58 % 90 % 1009,0 hPa 0,0 l/m² 9,9 km/h (2 Bft) W 260 ° 0 min 0 W/m² 13,1 °C 12,8 °C 17,7 km/h (3 Bft)
10.09.2024 06:52 23,7 °C 14,7 °C 58 % 90 % 1009,0 hPa 0,0 l/m² 10,4 km/h (2 Bft) W-NW 303 ° 0 min 0 W/m² 13,1 °C 12,6 °C 14,5 km/h (3 Bft)
10.09.2024 06:54 23,7 °C 14,7 °C 58 % 90 % 1009,0 hPa 0,0 l/m² 5,1 km/h (1 Bft) W-NW 288 ° 0 min 0 W/m² 13,1 °C 14,7 °C 11,3 km/h (2 Bft)
10.09.2024 06:56 23,7 °C 14,6 °C 58 % 90 % 1009,1 hPa 0,0 l/m² 9,3 km/h (2 Bft) W 281 ° 0 min 0 W/m² 13,0 °C 13,0 °C 20,9 km/h (4 Bft)
10.09.2024 06:58 23,7 °C 14,6 °C 58 % 90 % 1009,2 hPa 0,0 l/m² 7,1 km/h (2 Bft) W-NW 286 ° 0 min 5 W/m² 13,0 °C 14,2 °C 16,1 km/h (3 Bft)
10.09.2024 07:00 23,7 °C 14,5 °C 57 % 90 % 1009,1 hPa 0,0 l/m² 7,2 km/h (2 Bft) W 272 ° 0 min 5 W/m² 12,9 °C 14,0 °C 16,1 km/h (3 Bft)
10.09.2024 07:01 23,7 °C 14,5 °C 57 % 90 % 1009,2 hPa 0,0 l/m² 10,7 km/h (2 Bft) W-SW 237 ° 0 min 5 W/m² 12,9 °C 12,2 °C 20,9 km/h (4 Bft)
10.09.2024 07:02 23,7 °C 14,5 °C 56 % 90 % 1009,2 hPa 0,0 l/m² 10,3 km/h (2 Bft) W-NW 292 ° 0 min 5 W/m² 12,9 °C 12,4 °C 22,5 km/h (4 Bft)
10.09.2024 07:03 23,7 °C 14,5 °C 56 % 90 % 1009,2 hPa 0,0 l/m² 11,8 km/h (2 Bft) W-SW 257 ° 0 min 5 W/m² 12,9 °C 11,8 °C 16,1 km/h (3 Bft)
10.09.2024 07:05 23,7 °C 14,4 °C 56 % 90 % 1009,4 hPa 0,0 l/m² 10,5 km/h (2 Bft) W 275 ° 0 min 5 W/m² 12,8 °C 12,2 °C 19,3 km/h (3 Bft)
10.09.2024 07:07 23,7 °C 14,4 °C 56 % 89 % 1009,3 hPa 0,0 l/m² 8,8 km/h (2 Bft) W-NW 297 ° 0 min 7 W/m² 12,6 °C 13,0 °C 19,3 km/h (3 Bft)
10.09.2024 07:09 23,7 °C 14,4 °C 56 % 90 % 1009,3 hPa 0,0 l/m² 8,3 km/h (2 Bft) W-NW 297 ° 0 min 7 W/m² 12,8 °C 13,3 °C 16,1 km/h (3 Bft)
10.09.2024 07:10 23,7 °C 14,4 °C 56 % 90 % 1009,4 hPa 0,0 l/m² 8,2 km/h (2 Bft) NW 304 ° 0 min 9 W/m² 12,8 °C 13,4 °C 16,1 km/h (3 Bft)
10.09.2024 07:11 23,7 °C 14,4 °C 56 % 89 % 1009,4 hPa 0,0 l/m² 8,1 km/h (2 Bft) W-NW 286 ° 0 min 9 W/m² 12,6 °C 13,4 °C 14,5 km/h (3 Bft)
10.09.2024 07:12 23,7 °C 14,4 °C 56 % 89 % 1009,4 hPa 0,0 l/m² 9,2 km/h (2 Bft) W-NW 293 ° 0 min 11 W/m² 12,6 °C 12,8 °C 19,3 km/h (3 Bft)
10.09.2024 07:14 23,7 °C 14,4 °C 56 % 89 % 1009,4 hPa 0,0 l/m² 6,2 km/h (2 Bft) W-SW 238 ° 0 min 11 W/m² 12,6 °C 14,4 °C 14,5 km/h (3 Bft)
10.09.2024 07:16 23,7 °C 14,4 °C 56 % 89 % 1009,4 hPa 0,0 l/m² 8,1 km/h (2 Bft) W-NW 290 ° 0 min 11 W/m² 12,6 °C 13,4 °C 16,1 km/h (3 Bft)
10.09.2024 07:18 23,7 °C 14,4 °C 56 % 89 % 1009,4 hPa 0,0 l/m² 5,9 km/h (2 Bft) W-NW 295 ° 0 min 11 W/m² 12,6 °C 14,4 °C 16,1 km/h (3 Bft)
10.09.2024 07:20 23,7 °C 14,4 °C 56 % 89 % 1009,4 hPa 0,0 l/m² 7,3 km/h (2 Bft) W-NW 286 ° 0 min 9 W/m² 12,6 °C 13,9 °C 12,9 km/h (3 Bft)
10.09.2024 07:21 23,7 °C 14,4 °C 56 % 89 % 1009,5 hPa 0,0 l/m² 7,0 km/h (2 Bft) W-NW 292 ° 0 min 9 W/m² 12,6 °C 14,1 °C 16,1 km/h (3 Bft)
10.09.2024 07:22 23,7 °C 14,4 °C 56 % 89 % 1009,4 hPa 0,0 l/m² 7,6 km/h (2 Bft) W 265 ° 0 min 9 W/m² 12,6 °C 13,7 °C 14,5 km/h (3 Bft)
10.09.2024 07:23 23,7 °C 14,4 °C 56 % 89 % 1009,5 hPa 0,0 l/m² 2,7 km/h (1 Bft) W 275 ° 0 min 9 W/m² 12,6 °C 14,4 °C 9,7 km/h (2 Bft)
10.09.2024 07:25 23,6 °C 14,4 °C 56 % 89 % 1009,5 hPa 0,0 l/m² 7,0 km/h (2 Bft) W 279 ° 0 min 9 W/m² 12,6 °C 14,1 °C 17,7 km/h (3 Bft)
10.09.2024 07:27 23,7 °C 14,4 °C 56 % 89 % 1009,5 hPa 0,0 l/m² 8,2 km/h (2 Bft) W-SW 256 ° 0 min 11 W/m² 12,6 °C 13,4 °C 16,1 km/h (3 Bft)
10.09.2024 07:28 23,7 °C 14,4 °C 56 % 89 % 1009,5 hPa 0,0 l/m² 6,7 km/h (2 Bft) W-NW 291 ° 0 min 12 W/m² 12,6 °C 14,2 °C 12,9 km/h (3 Bft)
10.09.2024 07:29 23,7 °C 14,4 °C 56 % 89 % 1009,6 hPa 0,0 l/m² 7,1 km/h (2 Bft) W-NW 292 ° 0 min 12 W/m² 12,6 °C 14,0 °C 14,5 km/h (3 Bft)
10.09.2024 07:31 23,7 °C 14,3 °C 56 % 89 % 1009,6 hPa 0,0 l/m² 5,6 km/h (2 Bft) NW 306 ° 0 min 14 W/m² 12,5 °C 14,3 °C 16,1 km/h (3 Bft)
10.09.2024 07:32 23,6 °C 14,3 °C 56 % 89 % 1009,6 hPa 0,0 l/m² 3,8 km/h (1 Bft) W 274 ° 0 min 16 W/m² 12,5 °C 14,3 °C 11,3 km/h (2 Bft)
10.09.2024 07:33 23,7 °C 14,4 °C 56 % 89 % 1009,5 hPa 0,0 l/m² 4,5 km/h (1 Bft) W-SW 257 ° 0 min 16 W/m² 12,6 °C 14,4 °C 9,7 km/h (2 Bft)
10.09.2024 07:34 23,6 °C 14,4 °C 56 % 89 % 1009,6 hPa 0,0 l/m² 8,1 km/h (2 Bft) W-NW 296 ° 0 min 16 W/m² 12,6 °C 13,4 °C 16,1 km/h (3 Bft)
10.09.2024 07:36 23,7 °C 14,4 °C 57 % 89 % 1009,5 hPa 0,0 l/m² 6,5 km/h (2 Bft) W 281 ° 0 min 16 W/m² 12,6 °C 14,4 °C 14,5 km/h (3 Bft)
10.09.2024 07:38 23,7 °C 14,4 °C 57 % 89 % 1009,6 hPa 0,0 l/m² 6,2 km/h (2 Bft) W-SW 255 ° 0 min 16 W/m² 12,6 °C 14,4 °C 19,3 km/h (3 Bft)
10.09.2024 07:40 23,7 °C 14,4 °C 57 % 89 % 1009,7 hPa 0,0 l/m² 9,8 km/h (2 Bft) W-NW 283 ° 0 min 14 W/m² 12,6 °C 12,5 °C 17,7 km/h (3 Bft)
10.09.2024 07:41 23,7 °C 14,4 °C 57 % 89 % 1009,8 hPa 0,0 l/m² 5,8 km/h (2 Bft) W-SW 241 ° 0 min 14 W/m² 12,6 °C 14,4 °C 12,9 km/h (3 Bft)
10.09.2024 07:42 23,6 °C 14,3 °C 57 % 89 % 1009,8 hPa 0,0 l/m² 4,6 km/h (1 Bft) W-NW 286 ° 0 min 14 W/m² 12,5 °C 14,3 °C 9,7 km/h (2 Bft)
10.09.2024 07:43 23,7 °C 14,4 °C 57 % 89 % 1009,8 hPa 0,0 l/m² 6,9 km/h (2 Bft) W-SW 253 ° 0 min 16 W/m² 12,6 °C 14,1 °C 12,9 km/h (3 Bft)
10.09.2024 07:45 23,7 °C 14,4 °C 57 % 89 % 1009,7 hPa 0,0 l/m² 5,5 km/h (2 Bft) NW 307 ° 0 min 18 W/m² 12,6 °C 14,4 °C 14,5 km/h (3 Bft)
10.09.2024 07:47 23,6 °C 14,4 °C 57 % 88 % 1009,8 hPa 0,0 l/m² 5,9 km/h (2 Bft) NW 319 ° 0 min 21 W/m² 12,4 °C 14,4 °C 17,7 km/h (3 Bft)
10.09.2024 07:49 23,6 °C 14,4 °C 57 % 88 % 1009,8 hPa 0,0 l/m² 7,1 km/h (2 Bft) W-SW 248 ° 0 min 23 W/m² 12,4 °C 14,0 °C 16,1 km/h (3 Bft)
10.09.2024 07:50 23,6 °C 14,4 °C 57 % 88 % 1009,8 hPa 0,0 l/m² 7,6 km/h (2 Bft) W 263 ° 0 min 26 W/m² 12,4 °C 13,7 °C 11,3 km/h (2 Bft)
10.09.2024 07:52 23,6 °C 14,4 °C 57 % 88 % 1009,8 hPa 0,0 l/m² 6,7 km/h (2 Bft) W-SW 254 ° 0 min 30 W/m² 12,4 °C 14,2 °C 11,3 km/h (2 Bft)
10.09.2024 07:54 23,7 °C 14,4 °C 57 % 88 % 1009,9 hPa 0,0 l/m² 9,7 km/h (2 Bft) N-NW 347 ° 0 min 35 W/m² 12,4 °C 12,6 °C 19,3 km/h (3 Bft)
10.09.2024 07:56 23,6 °C 14,4 °C 57 % 88 % 1009,9 hPa 0,0 l/m² 11,4 km/h (2 Bft) W-NW 301 ° 0 min 40 W/m² 12,4 °C 11,8 °C 24,1 km/h (4 Bft)
10.09.2024 07:58 23,7 °C 14,3 °C 57 % 87 % 1009,9 hPa 0,0 l/m² 10,9 km/h (2 Bft) W 269 ° 2 min 56 W/m² 12,2 °C 11,9 °C 20,9 km/h (4 Bft)
10.09.2024 08:00 23,7 °C 14,3 °C 57 % 87 % 1009,9 hPa 0,0 l/m² 12,9 km/h (3 Bft) W-NW 294 ° 2 min 63 W/m² 12,2 °C 11,1 °C 20,9 km/h (4 Bft)
10.09.2024 08:01 23,7 °C 14,4 °C 57 % 87 % 1009,9 hPa 0,0 l/m² 10,9 km/h (2 Bft) W-NW 300 ° 1 min 69 W/m² 12,3 °C 12,0 °C 17,7 km/h (3 Bft)
10.09.2024 08:02 23,7 °C 14,3 °C 57 % 87 % 1009,9 hPa 0,0 l/m² 5,7 km/h (2 Bft) W 277 ° 1 min 74 W/m² 12,2 °C 14,3 °C 9,7 km/h (2 Bft)
10.09.2024 08:03 23,7 °C 14,3 °C 57 % 87 % 1010,0 hPa 0,0 l/m² 7,9 km/h (2 Bft) W-NW 283 ° 1 min 83 W/m² 12,2 °C 13,4 °C 16,1 km/h (3 Bft)
10.09.2024 08:05 23,7 °C 14,3 °C 57 % 86 % 1010,0 hPa 0,0 l/m² 10,2 km/h (2 Bft) W 276 ° 2 min 93 W/m² 12,0 °C 12,3 °C 17,7 km/h (3 Bft)
10.09.2024 08:07 23,6 °C 14,4 °C 57 % 86 % 1010,1 hPa 0,0 l/m² 12,2 km/h (2 Bft) W 261 ° 2 min 98 W/m² 12,1 °C 11,5 °C 17,7 km/h (3 Bft)
10.09.2024 08:09 23,6 °C 14,4 °C 57 % 86 % 1010,0 hPa 0,0 l/m² 11,5 km/h (2 Bft) W 274 ° 2 min 86 W/m² 12,1 °C 11,8 °C 17,7 km/h (3 Bft)
10.09.2024 08:10 23,7 °C 14,4 °C 57 % 86 % 1010,1 hPa 0,0 l/m² 12,3 km/h (2 Bft) W-NW 284 ° 1 min 81 W/m² 12,1 °C 11,5 °C 17,7 km/h (3 Bft)
10.09.2024 08:12 23,6 °C 14,4 °C 57 % 85 % 1010,0 hPa 0,0 l/m² 10,6 km/h (2 Bft) W-NW 286 ° 2 min 72 W/m² 11,9 °C 12,2 °C 17,7 km/h (3 Bft)
10.09.2024 08:14 23,7 °C 14,4 °C 57 % 85 % 1010,0 hPa 0,0 l/m² 11,8 km/h (2 Bft) W 276 ° 2 min 69 W/m² 11,9 °C 11,7 °C 17,7 km/h (3 Bft)
10.09.2024 08:16 23,7 °C 14,4 °C 57 % 85 % 1010,1 hPa 0,0 l/m² 10,6 km/h (2 Bft) W 274 ° 2 min 70 W/m² 11,9 °C 12,2 °C 20,9 km/h (4 Bft)
10.09.2024 08:18 23,7 °C 14,4 °C 57 % 85 % 1010,1 hPa 0,0 l/m² 6,4 km/h (2 Bft) W-NW 296 ° 2 min 72 W/m² 11,9 °C 14,4 °C 14,5 km/h (3 Bft)
10.09.2024 08:20 23,7 °C 14,4 °C 57 % 85 % 1010,1 hPa 0,0 l/m² 6,0 km/h (2 Bft) W-NW 286 ° 2 min 69 W/m² 11,9 °C 14,4 °C 11,3 km/h (2 Bft)
10.09.2024 08:21 23,7 °C 14,4 °C 57 % 85 % 1010,1 hPa 0,0 l/m² 7,8 km/h (2 Bft) W-NW 288 ° 1 min 60 W/m² 11,9 °C 13,6 °C 16,1 km/h (3 Bft)
10.09.2024 08:22 23,7 °C 14,5 °C 57 % 85 % 1010,1 hPa 0,0 l/m² 6,6 km/h (2 Bft) W 260 ° 1 min 56 W/m² 12,0 °C 14,4 °C 16,1 km/h (3 Bft)
10.09.2024 08:23 23,7 °C 14,4 °C 57 % 85 % 1010,1 hPa 0,0 l/m² 7,8 km/h (2 Bft) W 269 ° 1 min 53 W/m² 11,9 °C 13,6 °C 12,9 km/h (3 Bft)
10.09.2024 08:25 23,7 °C 14,4 °C 57 % 84 % 1010,2 hPa 0,0 l/m² 8,0 km/h (2 Bft) W-NW 292 ° 2 min 53 W/m² 11,7 °C 13,5 °C 16,1 km/h (3 Bft)
10.09.2024 08:27 23,7 °C 14,4 °C 57 % 84 % 1010,2 hPa 0,0 l/m² 8,1 km/h (2 Bft) W-NW 301 ° 0 min 44 W/m² 11,7 °C 13,4 °C 16,1 km/h (3 Bft)
10.09.2024 08:29 23,7 °C 14,4 °C 57 % 83 % 1010,2 hPa 0,0 l/m² 5,3 km/h (1 Bft) W 270 ° 0 min 49 W/m² 11,5 °C 14,4 °C 9,7 km/h (2 Bft)
10.09.2024 08:30 23,7 °C 14,4 °C 57 % 83 % 1010,3 hPa 0,0 l/m² 6,0 km/h (2 Bft) W-NW 296 ° 1 min 54 W/m² 11,5 °C 14,4 °C 11,3 km/h (2 Bft)
10.09.2024 08:31 23,6 °C 14,4 °C 57 % 83 % 1010,3 hPa 0,0 l/m² 8,1 km/h (2 Bft) W-NW 297 ° 1 min 56 W/m² 11,5 °C 13,4 °C 12,9 km/h (3 Bft)
10.09.2024 08:32 23,6 °C 14,4 °C 57 % 83 % 1010,3 hPa 0,0 l/m² 6,6 km/h (2 Bft) W 259 ° 1 min 67 W/m² 11,5 °C 14,3 °C 14,5 km/h (3 Bft)
10.09.2024 08:34 23,7 °C 14,3 °C 57 % 83 % 1010,2 hPa 0,0 l/m² 6,9 km/h (2 Bft) W-SW 255 ° 2 min 60 W/m² 11,5 °C 14,0 °C 12,9 km/h (3 Bft)
10.09.2024 08:36 23,6 °C 14,3 °C 57 % 83 % 1010,3 hPa 0,0 l/m² 10,4 km/h (2 Bft) NW 304 ° 2 min 72 W/m² 11,5 °C 12,2 °C 17,7 km/h (3 Bft)
10.09.2024 08:38 23,7 °C 14,3 °C 57 % 83 % 1010,3 hPa 0,0 l/m² 7,9 km/h (2 Bft) W 273 ° 2 min 271 W/m² 11,5 °C 13,4 °C 14,5 km/h (3 Bft)
10.09.2024 08:40 23,7 °C 14,3 °C 57 % 83 % 1010,4 hPa 0,0 l/m² 5,5 km/h (2 Bft) W 279 ° 2 min 271 W/m² 11,5 °C 14,3 °C 16,1 km/h (3 Bft)
10.09.2024 08:41 23,7 °C 14,4 °C 57 % 84 % 1010,4 hPa 0,0 l/m² 8,8 km/h (2 Bft) W-SW 254 ° 1 min 274 W/m² 11,7 °C 13,0 °C 14,5 km/h (3 Bft)
10.09.2024 08:42 23,7 °C 14,4 °C 57 % 84 % 1010,4 hPa 0,0 l/m² 6,4 km/h (2 Bft) W-NW 285 ° 1 min 276 W/m² 11,7 °C 14,4 °C 11,3 km/h (2 Bft)
10.09.2024 08:43 23,7 °C 14,4 °C 57 % 84 % 1010,5 hPa 0,0 l/m² 9,3 km/h (2 Bft) W 279 ° 1 min 279 W/m² 11,7 °C 12,8 °C 14,5 km/h (3 Bft)
10.09.2024 08:45 23,7 °C 14,5 °C 57 % 84 % 1010,5 hPa 0,0 l/m² 6,2 km/h (2 Bft) W 267 ° 2 min 287 W/m² 11,8 °C 14,5 °C 14,5 km/h (3 Bft)
10.09.2024 08:47 23,7 °C 14,6 °C 57 % 84 % 1010,5 hPa 0,0 l/m² 7,8 km/h (2 Bft) SW 234 ° 2 min 290 W/m² 11,9 °C 13,8 °C 14,5 km/h (3 Bft)
10.09.2024 08:49 23,7 °C 14,7 °C 57 % 83 % 1010,5 hPa 0,0 l/m² 10,1 km/h (2 Bft) W-NW 286 ° 2 min 294 W/m² 11,8 °C 12,7 °C 19,3 km/h (3 Bft)
10.09.2024 08:51 23,7 °C 14,8 °C 57 % 83 % 1010,5 hPa 0,0 l/m² 10,9 km/h (2 Bft) W 267 ° 2 min 301 W/m² 11,9 °C 12,5 °C 22,5 km/h (4 Bft)
10.09.2024 08:52 23,7 °C 14,8 °C 57 % 82 % 1010,5 hPa 0,0 l/m² 10,1 km/h (2 Bft) W 263 ° 1 min 302 W/m² 11,8 °C 12,9 °C 17,7 km/h (3 Bft)
10.09.2024 08:53 23,7 °C 14,9 °C 57 % 82 % 1010,5 hPa 0,0 l/m² 9,2 km/h (2 Bft) W 262 ° 1 min 304 W/m² 11,9 °C 13,4 °C 16,1 km/h (3 Bft)
10.09.2024 08:54 23,7 °C 14,9 °C 57 % 81 % 1010,6 hPa 0,0 l/m² 10,7 km/h (2 Bft) W-SW 255 ° 1 min 308 W/m² 11,7 °C 12,7 °C 16,1 km/h (3 Bft)
10.09.2024 08:56 23,7 °C 15,1 °C 57 % 81 % 1010,6 hPa 0,0 l/m² 8,3 km/h (2 Bft) W 261 ° 2 min 309 W/m² 11,9 °C 14,0 °C 16,1 km/h (3 Bft)
10.09.2024 08:58 23,8 °C 15,2 °C 57 % 81 % 1010,6 hPa 0,0 l/m² 9,7 km/h (2 Bft) NW 315 ° 2 min 320 W/m² 12,0 °C 13,5 °C 20,9 km/h (4 Bft)
10.09.2024 09:00 23,8 °C 15,3 °C 57 % 78 % 1010,6 hPa 0,0 l/m² 12,6 km/h (3 Bft) W-SW 254 ° 2 min 325 W/m² 11,5 °C 12,4 °C 22,5 km/h (4 Bft)
10.09.2024 09:01 23,8 °C 15,3 °C 57 % 78 % 1010,6 hPa 0,0 l/m² 8,3 km/h (2 Bft) W 259 ° 1 min 329 W/m² 11,5 °C 14,3 °C 16,1 km/h (3 Bft)
10.09.2024 09:03 23,8 °C 15,4 °C 57 % 79 % 1010,6 hPa 0,0 l/m² 9,9 km/h (2 Bft) W-SW 244 ° 2 min 330 W/m² 11,8 °C 13,6 °C 19,3 km/h (3 Bft)
10.09.2024 09:04 23,8 °C 15,4 °C 57 % 78 % 1010,7 hPa 0,0 l/m² 11,3 km/h (2 Bft) W 262 ° 1 min 316 W/m² 11,6 °C 13,0 °C 17,7 km/h (3 Bft)
10.09.2024 09:06 23,8 °C 15,4 °C 57 % 78 % 1010,7 hPa 0,0 l/m² 13,5 km/h (3 Bft) W 277 ° 2 min 338 W/m² 11,6 °C 12,2 °C 20,9 km/h (4 Bft)
10.09.2024 09:08 23,8 °C 15,4 °C 57 % 77 % 1010,7 hPa 0,0 l/m² 10,7 km/h (2 Bft) W 275 ° 2 min 348 W/m² 11,4 °C 13,3 °C 19,3 km/h (3 Bft)
10.09.2024 09:10 23,8 °C 15,5 °C 57 % 78 % 1010,7 hPa 0,0 l/m² 6,0 km/h (2 Bft) W 271 ° 2 min 352 W/m² 11,7 °C 15,5 °C 12,9 km/h (3 Bft)
10.09.2024 09:11 23,8 °C 15,6 °C 57 % 79 % 1010,7 hPa 0,0 l/m² 7,9 km/h (2 Bft) W-NW 284 ° 1 min 352 W/m² 12,0 °C 14,8 °C 17,7 km/h (3 Bft)
10.09.2024 09:12 23,8 °C 15,7 °C 57 % 79 % 1010,7 hPa 0,0 l/m² 15,6 km/h (3 Bft) W-SW 245 ° 1 min 355 W/m² 12,1 °C 11,9 °C 22,5 km/h (4 Bft)
10.09.2024 09:13 23,9 °C 15,7 °C 57 % 77 % 1010,7 hPa 0,0 l/m² 12,6 km/h (3 Bft) W 262 ° 1 min 359 W/m² 11,7 °C 12,9 °C 19,3 km/h (3 Bft)
10.09.2024 09:15 23,9 °C 15,7 °C 57 % 77 % 1010,7 hPa 0,0 l/m² 14,2 km/h (3 Bft) W-SW 247 ° 2 min 364 W/m² 11,7 °C 12,3 °C 24,1 km/h (4 Bft)
10.09.2024 09:17 23,9 °C 15,8 °C 57 % 77 % 1010,8 hPa 0,0 l/m² 9,3 km/h (2 Bft) W 271 ° 2 min 369 W/m² 11,8 °C 14,3 °C 17,7 km/h (3 Bft)
10.09.2024 09:19 23,9 °C 15,8 °C 57 % 75 % 1010,8 hPa 0,0 l/m² 11,4 km/h (2 Bft) NW 304 ° 2 min 378 W/m² 11,4 °C 13,4 °C 24,1 km/h (4 Bft)
10.09.2024 09:21 23,9 °C 15,9 °C 57 % 78 % 1010,8 hPa 0,0 l/m² 8,3 km/h (2 Bft) W 275 ° 2 min 385 W/m² 12,1 °C 14,9 °C 14,5 km/h (3 Bft)
10.09.2024 09:22 23,9 °C 15,9 °C 57 % 76 % 1010,8 hPa 0,0 l/m² 14,6 km/h (3 Bft) W 277 ° 1 min 387 W/m² 11,7 °C 12,4 °C 22,5 km/h (4 Bft)
10.09.2024 09:23 23,9 °C 15,9 °C 57 % 76 % 1010,7 hPa 0,0 l/m² 12,4 km/h (2 Bft) W 279 ° 1 min 392 W/m² 11,7 °C 13,2 °C 20,9 km/h (4 Bft)
10.09.2024 09:24 23,9 °C 15,9 °C 57 % 75 % 1010,8 hPa 0,0 l/m² 9,3 km/h (2 Bft) W 267 ° 1 min 394 W/m² 11,5 °C 14,4 °C 17,7 km/h (3 Bft)
10.09.2024 09:26 23,9 °C 15,8 °C 57 % 76 % 1010,8 hPa 0,0 l/m² 11,8 km/h (2 Bft) SW 232 ° 2 min 403 W/m² 11,6 °C 13,3 °C 22,5 km/h (4 Bft)
10.09.2024 09:28 23,9 °C 15,8 °C 57 % 75 % 1010,8 hPa 0,0 l/m² 14,3 km/h (3 Bft) W-NW 285 ° 2 min 404 W/m² 11,4 °C 12,4 °C 29,0 km/h (5 Bft)
10.09.2024 09:30 24,0 °C 15,8 °C 56 % 74 % 1010,9 hPa 0,0 l/m² 14,1 km/h (3 Bft) W-SW 257 ° 2 min 410 W/m² 11,2 °C 12,5 °C 20,9 km/h (4 Bft)
10.09.2024 09:31 24,0 °C 15,8 °C 56 % 74 % 1010,9 hPa 0,0 l/m² 10,5 km/h (2 Bft) W-SW 254 ° 1 min 410 W/m² 11,2 °C 13,8 °C 19,3 km/h (3 Bft)
10.09.2024 09:32 24,0 °C 15,9 °C 56 % 75 % 1010,9 hPa 0,0 l/m² 12,4 km/h (2 Bft) W-SW 258 ° 1 min 411 W/m² 11,5 °C 13,2 °C 19,3 km/h (3 Bft)
10.09.2024 09:33 24,0 °C 15,9 °C 56 % 74 % 1010,9 hPa 0,0 l/m² 11,7 km/h (2 Bft) W-SW 248 ° 1 min 415 W/m² 11,3 °C 13,4 °C 19,3 km/h (3 Bft)
10.09.2024 09:35 24,1 °C 15,9 °C 56 % 74 % 1010,8 hPa 0,0 l/m² 15,0 km/h (3 Bft) W 263 ° 2 min 418 W/m² 11,3 °C 12,3 °C 24,1 km/h (4 Bft)
10.09.2024 09:37 24,0 °C 16,0 °C 56 % 74 % 1010,9 hPa 0,0 l/m² 10,7 km/h (2 Bft) W-SW 244 ° 2 min 432 W/m² 11,4 °C 13,9 °C 17,7 km/h (3 Bft)
10.09.2024 09:39 24,1 °C 16,0 °C 56 % 74 % 1010,9 hPa 0,0 l/m² 17,2 km/h (3 Bft) W-SW 258 ° 2 min 441 W/m² 11,4 °C 11,8 °C 27,4 km/h (5 Bft)
10.09.2024 09:41 24,1 °C 15,9 °C 56 % 74 % 1010,9 hPa 0,0 l/m² 15,2 km/h (3 Bft) W-NW 303 ° 2 min 443 W/m² 11,3 °C 12,2 °C 25,7 km/h (4 Bft)
10.09.2024 09:42 24,1 °C 15,9 °C 56 % 73 % 1010,9 hPa 0,0 l/m² 16,3 km/h (3 Bft) W-SW 252 ° 1 min 443 W/m² 11,1 °C 11,9 °C 22,5 km/h (4 Bft)
10.09.2024 09:43 24,1 °C 16,0 °C 56 % 73 % 1010,9 hPa 0,0 l/m² 11,7 km/h (2 Bft) W 259 ° 1 min 443 W/m² 11,2 °C 13,5 °C 17,7 km/h (3 Bft)
10.09.2024 09:44 24,1 °C 15,9 °C 56 % 73 % 1010,9 hPa 0,0 l/m² 12,9 km/h (3 Bft) W-SW 254 ° 1 min 445 W/m² 11,1 °C 13,0 °C 22,5 km/h (4 Bft)
10.09.2024 09:46 24,1 °C 16,1 °C 56 % 73 % 1010,9 hPa 0,0 l/m² 14,0 km/h (3 Bft) W-SW 242 ° 2 min 448 W/m² 11,3 °C 12,8 °C 24,1 km/h (4 Bft)
10.09.2024 09:47 24,1 °C 16,1 °C 56 % 74 % 1010,9 hPa 0,0 l/m² 9,8 km/h (2 Bft) W-SW 250 ° 1 min 450 W/m² 11,5 °C 14,4 °C 22,5 km/h (4 Bft)
10.09.2024 09:49 24,2 °C 16,1 °C 56 % 72 % 1010,9 hPa 0,0 l/m² 12,8 km/h (3 Bft) W-NW 303 ° 2 min 457 W/m² 11,0 °C 13,2 °C 17,7 km/h (3 Bft)
10.09.2024 09:51 24,2 °C 16,2 °C 56 % 72 % 1010,9 hPa 0,0 l/m² 12,3 km/h (2 Bft) NW 305 ° 2 min 464 W/m² 11,1 °C 13,5 °C 19,3 km/h (3 Bft)
10.09.2024 09:52 24,2 °C 16,3 °C 56 % 73 % 1010,9 hPa 0,0 l/m² 6,9 km/h (2 Bft) W 277 ° 1 min 468 W/m² 11,4 °C 16,0 °C 11,3 km/h (2 Bft)
10.09.2024 09:53 24,2 °C 16,3 °C 56 % 74 % 1010,8 hPa 0,0 l/m² 8,4 km/h (2 Bft) W-SW 257 ° 1 min 469 W/m² 11,7 °C 15,3 °C 14,5 km/h (3 Bft)
10.09.2024 09:54 24,2 °C 16,4 °C 56 % 73 % 1010,9 hPa 0,0 l/m² 9,5 km/h (2 Bft) W 271 ° 1 min 483 W/m² 11,5 °C 14,9 °C 16,1 km/h (3 Bft)
10.09.2024 09:56 24,2 °C 16,4 °C 56 % 71 % 1010,9 hPa 0,0 l/m² 12,2 km/h (2 Bft) W-NW 287 ° 2 min 503 W/m² 11,1 °C 13,8 °C 19,3 km/h (3 Bft)
10.09.2024 09:58 24,2 °C 16,4 °C 56 % 71 % 1010,9 hPa 0,0 l/m² 10,1 km/h (2 Bft) W-SW 246 ° 2 min 517 W/m² 11,1 °C 14,6 °C 17,7 km/h (3 Bft)
10.09.2024 10:00 24,2 °C 16,5 °C 56 % 71 % 1010,9 hPa 0,0 l/m² 6,6 km/h (2 Bft) W-NW 299 ° 2 min 378 W/m² 11,2 °C 16,4 °C 16,1 km/h (3 Bft)
10.09.2024 10:01 24,2 °C 16,6 °C 56 % 72 % 1010,9 hPa 0,0 l/m² 10,7 km/h (2 Bft) W 263 ° 1 min 378 W/m² 11,5 °C 14,6 °C 17,7 km/h (3 Bft)
10.09.2024 10:02 24,2 °C 16,6 °C 56 % 72 % 1010,9 hPa 0,0 l/m² 13,1 km/h (3 Bft) SW 235 ° 1 min 533 W/m² 11,5 °C 13,7 °C 19,3 km/h (3 Bft)
10.09.2024 10:03 24,2 °C 16,6 °C 56 % 72 % 1010,9 hPa 0,0 l/m² 13,3 km/h (3 Bft) W 274 ° 1 min 533 W/m² 11,5 °C 13,7 °C 19,3 km/h (3 Bft)
10.09.2024 10:05 24,3 °C 16,6 °C 56 % 71 % 1011,0 hPa 0,0 l/m² 11,8 km/h (2 Bft) W-SW 256 ° 2 min 334 W/m² 11,3 °C 14,2 °C 20,9 km/h (4 Bft)
10.09.2024 10:07 24,3 °C 16,4 °C 56 % 70 % 1010,9 hPa 0,0 l/m² 11,4 km/h (2 Bft) W 273 ° 2 min 243 W/m² 10,9 °C 14,1 °C 22,5 km/h (4 Bft)
10.09.2024 10:09 24,3 °C 16,4 °C 56 % 72 % 1010,9 hPa 0,0 l/m² 7,8 km/h (2 Bft) W-NW 288 ° 2 min 369 W/m² 11,3 °C 15,7 °C 16,1 km/h (3 Bft)
10.09.2024 10:11 24,3 °C 16,3 °C 56 % 71 % 1011,0 hPa 0,0 l/m² 11,2 km/h (2 Bft) W-SW 258 ° 2 min 540 W/m² 11,0 °C 14,1 °C 16,1 km/h (3 Bft)
10.09.2024 10:12 24,3 °C 16,4 °C 56 % 71 % 1011,0 hPa 0,0 l/m² 13,4 km/h (3 Bft) W-SW 250 ° 1 min 529 W/m² 11,1 °C 13,4 °C 17,7 km/h (3 Bft)
10.09.2024 10:13 24,3 °C 16,6 °C 56 % 69 % 1011,0 hPa 0,0 l/m² 8,3 km/h (2 Bft) W 263 ° 1 min 531 W/m² 10,9 °C 15,6 °C 16,1 km/h (3 Bft)
10.09.2024 10:14 24,3 °C 16,6 °C 56 % 69 % 1011,0 hPa 0,0 l/m² 9,3 km/h (2 Bft) NW 307 ° 1 min 531 W/m² 10,9 °C 15,2 °C 17,7 km/h (3 Bft)
10.09.2024 10:16 24,3 °C 16,6 °C 56 % 68 % 1011,1 hPa 0,0 l/m² 13,0 km/h (3 Bft) W-SW 256 ° 2 min 536 W/m² 10,7 °C 13,8 °C 22,5 km/h (4 Bft)
10.09.2024 10:18 24,4 °C 16,7 °C 56 % 70 % 1010,9 hPa 0,0 l/m² 12,7 km/h (3 Bft) W-NW 297 ° 2 min 547 W/m² 11,2 °C 14,0 °C 19,3 km/h (3 Bft)
10.09.2024 10:20 24,3 °C 16,8 °C 56 % 68 % 1011,0 hPa 0,0 l/m² 11,4 km/h (2 Bft) W-NW 294 ° 2 min 548 W/m² 10,9 °C 14,6 °C 20,9 km/h (4 Bft)
10.09.2024 10:21 24,4 °C 16,8 °C 56 % 68 % 1011,0 hPa 0,0 l/m² 12,9 km/h (3 Bft) W-SW 257 ° 1 min 554 W/m² 10,9 °C 14,0 °C 19,3 km/h (3 Bft)
10.09.2024 10:22 24,4 °C 16,9 °C 56 % 69 % 1011,0 hPa 0,0 l/m² 11,9 km/h (2 Bft) W 266 ° 1 min 554 W/m² 11,2 °C 14,5 °C 17,7 km/h (3 Bft)
10.09.2024 10:23 24,4 °C 17,0 °C 56 % 70 % 1011,0 hPa 0,0 l/m² 12,0 km/h (2 Bft) W 267 ° 1 min 561 W/m² 11,5 °C 14,6 °C 16,1 km/h (3 Bft)
10.09.2024 10:25 24,4 °C 17,2 °C 56 % 69 % 1011,0 hPa 0,0 l/m² 9,5 km/h (2 Bft) W 266 ° 2 min 568 W/m² 11,5 °C 15,8 °C 16,1 km/h (3 Bft)
10.09.2024 10:27 24,4 °C 17,0 °C 56 % 70 % 1011,0 hPa 0,0 l/m² 11,2 km/h (2 Bft) W-SW 254 ° 2 min 160 W/m² 11,5 °C 14,9 °C 19,3 km/h (3 Bft)
10.09.2024 10:29 24,4 °C 16,8 °C 56 % 70 % 1011,0 hPa 0,0 l/m² 13,1 km/h (3 Bft) W-SW 255 ° 2 min 260 W/m² 11,3 °C 14,0 °C 19,3 km/h (3 Bft)
10.09.2024 10:30 24,4 °C 16,6 °C 56 % 70 % 1010,9 hPa 0,0 l/m² 10,9 km/h (2 Bft) SW 225 ° 1 min 260 W/m² 11,1 °C 14,5 °C 16,1 km/h (3 Bft)
10.09.2024 10:31 24,4 °C 16,7 °C 56 % 72 % 1011,0 hPa 0,0 l/m² 18,1 km/h (3 Bft) W 276 ° 1 min 260 W/m² 11,6 °C 12,4 °C 22,5 km/h (4 Bft)
10.09.2024 10:32 24,4 °C 16,7 °C 56 % 72 % 1010,9 hPa 0,0 l/m² 16,3 km/h (3 Bft) W 261 ° 1 min 260 W/m² 11,6 °C 12,9 °C 22,5 km/h (4 Bft)
10.09.2024 10:34 24,4 °C 16,6 °C 56 % 69 % 1010,9 hPa 0,0 l/m² 10,9 km/h (2 Bft) S-SW 211 ° 2 min 123 W/m² 10,9 °C 14,5 °C 20,9 km/h (4 Bft)
10.09.2024 10:36 24,4 °C 16,6 °C 56 % 68 % 1010,9 hPa 0,0 l/m² 18,1 km/h (3 Bft) W-SW 242 ° 2 min 578 W/m² 10,7 °C 12,3 °C 24,1 km/h (4 Bft)
10.09.2024 10:38 24,4 °C 16,8 °C 56 % 69 % 1010,9 hPa 0,0 l/m² 12,0 km/h (2 Bft) W-SW 250 ° 2 min 582 W/m² 11,1 °C 14,3 °C 20,9 km/h (4 Bft)
10.09.2024 10:40 24,5 °C 16,9 °C 56 % 67 % 1010,9 hPa 0,0 l/m² 8,7 km/h (2 Bft) W-SW 248 ° 2 min 580 W/m² 10,7 °C 15,8 °C 14,5 km/h (3 Bft)
10.09.2024 10:41 24,4 °C 17,1 °C 56 % 67 % 1011,0 hPa 0,0 l/m² 10,2 km/h (2 Bft) SW 225 ° 1 min 589 W/m² 10,9 °C 15,4 °C 16,1 km/h (3 Bft)
10.09.2024 10:42 24,5 °C 17,2 °C 56 % 69 % 1011,0 hPa 0,0 l/m² 16,2 km/h (3 Bft) SW 232 ° 1 min 591 W/m² 11,5 °C 13,5 °C 20,9 km/h (4 Bft)
10.09.2024 10:43 24,6 °C 17,2 °C 56 % 70 % 1011,0 hPa 0,0 l/m² 13,3 km/h (3 Bft) SW 233 ° 1 min 594 W/m² 11,7 °C 14,4 °C 17,7 km/h (3 Bft)
10.09.2024 10:45 24,6 °C 17,4 °C 55 % 70 % 1011,0 hPa 0,0 l/m² 16,0 km/h (3 Bft) S-SW 211 ° 2 min 598 W/m² 11,9 °C 13,8 °C 22,5 km/h (4 Bft)
10.09.2024 10:47 24,6 °C 17,5 °C 55 % 70 % 1011,0 hPa 0,0 l/m² 10,2 km/h (2 Bft) W 263 ° 2 min 605 W/m² 12,0 °C 15,8 °C 16,1 km/h (3 Bft)
10.09.2024 10:49 24,6 °C 17,5 °C 55 % 67 % 1010,9 hPa 0,0 l/m² 13,0 km/h (3 Bft) W-SW 242 ° 2 min 612 W/m² 11,3 °C 14,8 °C 20,9 km/h (4 Bft)
10.09.2024 10:51 24,6 °C 17,6 °C 55 % 70 % 1011,0 hPa 0,0 l/m² 16,3 km/h (3 Bft) SW 226 ° 2 min 628 W/m² 12,1 °C 14,0 °C 22,5 km/h (4 Bft)
10.09.2024 10:52 24,6 °C 17,5 °C 55 % 72 % 1010,9 hPa 0,0 l/m² 12,5 km/h (2 Bft) SW 220 ° 1 min 149 W/m² 12,4 °C 15,0 °C 16,1 km/h (3 Bft)
10.09.2024 10:53 24,6 °C 17,4 °C 55 % 71 % 1010,9 hPa 0,0 l/m² 13,9 km/h (3 Bft) SW 221 ° 1 min 149 W/m² 12,1 °C 14,4 °C 16,1 km/h (3 Bft)
10.09.2024 10:54 24,7 °C 17,4 °C 55 % 73 % 1010,9 hPa 0,0 l/m² 13,7 km/h (3 Bft) SW 217 ° 1 min 670 W/m² 12,5 °C 14,5 °C 17,7 km/h (3 Bft)
10.09.2024 10:56 24,7 °C 17,4 °C 55 % 74 % 1010,8 hPa 0,0 l/m² 14,8 km/h (3 Bft) SW 217 ° 2 min 661 W/m² 12,7 °C 14,2 °C 19,3 km/h (3 Bft)
10.09.2024 10:58 24,7 °C 17,6 °C 55 % 71 % 1010,8 hPa 0,0 l/m² 14,6 km/h (3 Bft) W-SW 255 ° 2 min 673 W/m² 12,3 °C 14,5 °C 22,5 km/h (4 Bft)
10.09.2024 11:00 24,7 °C 17,7 °C 55 % 72 % 1010,9 hPa 0,0 l/m² 14,6 km/h (3 Bft) SW 225 ° 2 min 698 W/m² 12,6 °C 14,6 °C 20,9 km/h (4 Bft)
10.09.2024 11:01 24,7 °C 17,6 °C 55 % 70 % 1010,9 hPa 0,0 l/m² 14,4 km/h (3 Bft) SW 228 ° 1 min 714 W/m² 12,1 °C 14,5 °C 19,3 km/h (3 Bft)
10.09.2024 11:02 24,7 °C 17,7 °C 55 % 72 % 1010,9 hPa 0,0 l/m² 12,9 km/h (3 Bft) W 259 ° 1 min 717 W/m² 12,6 °C 15,1 °C 19,3 km/h (3 Bft)
10.09.2024 11:03 24,7 °C 17,7 °C 55 % 70 % 1010,9 hPa 0,0 l/m² 16,5 km/h (3 Bft) SW 236 ° 1 min 717 W/m² 12,2 °C 14,1 °C 20,9 km/h (4 Bft)
10.09.2024 11:05 24,7 °C 17,3 °C 55 % 71 % 1010,9 hPa 0,0 l/m² 15,4 km/h (3 Bft) SW 222 ° 2 min 234 W/m² 12,0 °C 13,9 °C 20,9 km/h (4 Bft)
10.09.2024 11:07 24,7 °C 17,1 °C 55 % 73 % 1010,9 hPa 0,0 l/m² 15,6 km/h (3 Bft) SW 224 ° 2 min 693 W/m² 12,2 °C 13,6 °C 20,9 km/h (4 Bft)
10.09.2024 11:09 24,7 °C 17,2 °C 55 % 72 % 1011,0 hPa 0,0 l/m² 15,3 km/h (3 Bft) W-SW 243 ° 2 min 269 W/m² 12,1 °C 13,8 °C 19,3 km/h (3 Bft)
10.09.2024 11:11 24,7 °C 17,1 °C 55 % 74 % 1010,9 hPa 0,0 l/m² 15,1 km/h (3 Bft) SW 221 ° 2 min 747 W/m² 12,4 °C 13,7 °C 20,9 km/h (4 Bft)
10.09.2024 11:12 24,7 °C 17,1 °C 55 % 73 % 1010,9 hPa 0,0 l/m² 18,2 km/h (3 Bft) SW 214 ° 1 min 752 W/m² 12,2 °C 12,9 °C 30,6 km/h (5 Bft)
10.09.2024 11:13 24,7 °C 17,2 °C 55 % 73 % 1010,9 hPa 0,0 l/m² 13,3 km/h (3 Bft) SW 227 ° 1 min 761 W/m² 12,3 °C 14,4 °C 19,3 km/h (3 Bft)
10.09.2024 11:14 24,7 °C 17,2 °C 55 % 72 % 1010,9 hPa 0,0 l/m² 14,6 km/h (3 Bft) SW 234 ° 1 min 761 W/m² 12,1 °C 14,0 °C 19,3 km/h (3 Bft)
10.09.2024 11:16 24,8 °C 17,3 °C 55 % 73 % 1010,9 hPa 0,0 l/m² 15,6 km/h (3 Bft) SW 223 ° 2 min 761 W/m² 12,4 °C 13,8 °C 22,5 km/h (4 Bft)
10.09.2024 11:18 24,7 °C 17,4 °C 55 % 71 % 1010,8 hPa 0,0 l/m² 14,7 km/h (3 Bft) SW 225 ° 2 min 199 W/m² 12,1 °C 14,2 °C 20,9 km/h (4 Bft)
10.09.2024 11:20 24,8 °C 17,2 °C 55 % 71 % 1010,9 hPa 0,0 l/m² 20,5 km/h (4 Bft) W-SW 238 ° 2 min 279 W/m² 11,9 °C 12,5 °C 24,1 km/h (4 Bft)
10.09.2024 11:21 24,7 °C 17,2 °C 55 % 72 % 1010,8 hPa 0,0 l/m² 14,4 km/h (3 Bft) W-SW 246 ° 1 min 684 W/m² 12,1 °C 14,0 °C 19,3 km/h (3 Bft)
10.09.2024 11:22 24,8 °C 17,3 °C 55 % 72 % 1010,9 hPa 0,0 l/m² 9,6 km/h (2 Bft) W-SW 242 ° 1 min 684 W/m² 12,2 °C 15,8 °C 14,5 km/h (3 Bft)
10.09.2024 11:23 24,7 °C 17,3 °C 55 % 71 % 1010,9 hPa 0,0 l/m² 12,7 km/h (3 Bft) W-SW 244 ° 1 min 176 W/m² 12,0 °C 14,7 °C 19,3 km/h (3 Bft)
10.09.2024 11:25 24,7 °C 17,2 °C 55 % 69 % 1010,8 hPa 0,0 l/m² 14,5 km/h (3 Bft) SW 220 ° 2 min 269 W/m² 11,5 °C 14,0 °C 22,5 km/h (4 Bft)
10.09.2024 11:27 24,7 °C 17,2 °C 55 % 72 % 1010,8 hPa 0,0 l/m² 13,0 km/h (3 Bft) W-SW 255 ° 2 min 454 W/m² 12,1 °C 14,5 °C 19,3 km/h (3 Bft)
10.09.2024 11:29 24,7 °C 17,2 °C 55 % 70 % 1010,8 hPa 0,0 l/m² 12,5 km/h (2 Bft) W 259 ° 2 min 473 W/m² 11,7 °C 14,6 °C 19,3 km/h (3 Bft)
10.09.2024 11:31 24,7 °C 17,3 °C 55 % 68 % 1010,9 hPa 0,0 l/m² 12,1 km/h (2 Bft) W-NW 301 ° 2 min 473 W/m² 11,3 °C 14,9 °C 20,9 km/h (4 Bft)
10.09.2024 11:32 24,7 °C 17,4 °C 55 % 69 % 1010,9 hPa 0,0 l/m² 14,2 km/h (3 Bft) W-SW 252 ° 1 min 745 W/m² 11,7 °C 14,3 °C 19,3 km/h (3 Bft)
10.09.2024 11:33 24,7 °C 17,5 °C 55 % 71 % 1010,9 hPa 0,0 l/m² 10,7 km/h (2 Bft) W 279 ° 1 min 733 W/m² 12,2 °C 15,6 °C 17,7 km/h (3 Bft)
10.09.2024 11:34 24,7 °C 17,7 °C 55 % 70 % 1010,8 hPa 0,0 l/m² 10,9 km/h (2 Bft) W-SW 242 ° 1 min 751 W/m² 12,2 °C 15,8 °C 17,7 km/h (3 Bft)
10.09.2024 11:36 24,8 °C 17,8 °C 55 % 69 % 1010,9 hPa 0,0 l/m² 12,8 km/h (3 Bft) SW 214 ° 2 min 751 W/m² 12,0 °C 15,2 °C 19,3 km/h (3 Bft)
10.09.2024 11:37 24,8 °C 17,9 °C 55 % 73 % 1010,8 hPa 0,0 l/m² 12,8 km/h (3 Bft) SW 218 ° 1 min 749 W/m² 13,0 °C 15,4 °C 16,1 km/h (3 Bft)
10.09.2024 11:38 24,8 °C 17,9 °C 55 % 71 % 1010,9 hPa 0,0 l/m² 16,7 km/h (3 Bft) SW 230 ° 1 min 745 W/m² 12,6 °C 14,3 °C 19,3 km/h (3 Bft)
10.09.2024 11:40 24,8 °C 18,1 °C 55 % 72 % 1010,8 hPa 0,0 l/m² 12,4 km/h (2 Bft) SW 215 ° 2 min 729 W/m² 13,0 °C 15,7 °C 16,1 km/h (3 Bft)
10.09.2024 11:41 24,8 °C 18,1 °C 55 % 74 % 1010,7 hPa 0,0 l/m² 13,2 km/h (3 Bft) SW 217 ° 1 min 733 W/m² 13,4 °C 15,5 °C 19,3 km/h (3 Bft)
10.09.2024 11:42 24,8 °C 18,1 °C 55 % 71 % 1010,7 hPa 0,0 l/m² 20,0 km/h (4 Bft) SW 221 ° 1 min 729 W/m² 12,8 °C 13,8 °C 24,1 km/h (4 Bft)
10.09.2024 11:43 24,8 °C 18,1 °C 55 % 72 % 1010,7 hPa 0,0 l/m² 16,2 km/h (3 Bft) SW 219 ° 1 min 717 W/m² 13,0 °C 14,6 °C 20,9 km/h (4 Bft)
10.09.2024 11:45 24,8 °C 18,1 °C 55 % 70 % 1010,7 hPa 0,0 l/m² 15,0 km/h (3 Bft) W-SW 240 ° 2 min 710 W/m² 12,5 °C 14,9 °C 19,3 km/h (3 Bft)
10.09.2024 11:46 24,9 °C 18,1 °C 55 % 68 % 1010,7 hPa 0,0 l/m² 14,8 km/h (3 Bft) SW 216 ° 1 min 733 W/m² 12,1 °C 15,0 °C 22,5 km/h (4 Bft)
10.09.2024 11:48 24,9 °C 18,2 °C 55 % 70 % 1010,7 hPa 0,0 l/m² 14,3 km/h (3 Bft) W 275 ° 2 min 761 W/m² 12,6 °C 15,3 °C 22,5 km/h (4 Bft)
10.09.2024 11:50 24,9 °C 18,4 °C 55 % 67 % 1010,8 hPa 0,0 l/m² 11,6 km/h (2 Bft) SW 235 ° 2 min 745 W/m² 12,2 °C 16,3 °C 17,7 km/h (3 Bft)
10.09.2024 11:51 24,9 °C 18,4 °C 55 % 66 % 1010,7 hPa 0,0 l/m² 11,8 km/h (2 Bft) SW 232 ° 1 min 738 W/m² 11,9 °C 16,3 °C 16,1 km/h (3 Bft)
10.09.2024 11:52 24,9 °C 18,4 °C 55 % 70 % 1010,7 hPa 0,0 l/m² 14,8 km/h (3 Bft) W 267 ° 1 min 759 W/m² 12,8 °C 15,4 °C 19,3 km/h (3 Bft)
10.09.2024 11:53 24,9 °C 18,5 °C 55 % 69 % 1010,7 hPa 0,0 l/m² 12,7 km/h (3 Bft) W-SW 243 ° 1 min 759 W/m² 12,7 °C 16,1 °C 20,9 km/h (4 Bft)
10.09.2024 11:54 24,9 °C 18,5 °C 55 % 66 % 1010,7 hPa 0,0 l/m² 16,2 km/h (3 Bft) W-SW 250 ° 1 min 236 W/m² 12,0 °C 15,1 °C 22,5 km/h (4 Bft)
10.09.2024 11:56 24,9 °C 18,3 °C 55 % 66 % 1010,8 hPa 0,0 l/m² 18,6 km/h (3 Bft) W-SW 248 ° 2 min 236 W/m² 11,8 °C 14,3 °C 24,1 km/h (4 Bft)
10.09.2024 11:58 24,9 °C 18,0 °C 55 % 67 % 1010,8 hPa 0,0 l/m² 20,1 km/h (4 Bft) SW 221 ° 2 min 765 W/m² 11,8 °C 13,6 °C 25,7 km/h (4 Bft)
10.09.2024 12:00 24,9 °C 17,9 °C 55 % 68 % 1010,8 hPa 0,0 l/m² 17,5 km/h (3 Bft) SW 219 ° 2 min 765 W/m² 11,9 °C 14,1 °C 22,5 km/h (4 Bft)
10.09.2024 12:01 24,9 °C 17,8 °C 55 % 71 % 1010,8 hPa 0,0 l/m² 14,1 km/h (3 Bft) SW 223 ° 1 min 765 W/m² 12,5 °C 14,8 °C 19,3 km/h (3 Bft)
10.09.2024 12:02 24,9 °C 17,9 °C 55 % 69 % 1010,8 hPa 0,0 l/m² 16,7 km/h (3 Bft) SW 215 ° 1 min 786 W/m² 12,1 °C 14,3 °C 20,9 km/h (4 Bft)
10.09.2024 12:03 24,9 °C 17,9 °C 55 % 67 % 1010,8 hPa 0,0 l/m² 13,8 km/h (3 Bft) SW 217 ° 1 min 309 W/m² 11,7 °C 15,0 °C 19,3 km/h (3 Bft)
10.09.2024 12:05 24,9 °C 17,7 °C 55 % 67 % 1010,8 hPa 0,0 l/m² 15,6 km/h (3 Bft) SW 218 ° 2 min 816 W/m² 11,5 °C 14,3 °C 25,7 km/h (4 Bft)
10.09.2024 12:06 24,9 °C 17,7 °C 55 % 68 % 1010,8 hPa 0,0 l/m² 19,7 km/h (3 Bft) SW 217 ° 1 min 916 W/m² 11,7 °C 13,3 °C 27,4 km/h (5 Bft)
10.09.2024 12:07 24,9 °C 17,7 °C 55 % 68 % 1010,7 hPa 0,0 l/m² 14,1 km/h (3 Bft) SW 221 ° 1 min 923 W/m² 11,7 °C 14,7 °C 16,1 km/h (3 Bft)
10.09.2024 12:08 24,9 °C 17,8 °C 55 % 68 % 1010,9 hPa 0,0 l/m² 12,2 km/h (2 Bft) SW 218 ° 1 min 923 W/m² 11,8 °C 15,4 °C 20,9 km/h (4 Bft)
10.09.2024 12:10 24,9 °C 17,8 °C 55 % 68 % 1010,8 hPa 0,0 l/m² 18,3 km/h (3 Bft) SW 227 ° 2 min 334 W/m² 11,8 °C 13,7 °C 24,1 km/h (4 Bft)
10.09.2024 12:11 24,9 °C 17,8 °C 55 % 68 % 1010,8 hPa 0,0 l/m² 18,3 km/h (3 Bft) S-SW 200 ° 1 min 334 W/m² 11,8 °C 13,7 °C 20,9 km/h (4 Bft)
10.09.2024 12:12 24,9 °C 17,8 °C 55 % 69 % 1010,8 hPa 0,0 l/m² 19,5 km/h (3 Bft) S-SW 208 ° 1 min 826 W/m² 12,0 °C 13,5 °C 24,1 km/h (4 Bft)
10.09.2024 12:13 24,9 °C 17,8 °C 55 % 69 % 1010,7 hPa 0,0 l/m² 16,5 km/h (3 Bft) SW 221 ° 1 min 826 W/m² 12,0 °C 14,2 °C 22,5 km/h (4 Bft)
10.09.2024 12:15 24,9 °C 17,8 °C 55 % 70 % 1010,8 hPa 0,0 l/m² 15,2 km/h (3 Bft) SW 225 ° 2 min 404 W/m² 12,3 °C 14,5 °C 19,3 km/h (3 Bft)
10.09.2024 12:17 24,9 °C 17,8 °C 55 % 70 % 1010,8 hPa 0,0 l/m² 15,5 km/h (3 Bft) SW 222 ° 2 min 404 W/m² 12,3 °C 14,4 °C 25,7 km/h (4 Bft)
10.09.2024 12:19 24,9 °C 17,8 °C 55 % 70 % 1010,8 hPa 0,0 l/m² 15,1 km/h (3 Bft) W-SW 253 ° 2 min 306 W/m² 12,3 °C 14,6 °C 24,1 km/h (4 Bft)
10.09.2024 12:20 24,9 °C 17,7 °C 55 % 69 % 1010,8 hPa 0,0 l/m² 19,0 km/h (3 Bft) W 259 ° 1 min 229 W/m² 11,9 °C 13,5 °C 24,1 km/h (4 Bft)
10.09.2024 12:21 24,9 °C 17,7 °C 55 % 69 % 1010,8 hPa 0,0 l/m² 20,0 km/h (4 Bft) SW 234 ° 1 min 169 W/m² 11,9 °C 13,2 °C 27,4 km/h (5 Bft)
10.09.2024 12:22 24,9 °C 17,6 °C 55 % 69 % 1010,9 hPa 0,0 l/m² 19,8 km/h (3 Bft) W-SW 256 ° 1 min 163 W/m² 11,8 °C 13,1 °C 24,1 km/h (4 Bft)
10.09.2024 12:24 24,9 °C 17,3 °C 55 % 70 % 1010,7 hPa 0,0 l/m² 17,6 km/h (3 Bft) SW 229 ° 2 min 163 W/m² 11,8 °C 13,3 °C 24,1 km/h (4 Bft)
10.09.2024 12:26 24,9 °C 17,7 °C 55 % 71 % 1010,7 hPa 0,0 l/m² 13,1 km/h (3 Bft) SW 216 ° 2 min 826 W/m² 12,4 °C 15,0 °C 19,3 km/h (3 Bft)
10.09.2024 12:28 24,9 °C 18,2 °C 55 % 70 % 1010,8 hPa 0,0 l/m² 19,0 km/h (3 Bft) W-SW 247 ° 2 min 816 W/m² 12,6 °C 14,1 °C 24,1 km/h (4 Bft)
10.09.2024 12:30 24,9 °C 18,2 °C 55 % 69 % 1010,7 hPa 0,0 l/m² 17,2 km/h (3 Bft) SW 227 ° 2 min 816 W/m² 12,4 °C 14,5 °C 25,7 km/h (4 Bft)
10.09.2024 12:31 24,9 °C 18,2 °C 55 % 67 % 1010,7 hPa 0,0 l/m² 16,5 km/h (3 Bft) SW 215 ° 1 min 779 W/m² 12,0 °C 14,7 °C 22,5 km/h (4 Bft)
10.09.2024 12:32 24,9 °C 18,2 °C 55 % 67 % 1010,7 hPa 0,0 l/m² 15,9 km/h (3 Bft) SW 225 ° 1 min 788 W/m² 12,0 °C 14,8 °C 20,9 km/h (4 Bft)
10.09.2024 12:33 24,9 °C 18,3 °C 55 % 69 % 1010,7 hPa 0,0 l/m² 13,9 km/h (3 Bft) W-SW 245 ° 1 min 831 W/m² 12,5 °C 15,5 °C 19,3 km/h (3 Bft)
10.09.2024 12:35 24,9 °C 18,5 °C 55 % 69 % 1010,7 hPa 0,0 l/m² 14,1 km/h (3 Bft) W-SW 240 ° 2 min 536 W/m² 12,7 °C 15,7 °C 19,3 km/h (3 Bft)
10.09.2024 12:37 24,9 °C 18,3 °C 55 % 66 % 1010,7 hPa 0,0 l/m² 15,7 km/h (3 Bft) W-SW 241 ° 2 min 218 W/m² 11,8 °C 15,0 °C 22,5 km/h (4 Bft)
10.09.2024 12:39 24,9 °C 18,1 °C 55 % 69 % 1010,7 hPa 0,0 l/m² 19,0 km/h (3 Bft) SW 233 ° 2 min 856 W/m² 12,3 °C 14,0 °C 27,4 km/h (5 Bft)
10.09.2024 12:40 24,9 °C 18,0 °C 55 % 69 % 1010,7 hPa 0,0 l/m² 19,2 km/h (3 Bft) SW 220 ° 1 min 253 W/m² 12,2 °C 13,8 °C 27,4 km/h (5 Bft)
10.09.2024 12:41 24,9 °C 18,0 °C 55 % 68 % 1010,8 hPa 0,0 l/m² 18,4 km/h (3 Bft) W-SW 241 ° 1 min 253 W/m² 12,0 °C 14,0 °C 22,5 km/h (4 Bft)
10.09.2024 12:42 24,9 °C 18,0 °C 55 % 67 % 1010,7 hPa 0,0 l/m² 20,0 km/h (4 Bft) SW 236 ° 1 min 912 W/m² 11,8 °C 13,6 °C 25,7 km/h (4 Bft)
10.09.2024 12:44 24,9 °C 18,3 °C 55 % 68 % 1010,7 hPa 0,0 l/m² 15,8 km/h (3 Bft) SW 233 ° 2 min 939 W/m² 12,3 °C 15,0 °C 24,1 km/h (4 Bft)
10.09.2024 12:45 24,9 °C 18,7 °C 55 % 69 % 1010,7 hPa 0,0 l/m² 19,3 km/h (3 Bft) W-SW 253 ° 1 min 912 W/m² 12,9 °C 14,7 °C 22,5 km/h (4 Bft)
10.09.2024 12:46 24,9 °C 18,8 °C 55 % 66 % 1010,7 hPa 0,0 l/m² 17,9 km/h (3 Bft) SW 223 ° 1 min 879 W/m² 12,3 °C 15,1 °C 29,0 km/h (5 Bft)
10.09.2024 12:47 24,9 °C 18,9 °C 55 % 66 % 1010,7 hPa 0,0 l/m² 19,3 km/h (3 Bft) SW 221 ° 1 min 879 W/m² 12,4 °C 14,9 °C 25,7 km/h (4 Bft)
10.09.2024 12:49 24,9 °C 18,6 °C 55 % 65 % 1010,8 hPa 0,0 l/m² 19,7 km/h (3 Bft) W-SW 248 ° 2 min 232 W/m² 11,9 °C 14,5 °C 24,1 km/h (4 Bft)
10.09.2024 12:50 24,9 °C 18,4 °C 55 % 65 % 1010,7 hPa 0,0 l/m² 18,2 km/h (3 Bft) W 260 ° 1 min 232 W/m² 11,7 °C 14,5 °C 22,5 km/h (4 Bft)
10.09.2024 12:51 24,9 °C 18,3 °C 55 % 65 % 1010,7 hPa 0,0 l/m² 15,1 km/h (3 Bft) SW 221 ° 1 min 232 W/m² 11,6 °C 15,2 °C 19,3 km/h (3 Bft)
10.09.2024 12:52 24,9 °C 18,4 °C 55 % 69 % 1010,7 hPa 0,0 l/m² 15,3 km/h (3 Bft) S-SW 213 ° 1 min 232 W/m² 12,6 °C 15,2 °C 22,5 km/h (4 Bft)
10.09.2024 12:54 25,0 °C 18,5 °C 55 % 68 % 1010,7 hPa 0,0 l/m² 19,0 km/h (3 Bft) W 261 ° 2 min 232 W/m² 12,5 °C 14,5 °C 27,4 km/h (5 Bft)
10.09.2024 12:56 24,9 °C 18,7 °C 55 % 65 % 1010,7 hPa 0,0 l/m² 20,4 km/h (4 Bft) W-SW 250 ° 2 min 232 W/m² 12,0 °C 14,4 °C 27,4 km/h (5 Bft)
10.09.2024 12:58 25,0 °C 18,7 °C 55 % 63 % 1010,7 hPa 0,0 l/m² 13,5 km/h (3 Bft) W 259 ° 2 min 793 W/m² 11,5 °C 16,1 °C 19,3 km/h (3 Bft)
10.09.2024 13:00 25,0 °C 18,7 °C 55 % 66 % 1010,7 hPa 0,0 l/m² 17,2 km/h (3 Bft) SW 233 ° 2 min 793 W/m² 12,2 °C 15,1 °C 27,4 km/h (5 Bft)
10.09.2024 13:01 25,0 °C 18,9 °C 55 % 66 % 1010,6 hPa 0,0 l/m² 15,2 km/h (3 Bft) SW 229 ° 1 min 854 W/m² 12,4 °C 15,9 °C 20,9 km/h (4 Bft)
10.09.2024 13:02 25,0 °C 19,0 °C 55 % 65 % 1010,6 hPa 0,0 l/m² 16,2 km/h (3 Bft) SW 232 ° 1 min 847 W/m² 12,3 °C 15,7 °C 19,3 km/h (3 Bft)
10.09.2024 13:03 25,0 °C 19,1 °C 55 % 66 % 1010,7 hPa 0,0 l/m² 14,3 km/h (3 Bft) S-SW 192 ° 1 min 872 W/m² 12,6 °C 16,3 °C 19,3 km/h (3 Bft)
10.09.2024 13:05 25,0 °C 19,1 °C 55 % 66 % 1010,6 hPa 0,0 l/m² 17,4 km/h (3 Bft) W-SW 242 ° 2 min 872 W/m² 12,6 °C 15,6 °C 25,7 km/h (4 Bft)
10.09.2024 13:07 25,1 °C 19,1 °C 55 % 68 % 1010,7 hPa 0,0 l/m² 18,7 km/h (3 Bft) SW 221 ° 2 min 823 W/m² 13,1 °C 15,3 °C 24,1 km/h (4 Bft)
10.09.2024 13:09 25,1 °C 19,3 °C 55 % 63 % 1010,7 hPa 0,0 l/m² 17,1 km/h (3 Bft) W 259 ° 2 min 838 W/m² 12,1 °C 15,9 °C 24,1 km/h (4 Bft)
10.09.2024 13:10 25,1 °C 19,3 °C 55 % 62 % 1010,7 hPa 0,0 l/m² 14,4 km/h (3 Bft) W-SW 253 ° 1 min 257 W/m² 11,8 °C 16,6 °C 20,9 km/h (4 Bft)
10.09.2024 13:11 25,1 °C 19,2 °C 55 % 63 % 1010,7 hPa 0,0 l/m² 13,0 km/h (3 Bft) W 260 ° 1 min 227 W/m² 12,0 °C 16,8 °C 19,3 km/h (3 Bft)
10.09.2024 13:12 25,1 °C 19,0 °C 55 % 63 % 1010,7 hPa 0,0 l/m² 11,5 km/h (2 Bft) W-SW 250 ° 1 min 227 W/m² 11,8 °C 17,0 °C 17,7 km/h (3 Bft)
10.09.2024 13:14 25,1 °C 18,8 °C 55 % 64 % 1010,7 hPa 0,0 l/m² 15,2 km/h (3 Bft) SW 235 ° 2 min 262 W/m² 11,8 °C 15,7 °C 20,9 km/h (4 Bft)
10.09.2024 13:16 25,1 °C 18,9 °C 55 % 68 % 1010,7 hPa 0,0 l/m² 13,8 km/h (3 Bft) S-SW 195 ° 2 min 690 W/m² 12,9 °C 16,2 °C 20,9 km/h (4 Bft)
10.09.2024 13:18 25,1 °C 19,0 °C 55 % 65 % 1010,6 hPa 0,0 l/m² 19,0 km/h (3 Bft) SW 219 ° 2 min 690 W/m² 12,3 °C 15,1 °C 25,7 km/h (4 Bft)
10.09.2024 13:20 25,1 °C 18,9 °C 55 % 66 % 1010,6 hPa 0,0 l/m² 19,1 km/h (3 Bft) SW 217 ° 2 min 487 W/m² 12,4 °C 15,0 °C 25,7 km/h (4 Bft)
10.09.2024 13:21 25,1 °C 18,8 °C 55 % 65 % 1010,7 hPa 0,0 l/m² 19,6 km/h (3 Bft) SW 221 ° 1 min 487 W/m² 12,1 °C 14,7 °C 25,7 km/h (4 Bft)
10.09.2024 13:22 25,1 °C 18,6 °C 55 % 65 % 1010,6 hPa 0,0 l/m² 17,6 km/h (3 Bft) SW 218 ° 1 min 304 W/m² 11,9 °C 14,9 °C 22,5 km/h (4 Bft)
10.09.2024 13:23 25,1 °C 18,4 °C 55 % 66 % 1010,6 hPa 0,0 l/m² 12,3 km/h (2 Bft) W-SW 250 ° 1 min 260 W/m² 11,9 °C 16,1 °C 17,7 km/h (3 Bft)
10.09.2024 13:25 25,0 °C 18,2 °C 55 % 66 % 1010,7 hPa 0,0 l/m² 17,8 km/h (3 Bft) SW 217 ° 2 min 181 W/m² 11,7 °C 14,4 °C 25,7 km/h (4 Bft)
10.09.2024 13:27 25,0 °C 18,1 °C 55 % 66 % 1010,7 hPa 0,0 l/m² 20,5 km/h (4 Bft) SW 222 ° 2 min 174 W/m² 11,6 °C 13,6 °C 29,0 km/h (5 Bft)
10.09.2024 13:29 24,9 °C 17,8 °C 55 % 65 % 1010,6 hPa 0,0 l/m² 21,0 km/h (4 Bft) W-SW 240 ° 2 min 199 W/m² 11,1 °C 13,2 °C 32,2 km/h (5 Bft)
10.09.2024 13:30 24,9 °C 17,8 °C 55 % 68 % 1010,7 hPa 0,0 l/m² 17,3 km/h (3 Bft) W-SW 238 ° 1 min 248 W/m² 11,8 °C 14,0 °C 22,5 km/h (4 Bft)
10.09.2024 13:31 24,9 °C 17,8 °C 55 % 67 % 1010,7 hPa 0,0 l/m² 21,8 km/h (4 Bft) SW 217 ° 1 min 320 W/m² 11,6 °C 13,0 °C 29,0 km/h (5 Bft)
10.09.2024 13:32 24,9 °C 17,8 °C 55 % 67 % 1010,6 hPa 0,0 l/m² 21,7 km/h (4 Bft) SW 223 ° 1 min 320 W/m² 11,6 °C 13,0 °C 27,4 km/h (5 Bft)
10.09.2024 13:34 24,9 °C 17,9 °C 55 % 67 % 1010,6 hPa 0,0 l/m² 16,1 km/h (3 Bft) SW 216 ° 2 min 380 W/m² 11,7 °C 14,4 °C 22,5 km/h (4 Bft)
10.09.2024 13:36 24,9 °C 18,1 °C 55 % 67 % 1010,6 hPa 0,0 l/m² 17,2 km/h (3 Bft) W-SW 240 ° 2 min 332 W/m² 11,9 °C 14,4 °C 25,7 km/h (4 Bft)
10.09.2024 13:38 24,9 °C 18,2 °C 55 % 66 % 1010,6 hPa 0,0 l/m² 18,7 km/h (3 Bft) SW 234 ° 2 min 408 W/m² 11,7 °C 14,2 °C 25,7 km/h (4 Bft)
10.09.2024 13:40 24,9 °C 18,3 °C 55 % 67 % 1010,6 hPa 0,0 l/m² 18,1 km/h (3 Bft) W-SW 238 ° 2 min 596 W/m² 12,1 °C 14,4 °C 22,5 km/h (4 Bft)
10.09.2024 13:41 24,8 °C 18,6 °C 55 % 66 % 1010,6 hPa 0,0 l/m² 17,7 km/h (3 Bft) S-SW 213 ° 1 min 596 W/m² 12,1 °C 14,9 °C 20,9 km/h (4 Bft)
10.09.2024 13:42 24,9 °C 18,6 °C 55 % 65 % 1010,6 hPa 0,0 l/m² 18,3 km/h (3 Bft) SW 227 ° 1 min 596 W/m² 11,9 °C 14,8 °C 20,9 km/h (4 Bft)
10.09.2024 13:43 24,9 °C 18,7 °C 55 % 65 % 1010,6 hPa 0,0 l/m² 21,0 km/h (4 Bft) SW 218 ° 1 min 489 W/m² 12,0 °C 14,3 °C 25,7 km/h (4 Bft)
10.09.2024 13:45 24,9 °C 18,8 °C 55 % 63 % 1010,6 hPa 0,0 l/m² 20,1 km/h (4 Bft) SW 222 ° 2 min 441 W/m² 11,6 °C 14,6 °C 27,4 km/h (5 Bft)
10.09.2024 13:47 24,9 °C 18,7 °C 55 % 63 % 1010,6 hPa 0,0 l/m² 22,3 km/h (4 Bft) SW 231 ° 2 min 557 W/m² 11,5 °C 14,1 °C 30,6 km/h (5 Bft)
10.09.2024 13:49 24,8 °C 18,7 °C 55 % 66 % 1010,6 hPa 0,0 l/m² 20,4 km/h (4 Bft) SW 225 ° 2 min 536 W/m² 12,2 °C 14,4 °C 30,6 km/h (5 Bft)
10.09.2024 13:50 24,9 °C 18,7 °C 55 % 64 % 1010,6 hPa 0,0 l/m² 25,7 km/h (4 Bft) SW 234 ° 1 min 439 W/m² 11,7 °C 13,5 °C 30,6 km/h (5 Bft)
10.09.2024 13:51 24,8 °C 18,7 °C 55 % 65 % 1010,6 hPa 0,0 l/m² 21,5 km/h (4 Bft) SW 216 ° 1 min 427 W/m² 12,0 °C 14,2 °C 27,4 km/h (5 Bft)
10.09.2024 13:52 24,9 °C 18,6 °C 55 % 65 % 1010,6 hPa 0,0 l/m² 23,9 km/h (4 Bft) SW 236 ° 1 min 422 W/m² 11,9 °C 13,7 °C 29,0 km/h (5 Bft)
10.09.2024 13:54 24,8 °C 18,6 °C 55 % 65 % 1010,6 hPa 0,0 l/m² 16,2 km/h (3 Bft) W-SW 246 ° 2 min 404 W/m² 11,9 °C 15,2 °C 22,5 km/h (4 Bft)
10.09.2024 13:56 24,8 °C 18,6 °C 55 % 66 % 1010,6 hPa 0,0 l/m² 16,6 km/h (3 Bft) S-SW 211 ° 2 min 475 W/m² 12,1 °C 15,2 °C 22,5 km/h (4 Bft)
10.09.2024 13:58 24,8 °C 18,8 °C 55 % 65 % 1010,6 hPa 0,0 l/m² 17,5 km/h (3 Bft) SW 228 ° 2 min 475 W/m² 12,1 °C 15,2 °C 29,0 km/h (5 Bft)
10.09.2024 14:00 24,8 °C 18,9 °C 55 % 64 % 1010,6 hPa 0,0 l/m² 17,3 km/h (3 Bft) S-SW 206 ° 2 min 341 W/m² 11,9 °C 15,4 °C 25,7 km/h (4 Bft)
10.09.2024 14:01 24,8 °C 18,8 °C 55 % 63 % 1010,5 hPa 0,0 l/m² 20,0 km/h (4 Bft) SW 218 ° 1 min 343 W/m² 11,6 °C 14,7 °C 25,7 km/h (4 Bft)
10.09.2024 14:02 24,8 °C 18,7 °C 55 % 63 % 1010,6 hPa 0,0 l/m² 16,5 km/h (3 Bft) W-SW 245 ° 1 min 341 W/m² 11,5 °C 15,3 °C 20,9 km/h (4 Bft)
10.09.2024 14:03 24,8 °C 18,7 °C 55 % 64 % 1010,6 hPa 0,0 l/m² 19,1 km/h (3 Bft) SW 236 ° 1 min 346 W/m² 11,7 °C 14,7 °C 25,7 km/h (4 Bft)
10.09.2024 14:05 24,8 °C 18,6 °C 55 % 64 % 1010,6 hPa 0,0 l/m² 18,9 km/h (3 Bft) SW 224 ° 2 min 450 W/m² 11,7 °C 14,6 °C 27,4 km/h (5 Bft)
10.09.2024 14:07 24,8 °C 18,7 °C 55 % 65 % 1010,7 hPa 0,0 l/m² 15,8 km/h (3 Bft) W-SW 251 ° 2 min 476 W/m² 12,0 °C 15,5 °C 20,9 km/h (4 Bft)
10.09.2024 14:09 24,8 °C 18,8 °C 55 % 64 % 1010,6 hPa 0,0 l/m² 17,1 km/h (3 Bft) SW 225 ° 2 min 531 W/m² 11,8 °C 15,3 °C 24,1 km/h (4 Bft)
10.09.2024 14:10 24,8 °C 18,8 °C 55 % 65 % 1010,6 hPa 0,0 l/m² 18,9 km/h (3 Bft) W-SW 242 ° 1 min 531 W/m² 12,1 °C 14,9 °C 22,5 km/h (4 Bft)
10.09.2024 14:11 24,8 °C 18,8 °C 55 % 64 % 1010,6 hPa 0,0 l/m² 13,3 km/h (3 Bft) SW 226 ° 1 min 359 W/m² 11,8 °C 16,3 °C 19,3 km/h (3 Bft)
10.09.2024 14:12 24,8 °C 18,8 °C 55 % 63 % 1010,6 hPa 0,0 l/m² 13,9 km/h (3 Bft) S-SW 212 ° 1 min 371 W/m² 11,6 °C 16,1 °C 17,7 km/h (3 Bft)
10.09.2024 14:14 24,8 °C 18,7 °C 55 % 66 % 1010,5 hPa 0,0 l/m² 19,4 km/h (3 Bft) SW 219 ° 2 min 374 W/m² 12,2 °C 14,6 °C 29,0 km/h (5 Bft)
10.09.2024 14:16 24,8 °C 18,8 °C 55 % 67 % 1010,5 hPa 0,0 l/m² 17,1 km/h (3 Bft) W-SW 244 ° 2 min 390 W/m² 12,5 °C 15,3 °C 25,7 km/h (4 Bft)
10.09.2024 14:18 24,8 °C 18,8 °C 55 % 65 % 1010,6 hPa 0,0 l/m² 15,2 km/h (3 Bft) SW 236 ° 2 min 308 W/m² 12,1 °C 15,7 °C 20,9 km/h (4 Bft)
10.09.2024 14:20 24,8 °C 18,7 °C 55 % 62 % 1010,5 hPa 0,0 l/m² 19,6 km/h (3 Bft) W-SW 254 ° 2 min 292 W/m² 11,3 °C 14,6 °C 25,7 km/h (4 Bft)
10.09.2024 14:21 24,8 °C 18,6 °C 55 % 65 % 1010,5 hPa 0,0 l/m² 20,2 km/h (4 Bft) SW 235 ° 1 min 287 W/m² 11,9 °C 14,4 °C 29,0 km/h (5 Bft)
10.09.2024 14:22 24,8 °C 18,6 °C 55 % 66 % 1010,6 hPa 0,0 l/m² 13,3 km/h (3 Bft) S-SW 212 ° 1 min 294 W/m² 12,1 °C 16,0 °C 17,7 km/h (3 Bft)
10.09.2024 14:23 24,8 °C 18,7 °C 55 % 68 % 1010,6 hPa 0,0 l/m² 11,8 km/h (2 Bft) S-SW 212 ° 1 min 299 W/m² 12,7 °C 16,6 °C 17,7 km/h (3 Bft)
10.09.2024 14:25 24,7 °C 18,6 °C 55 % 66 % 1010,6 hPa 0,0 l/m² 15,9 km/h (3 Bft) SW 219 ° 2 min 323 W/m² 12,1 °C 15,3 °C 22,5 km/h (4 Bft)
10.09.2024 14:27 24,8 °C 18,6 °C 55 % 67 % 1010,6 hPa 0,0 l/m² 14,2 km/h (3 Bft) W-SW 237 ° 2 min 295 W/m² 12,3 °C 15,8 °C 22,5 km/h (4 Bft)
10.09.2024 14:29 24,7 °C 18,6 °C 55 % 68 % 1010,5 hPa 0,0 l/m² 13,8 km/h (3 Bft) SW 231 ° 2 min 309 W/m² 12,6 °C 15,9 °C 19,3 km/h (3 Bft)
10.09.2024 14:30 24,7 °C 18,6 °C 55 % 66 % 1010,5 hPa 0,0 l/m² 15,7 km/h (3 Bft) SW 218 ° 1 min 366 W/m² 12,1 °C 15,4 °C 19,3 km/h (3 Bft)
10.09.2024 14:31 24,7 °C 18,6 °C 55 % 68 % 1010,5 hPa 0,0 l/m² 14,2 km/h (3 Bft) S-SW 209 ° 1 min 345 W/m² 12,6 °C 15,8 °C 17,7 km/h (3 Bft)
10.09.2024 14:32 24,7 °C 18,6 °C 55 % 68 % 1010,5 hPa 0,0 l/m² 16,6 km/h (3 Bft) S-SW 202 ° 1 min 316 W/m² 12,6 °C 15,2 °C 19,3 km/h (3 Bft)
10.09.2024 14:34 24,7 °C 18,6 °C 55 % 68 % 1010,5 hPa 0,0 l/m² 15,0 km/h (3 Bft) S-SW 199 ° 2 min 334 W/m² 12,6 °C 15,6 °C 20,9 km/h (4 Bft)
10.09.2024 14:36 24,7 °C 18,6 °C 55 % 68 % 1010,5 hPa 0,0 l/m² 16,0 km/h (3 Bft) S-SW 213 ° 2 min 283 W/m² 12,6 °C 15,3 °C 22,5 km/h (4 Bft)
10.09.2024 14:38 24,7 °C 18,4 °C 55 % 68 % 1010,5 hPa 0,0 l/m² 15,7 km/h (3 Bft) SW 219 ° 2 min 262 W/m² 12,4 °C 15,1 °C 20,9 km/h (4 Bft)
10.09.2024 14:40 24,7 °C 18,3 °C 55 % 67 % 1010,5 hPa 0,0 l/m² 20,8 km/h (4 Bft) S-SW 213 ° 2 min 295 W/m² 12,1 °C 13,8 °C 25,7 km/h (4 Bft)
10.09.2024 14:41 24,7 °C 18,2 °C 55 % 68 % 1010,5 hPa 0,0 l/m² 19,0 km/h (3 Bft) SW 223 ° 1 min 339 W/m² 12,2 °C 14,1 °C 25,7 km/h (4 Bft)
10.09.2024 14:42 24,7 °C 18,2 °C 55 % 68 % 1010,5 hPa 0,0 l/m² 17,0 km/h (3 Bft) S-SW 208 ° 1 min 338 W/m² 12,2 °C 14,6 °C 20,9 km/h (4 Bft)
10.09.2024 14:43 24,7 °C 18,2 °C 55 % 69 % 1010,5 hPa 0,0 l/m² 17,4 km/h (3 Bft) S-SW 211 ° 1 min 343 W/m² 12,4 °C 14,5 °C 22,5 km/h (4 Bft)
10.09.2024 14:45 24,7 °C 18,1 °C 55 % 68 % 1010,4 hPa 0,0 l/m² 16,0 km/h (3 Bft) S-SW 207 ° 2 min 424 W/m² 12,1 °C 14,7 °C 20,9 km/h (4 Bft)
10.09.2024 14:47 24,7 °C 18,2 °C 55 % 68 % 1010,4 hPa 0,0 l/m² 14,6 km/h (3 Bft) S-SW 203 ° 2 min 497 W/m² 12,2 °C 15,2 °C 20,9 km/h (4 Bft)
10.09.2024 14:49 24,7 °C 18,3 °C 55 % 68 % 1010,5 hPa 0,0 l/m² 17,8 km/h (3 Bft) SW 216 ° 2 min 309 W/m² 12,3 °C 14,5 °C 22,5 km/h (4 Bft)
10.09.2024 14:50 24,7 °C 18,2 °C 55 % 67 % 1010,5 hPa 0,0 l/m² 15,0 km/h (3 Bft) SW 215 ° 1 min 306 W/m² 12,0 °C 15,1 °C 19,3 km/h (3 Bft)
10.09.2024 14:51 24,7 °C 18,2 °C 55 % 68 % 1010,5 hPa 0,0 l/m² 14,3 km/h (3 Bft) SW 218 ° 1 min 369 W/m² 12,2 °C 15,3 °C 22,5 km/h (4 Bft)
10.09.2024 14:52 24,7 °C 18,3 °C 55 % 68 % 1010,4 hPa 0,0 l/m² 12,2 km/h (2 Bft) SW 216 ° 1 min 359 W/m² 12,3 °C 16,0 °C 19,3 km/h (3 Bft)
10.09.2024 14:54 24,7 °C 18,3 °C 55 % 68 % 1010,4 hPa 0,0 l/m² 12,2 km/h (2 Bft) W-SW 238 ° 2 min 227 W/m² 12,3 °C 16,0 °C 19,3 km/h (3 Bft)
10.09.2024 14:56 24,7 °C 18,2 °C 55 % 67 % 1010,3 hPa 0,0 l/m² 15,2 km/h (3 Bft) SW 214 ° 2 min 237 W/m² 12,0 °C 15,0 °C 22,5 km/h (4 Bft)
10.09.2024 14:58 24,7 °C 18,1 °C 55 % 67 % 1010,2 hPa 0,0 l/m² 14,9 km/h (3 Bft) S-SW 211 ° 2 min 278 W/m² 11,9 °C 15,0 °C 20,9 km/h (4 Bft)
10.09.2024 15:00 24,7 °C 18,1 °C 55 % 67 % 1010,3 hPa 0,0 l/m² 14,3 km/h (3 Bft) SW 217 ° 2 min 309 W/m² 11,9 °C 15,1 °C 17,7 km/h (3 Bft)
10.09.2024 15:01 24,7 °C 18,1 °C 55 % 67 % 1010,3 hPa 0,0 l/m² 16,9 km/h (3 Bft) S-SW 197 ° 1 min 316 W/m² 11,9 °C 14,5 °C 20,9 km/h (4 Bft)
10.09.2024 15:02 24,7 °C 18,1 °C 55 % 68 % 1010,4 hPa 0,0 l/m² 13,7 km/h (3 Bft) SW 226 ° 1 min 338 W/m² 12,1 °C 15,3 °C 17,7 km/h (3 Bft)
10.09.2024 15:03 24,7 °C 18,1 °C 55 % 68 % 1010,3 hPa 0,0 l/m² 12,7 km/h (3 Bft) SW 217 ° 1 min 295 W/m² 12,1 °C 15,6 °C 17,7 km/h (3 Bft)
10.09.2024 15:05 24,7 °C 18,1 °C 55 % 68 % 1010,3 hPa 0,0 l/m² 15,3 km/h (3 Bft) S-SW 198 ° 2 min 227 W/m² 12,1 °C 14,9 °C 22,5 km/h (4 Bft)
10.09.2024 15:07 24,7 °C 18,1 °C 55 % 68 % 1010,3 hPa 0,0 l/m² 15,4 km/h (3 Bft) S-SW 194 ° 2 min 297 W/m² 12,1 °C 14,8 °C 19,3 km/h (3 Bft)
10.09.2024 15:09 24,7 °C 18,1 °C 55 % 68 % 1010,2 hPa 0,0 l/m² 13,0 km/h (3 Bft) S-SW 199 ° 2 min 366 W/m² 12,1 °C 15,5 °C 16,1 km/h (3 Bft)
10.09.2024 15:10 24,7 °C 18,1 °C 55 % 68 % 1010,2 hPa 0,0 l/m² 14,4 km/h (3 Bft) S-SW 196 ° 1 min 230 W/m² 12,1 °C 15,1 °C 17,7 km/h (3 Bft)
10.09.2024 15:11 24,7 °C 18,1 °C 55 % 69 % 1010,2 hPa 0,0 l/m² 12,6 km/h (3 Bft) SW 236 ° 1 min 216 W/m² 12,3 °C 15,6 °C 14,5 km/h (3 Bft)
10.09.2024 15:12 24,7 °C 18,1 °C 55 % 68 % 1010,3 hPa 0,0 l/m² 13,4 km/h (3 Bft) SW 221 ° 1 min 209 W/m² 12,1 °C 15,4 °C 16,1 km/h (3 Bft)
10.09.2024 15:14 24,6 °C 18,1 °C 55 % 68 % 1010,2 hPa 0,0 l/m² 13,0 km/h (3 Bft) S-SW 200 ° 2 min 267 W/m² 12,1 °C 15,5 °C 19,3 km/h (3 Bft)
10.09.2024 15:16 24,7 °C 18,1 °C 56 % 69 % 1010,2 hPa 0,0 l/m² 10,3 km/h (2 Bft) SW 224 ° 2 min 281 W/m² 12,3 °C 16,4 °C 14,5 km/h (3 Bft)
10.09.2024 15:18 24,6 °C 18,1 °C 56 % 69 % 1010,1 hPa 0,0 l/m² 10,1 km/h (2 Bft) S-SW 204 ° 2 min 253 W/m² 12,3 °C 16,5 °C 12,9 km/h (3 Bft)
10.09.2024 15:20 24,6 °C 18,3 °C 56 % 68 % 1010,2 hPa 0,0 l/m² 15,4 km/h (3 Bft) S-SW 198 ° 2 min 269 W/m² 12,3 °C 15,1 °C 22,5 km/h (4 Bft)
10.09.2024 15:21 24,6 °C 18,3 °C 56 % 69 % 1010,2 hPa 0,0 l/m² 14,1 km/h (3 Bft) SW 227 ° 1 min 271 W/m² 12,5 °C 15,4 °C 24,1 km/h (4 Bft)
10.09.2024 15:22 24,6 °C 18,4 °C 56 % 68 % 1010,1 hPa 0,0 l/m² 20,5 km/h (4 Bft) SW 229 ° 1 min 220 W/m² 12,4 °C 14,0 °C 25,7 km/h (4 Bft)
10.09.2024 15:23 24,6 °C 18,4 °C 56 % 67 % 1010,1 hPa 0,0 l/m² 16,7 km/h (3 Bft) W-SW 254 ° 1 min 211 W/m² 12,2 °C 14,9 °C 24,1 km/h (4 Bft)
10.09.2024 15:25 24,6 °C 18,6 °C 56 % 67 % 1010,2 hPa 0,0 l/m² 14,5 km/h (3 Bft) S-SW 212 ° 2 min 220 W/m² 12,3 °C 15,7 °C 22,5 km/h (4 Bft)
10.09.2024 15:27 24,6 °C 18,6 °C 56 % 66 % 1010,2 hPa 0,0 l/m² 21,9 km/h (4 Bft) SW 217 ° 2 min 179 W/m² 12,1 °C 14,0 °C 30,6 km/h (5 Bft)
10.09.2024 15:29 24,6 °C 18,6 °C 56 % 67 % 1010,2 hPa 0,0 l/m² 19,5 km/h (3 Bft) SW 224 ° 2 min 185 W/m² 12,3 °C 14,5 °C 25,7 km/h (4 Bft)
10.09.2024 15:30 24,6 °C 18,6 °C 56 % 66 % 1010,2 hPa 0,0 l/m² 22,3 km/h (4 Bft) S-SW 194 ° 1 min 204 W/m² 12,1 °C 14,0 °C 32,2 km/h (5 Bft)
10.09.2024 15:31 24,6 °C 18,6 °C 56 % 65 % 1010,1 hPa 0,0 l/m² 20,5 km/h (4 Bft) S-SW 192 ° 1 min 236 W/m² 11,9 °C 14,3 °C 25,7 km/h (4 Bft)
10.09.2024 15:32 24,6 °C 18,5 °C 56 % 66 % 1010,1 hPa 0,0 l/m² 21,9 km/h (4 Bft) S-SW 211 ° 1 min 257 W/m² 12,0 °C 13,9 °C 29,0 km/h (5 Bft)
10.09.2024 15:34 24,6 °C 18,5 °C 56 % 65 % 1010,1 hPa 0,0 l/m² 19,7 km/h (3 Bft) SW 225 ° 2 min 279 W/m² 11,8 °C 14,3 °C 24,1 km/h (4 Bft)
10.09.2024 15:36 24,6 °C 18,6 °C 56 % 67 % 1010,1 hPa 0,0 l/m² 15,5 km/h (3 Bft) SW 230 ° 2 min 279 W/m² 12,3 °C 15,4 °C 20,9 km/h (4 Bft)
10.09.2024 15:38 24,6 °C 19,0 °C 56 % 65 % 1009,9 hPa 0,0 l/m² 18,9 km/h (3 Bft) W-SW 241 ° 2 min 643 W/m² 12,3 °C 15,1 °C 29,0 km/h (5 Bft)
10.09.2024 15:40 24,6 °C 19,3 °C 56 % 61 % 1009,9 hPa 0,0 l/m² 21,2 km/h (4 Bft) SW 233 ° 2 min 499 W/m² 11,6 °C 15,1 °C 29,0 km/h (5 Bft)
10.09.2024 15:41 24,6 °C 19,4 °C 56 % 61 % 1009,9 hPa 0,0 l/m² 23,9 km/h (4 Bft) SW 218 ° 1 min 499 W/m² 11,7 °C 14,7 °C 33,8 km/h (5 Bft)
10.09.2024 15:42 24,6 °C 19,3 °C 56 % 61 % 1009,9 hPa 0,0 l/m² 18,2 km/h (3 Bft) W-SW 244 ° 1 min 155 W/m² 11,6 °C 15,7 °C 27,4 km/h (5 Bft)
10.09.2024 15:43 24,6 °C 19,2 °C 56 % 62 % 1009,9 hPa 0,0 l/m² 22,9 km/h (4 Bft) W-SW 240 ° 1 min 155 W/m² 11,7 °C 14,6 °C 27,4 km/h (5 Bft)
10.09.2024 15:45 24,6 °C 18,9 °C 56 % 62 % 1010,0 hPa 0,0 l/m² 24,3 km/h (4 Bft) SW 223 ° 2 min 156 W/m² 11,5 °C 14,0 °C 30,6 km/h (5 Bft)
10.09.2024 15:47 24,6 °C 18,7 °C 56 % 62 % 1009,9 hPa 0,0 l/m² 20,8 km/h (4 Bft) W-SW 257 ° 2 min 123 W/m² 11,3 °C 14,4 °C 27,4 km/h (5 Bft)
10.09.2024 15:48 24,6 °C 18,6 °C 56 % 62 % 1009,9 hPa 0,0 l/m² 19,5 km/h (3 Bft) W-SW 241 ° 1 min 118 W/m² 11,2 °C 14,5 °C 24,1 km/h (4 Bft)
10.09.2024 15:50 24,6 °C 18,4 °C 56 % 63 % 1009,9 hPa 0,0 l/m² 21,5 km/h (4 Bft) W-SW 238 ° 2 min 118 W/m² 11,2 °C 13,8 °C 29,0 km/h (5 Bft)
10.09.2024 15:51 24,5 °C 18,3 °C 56 % 63 % 1009,9 hPa 0,0 l/m² 18,4 km/h (3 Bft) SW 232 ° 1 min 125 W/m² 11,1 °C 14,4 °C 25,7 km/h (4 Bft)
10.09.2024 15:52 24,6 °C 18,4 °C 56 % 64 % 1009,8 hPa 0,0 l/m² 14,6 km/h (3 Bft) SW 225 ° 1 min 130 W/m² 11,5 °C 15,4 °C 19,3 km/h (3 Bft)
10.09.2024 15:53 24,6 °C 18,3 °C 56 % 65 % 1009,8 hPa 0,0 l/m² 15,7 km/h (3 Bft) SW 219 ° 1 min 132 W/m² 11,6 °C 15,0 °C 22,5 km/h (4 Bft)
10.09.2024 15:55 24,5 °C 18,3 °C 56 % 64 % 1009,8 hPa 0,0 l/m² 16,2 km/h (3 Bft) W-SW 240 ° 2 min 139 W/m² 11,4 °C 14,9 °C 27,4 km/h (5 Bft)
10.09.2024 15:57 24,5 °C 18,3 °C 56 % 64 % 1009,8 hPa 0,0 l/m² 19,6 km/h (3 Bft) SW 236 ° 2 min 156 W/m² 11,4 °C 14,1 °C 27,4 km/h (5 Bft)
10.09.2024 15:59 24,4 °C 18,3 °C 56 % 63 % 1009,8 hPa 0,0 l/m² 21,7 km/h (4 Bft) SW 219 ° 2 min 178 W/m² 11,1 °C 13,7 °C 27,4 km/h (5 Bft)
10.09.2024 16:00 24,4 °C 18,4 °C 56 % 63 % 1009,9 hPa 0,0 l/m² 18,5 km/h (3 Bft) SW 230 ° 1 min 190 W/m² 11,2 °C 14,5 °C 24,1 km/h (4 Bft)
10.09.2024 16:01 24,5 °C 18,4 °C 56 % 65 % 1009,9 hPa 0,0 l/m² 20,0 km/h (4 Bft) SW 219 ° 1 min 207 W/m² 11,7 °C 14,1 °C 25,7 km/h (4 Bft)
10.09.2024 16:02 24,4 °C 18,4 °C 56 % 65 % 1009,8 hPa 0,0 l/m² 18,7 km/h (3 Bft) SW 230 ° 1 min 213 W/m² 11,7 °C 14,4 °C 24,1 km/h (4 Bft)
10.09.2024 16:03 24,4 °C 18,4 °C 56 % 65 % 1009,9 hPa 0,0 l/m² 23,3 km/h (4 Bft) SW 221 ° 1 min 207 W/m² 11,7 °C 13,5 °C 29,0 km/h (5 Bft)
10.09.2024 16:05 24,5 °C 18,4 °C 56 % 66 % 1009,9 hPa 0,0 l/m² 20,1 km/h (4 Bft) W-SW 241 ° 2 min 190 W/m² 11,9 °C 14,1 °C 25,7 km/h (4 Bft)
10.09.2024 16:06 24,4 °C 18,4 °C 56 % 64 % 1009,9 hPa 0,0 l/m² 19,5 km/h (3 Bft) SW 221 ° 1 min 197 W/m² 11,5 °C 14,2 °C 25,7 km/h (4 Bft)
10.09.2024 16:07 24,4 °C 18,5 °C 56 % 65 % 1009,9 hPa 0,0 l/m² 22,5 km/h (4 Bft) SW 228 ° 1 min 211 W/m² 11,8 °C 13,8 °C 27,4 km/h (5 Bft)
10.09.2024 16:09 24,4 °C 18,6 °C 56 % 67 % 1009,9 hPa 0,0 l/m² 15,9 km/h (3 Bft) S-SW 213 ° 2 min 213 W/m² 12,3 °C 15,3 °C 24,1 km/h (4 Bft)
10.09.2024 16:10 24,4 °C 18,6 °C 56 % 66 % 1009,8 hPa 0,0 l/m² 19,3 km/h (3 Bft) SW 217 ° 1 min 193 W/m² 12,1 °C 14,5 °C 27,4 km/h (5 Bft)
10.09.2024 16:11 24,4 °C 18,6 °C 56 % 65 % 1009,9 hPa 0,0 l/m² 21,1 km/h (4 Bft) SW 229 ° 1 min 183 W/m² 11,9 °C 14,2 °C 24,1 km/h (4 Bft)
10.09.2024 16:12 24,4 °C 18,6 °C 56 % 64 % 1009,8 hPa 0,0 l/m² 18,5 km/h (3 Bft) SW 215 ° 1 min 188 W/m² 11,7 °C 14,7 °C 22,5 km/h (4 Bft)
10.09.2024 16:14 24,4 °C 18,6 °C 56 % 64 % 1009,9 hPa 0,0 l/m² 16,0 km/h (3 Bft) SW 225 ° 2 min 214 W/m² 11,7 °C 15,3 °C 24,1 km/h (4 Bft)
10.09.2024 16:16 24,4 °C 18,7 °C 56 % 65 % 1009,9 hPa 0,0 l/m² 16,6 km/h (3 Bft) SW 221 ° 2 min 253 W/m² 12,0 °C 15,3 °C 22,5 km/h (4 Bft)
10.09.2024 16:18 24,4 °C 18,8 °C 56 % 65 % 1009,8 hPa 0,0 l/m² 21,3 km/h (4 Bft) SW 221 ° 2 min 628 W/m² 12,1 °C 14,4 °C 27,4 km/h (5 Bft)
10.09.2024 16:20 24,4 °C 19,2 °C 56 % 65 % 1009,8 hPa 0,0 l/m² 16,9 km/h (3 Bft) W-SW 255 ° 2 min 580 W/m² 12,5 °C 15,8 °C 22,5 km/h (4 Bft)
10.09.2024 16:21 24,4 °C 19,3 °C 56 % 63 % 1009,8 hPa 0,0 l/m² 17,5 km/h (3 Bft) SW 234 ° 1 min 580 W/m² 12,1 °C 15,8 °C 22,5 km/h (4 Bft)
10.09.2024 16:22 24,4 °C 19,3 °C 56 % 62 % 1009,9 hPa 0,0 l/m² 20,3 km/h (4 Bft) W-SW 247 ° 1 min 462 W/m² 11,8 °C 15,2 °C 27,4 km/h (5 Bft)
10.09.2024 16:23 24,4 °C 19,3 °C 56 % 63 % 1009,9 hPa 0,0 l/m² 19,0 km/h (3 Bft) SW 216 ° 1 min 512 W/m² 12,1 °C 15,5 °C 24,1 km/h (4 Bft)
10.09.2024 16:25 24,4 °C 19,6 °C 56 % 64 % 1009,8 hPa 0,0 l/m² 13,7 km/h (3 Bft) SW 224 ° 2 min 506 W/m² 12,6 °C 17,1 °C 19,3 km/h (3 Bft)
10.09.2024 16:27 24,4 °C 19,7 °C 56 % 62 % 1009,8 hPa 0,0 l/m² 20,9 km/h (4 Bft) SW 217 ° 2 min 483 W/m² 12,2 °C 15,7 °C 29,0 km/h (5 Bft)
10.09.2024 16:29 24,5 °C 19,6 °C 56 % 63 % 1009,8 hPa 0,0 l/m² 17,7 km/h (3 Bft) SW 217 ° 2 min 422 W/m² 12,4 °C 16,1 °C 25,7 km/h (4 Bft)
10.09.2024 16:30 24,4 °C 19,5 °C 56 % 63 % 1009,7 hPa 0,0 l/m² 18,9 km/h (3 Bft) W-SW 241 ° 1 min 116 W/m² 12,3 °C 15,8 °C 25,7 km/h (4 Bft)
10.09.2024 16:31 24,4 °C 19,3 °C 56 % 62 % 1009,7 hPa 0,0 l/m² 19,2 km/h (3 Bft) W-SW 248 ° 1 min 121 W/m² 11,8 °C 15,5 °C 24,1 km/h (4 Bft)
10.09.2024 16:32 24,4 °C 19,2 °C 56 % 63 % 1009,7 hPa 0,0 l/m² 14,4 km/h (3 Bft) SW 221 ° 1 min 141 W/m² 12,0 °C 16,4 °C 19,3 km/h (3 Bft)
10.09.2024 16:34 24,5 °C 19,1 °C 56 % 64 % 1009,7 hPa 0,0 l/m² 18,4 km/h (3 Bft) SW 232 ° 2 min 552 W/m² 12,1 °C 15,4 °C 22,5 km/h (4 Bft)
10.09.2024 16:36 24,5 °C 19,2 °C 56 % 65 % 1009,6 hPa 0,0 l/m² 13,9 km/h (3 Bft) S-SW 196 ° 2 min 524 W/m² 12,5 °C 16,6 °C 19,3 km/h (3 Bft)
10.09.2024 16:38 24,4 °C 19,1 °C 56 % 64 % 1009,7 hPa 0,0 l/m² 16,9 km/h (3 Bft) S-SW 199 ° 2 min 524 W/m² 12,1 °C 15,7 °C 20,9 km/h (4 Bft)
10.09.2024 16:40 24,4 °C 19,0 °C 56 % 64 % 1009,6 hPa 0,0 l/m² 19,7 km/h (3 Bft) S-SW 209 ° 2 min 418 W/m² 12,0 °C 15,0 °C 25,7 km/h (4 Bft)
10.09.2024 16:41 24,4 °C 19,0 °C 56 % 65 % 1009,6 hPa 0,0 l/m² 19,9 km/h (4 Bft) S-SW 202 ° 1 min 420 W/m² 12,3 °C 14,9 °C 25,7 km/h (4 Bft)
10.09.2024 16:42 24,5 °C 19,0 °C 56 % 64 % 1009,5 hPa 0,0 l/m² 20,5 km/h (4 Bft) S-SW 206 ° 1 min 420 W/m² 12,0 °C 14,8 °C 24,1 km/h (4 Bft)
10.09.2024 16:43 24,5 °C 19,0 °C 56 % 64 % 1009,5 hPa 0,0 l/m² 20,3 km/h (4 Bft) S 191 ° 1 min 420 W/m² 12,0 °C 14,9 °C 24,1 km/h (4 Bft)
10.09.2024 16:45 24,5 °C 19,0 °C 56 % 65 % 1009,6 hPa 0,0 l/m² 18,9 km/h (3 Bft) S-SW 198 ° 2 min 422 W/m² 12,3 °C 15,1 °C 27,4 km/h (5 Bft)
10.09.2024 16:47 24,5 °C 18,9 °C 56 % 65 % 1009,7 hPa 0,0 l/m² 22,3 km/h (4 Bft) SW 224 ° 2 min 98 W/m² 12,2 °C 14,3 °C 30,6 km/h (5 Bft)
10.09.2024 16:49 24,4 °C 18,7 °C 56 % 64 % 1009,6 hPa 0,0 l/m² 18,5 km/h (3 Bft) SW 214 ° 2 min 132 W/m² 11,7 °C 14,8 °C 24,1 km/h (4 Bft)
10.09.2024 16:50 24,5 °C 18,7 °C 56 % 66 % 1009,6 hPa 0,0 l/m² 13,2 km/h (3 Bft) SW 215 ° 1 min 443 W/m² 12,2 °C 16,2 °C 16,1 km/h (3 Bft)
10.09.2024 16:51 24,5 °C 18,8 °C 56 % 66 % 1009,7 hPa 0,0 l/m² 12,4 km/h (2 Bft) S-SW 204 ° 1 min 429 W/m² 12,3 °C 16,5 °C 17,7 km/h (3 Bft)
10.09.2024 16:52 24,5 °C 18,9 °C 56 % 67 % 1009,7 hPa 0,0 l/m² 19,2 km/h (3 Bft) S 175 ° 1 min 429 W/m² 12,6 °C 14,9 °C 25,7 km/h (4 Bft)
10.09.2024 16:54 24,4 °C 19,1 °C 56 % 65 % 1009,7 hPa 0,0 l/m² 18,8 km/h (3 Bft) SW 218 ° 2 min 415 W/m² 12,4 °C 15,3 °C 30,6 km/h (5 Bft)
10.09.2024 16:56 24,5 °C 19,2 °C 56 % 66 % 1009,7 hPa 0,0 l/m² 20,6 km/h (4 Bft) W-SW 252 ° 2 min 410 W/m² 12,7 °C 15,1 °C 32,2 km/h (5 Bft)
10.09.2024 16:57 24,4 °C 19,3 °C 56 % 65 % 1009,5 hPa 0,0 l/m² 19,1 km/h (3 Bft) SW 216 ° 1 min 410 W/m² 12,6 °C 15,5 °C 24,1 km/h (4 Bft)
10.09.2024 16:58 24,4 °C 19,3 °C 56 % 64 % 1009,7 hPa 0,0 l/m² 17,1 km/h (3 Bft) W-SW 243 ° 1 min 116 W/m² 12,3 °C 15,9 °C 20,9 km/h (4 Bft)
10.09.2024 17:00 24,5 °C 19,1 °C 55 % 64 % 1009,6 hPa 0,0 l/m² 17,9 km/h (3 Bft) SW 224 ° 2 min 109 W/m² 12,1 °C 15,5 °C 25,7 km/h (4 Bft)
10.09.2024 17:01 24,4 °C 19,1 °C 55 % 65 % 1009,6 hPa 0,0 l/m² 17,6 km/h (3 Bft) SW 227 ° 1 min 373 W/m² 12,4 °C 15,5 °C 24,1 km/h (4 Bft)
10.09.2024 17:02 24,4 °C 19,1 °C 55 % 64 % 1009,6 hPa 0,0 l/m² 19,9 km/h (4 Bft) SW 219 ° 1 min 367 W/m² 12,1 °C 15,1 °C 25,7 km/h (4 Bft)
10.09.2024 17:03 24,4 °C 19,1 °C 55 % 65 % 1009,5 hPa 0,0 l/m² 19,7 km/h (3 Bft) SW 219 ° 1 min 371 W/m² 12,4 °C 15,1 °C 25,7 km/h (4 Bft)
10.09.2024 17:05 24,4 °C 19,1 °C 55 % 65 % 1009,6 hPa 0,0 l/m² 19,0 km/h (3 Bft) SW 224 ° 2 min 369 W/m² 12,4 °C 15,2 °C 22,5 km/h (4 Bft)
10.09.2024 17:07 24,4 °C 19,1 °C 55 % 63 % 1009,5 hPa 0,0 l/m² 25,7 km/h (4 Bft) S-SW 205 ° 2 min 362 W/m² 11,9 °C 14,1 °C 37,0 km/h (5 Bft)
10.09.2024 17:09 24,4 °C 19,0 °C 55 % 64 % 1009,5 hPa 0,0 l/m² 19,0 km/h (3 Bft) W-SW 237 ° 2 min 105 W/m² 12,0 °C 15,1 °C 24,1 km/h (4 Bft)
10.09.2024 17:10 24,4 °C 18,9 °C 55 % 64 % 1009,6 hPa 0,0 l/m² 13,3 km/h (3 Bft) SW 226 ° 1 min 105 W/m² 11,9 °C 16,4 °C 19,3 km/h (3 Bft)
10.09.2024 17:11 24,4 °C 18,9 °C 55 % 66 % 1009,6 hPa 0,0 l/m² 15,8 km/h (3 Bft) SW 221 ° 1 min 339 W/m² 12,4 °C 15,7 °C 20,9 km/h (4 Bft)
10.09.2024 17:12 24,4 °C 19,0 °C 55 % 66 % 1009,5 hPa 0,0 l/m² 15,0 km/h (3 Bft) SW 221 ° 1 min 334 W/m² 12,5 °C 16,0 °C 20,9 km/h (4 Bft)
10.09.2024 17:13 24,4 °C 19,1 °C 55 % 65 % 1009,5 hPa 0,0 l/m² 18,2 km/h (3 Bft) SW 221 ° 1 min 334 W/m² 12,4 °C 15,4 °C 24,1 km/h (4 Bft)
10.09.2024 17:14 24,4 °C 19,1 °C 55 % 64 % 1009,5 hPa 0,0 l/m² 19,8 km/h (3 Bft) S-SW 209 ° 1 min 325 W/m² 12,1 °C 15,1 °C 24,1 km/h (4 Bft)
10.09.2024 17:15 24,4 °C 19,1 °C 55 % 65 % 1009,4 hPa 0,0 l/m² 21,5 km/h (4 Bft) S 188 ° 1 min 320 W/m² 12,4 °C 14,8 °C 27,4 km/h (5 Bft)
10.09.2024 17:16 24,4 °C 19,1 °C 55 % 64 % 1009,4 hPa 0,0 l/m² 21,7 km/h (4 Bft) S-SW 197 ° 1 min 311 W/m² 12,1 °C 14,7 °C 27,4 km/h (5 Bft)
10.09.2024 17:17 24,4 °C 19,0 °C 55 % 64 % 1009,4 hPa 0,0 l/m² 18,8 km/h (3 Bft) S-SW 205 ° 1 min 308 W/m² 12,0 °C 15,2 °C 24,1 km/h (4 Bft)
10.09.2024 17:18 24,4 °C 19,0 °C 55 % 65 % 1009,4 hPa 0,0 l/m² 16,8 km/h (3 Bft) SW 219 ° 1 min 302 W/m² 12,3 °C 15,6 °C 19,3 km/h (3 Bft)
10.09.2024 17:19 24,4 °C 19,1 °C 55 % 65 % 1009,4 hPa 0,0 l/m² 21,8 km/h (4 Bft) SW 225 ° 1 min 288 W/m² 12,4 °C 14,7 °C 25,7 km/h (4 Bft)
10.09.2024 17:21 24,4 °C 19,1 °C 55 % 64 % 1009,3 hPa 0,0 l/m² 20,5 km/h (4 Bft) S-SW 213 ° 2 min 253 W/m² 12,1 °C 14,9 °C 25,7 km/h (4 Bft)
10.09.2024 17:23 24,4 °C 18,9 °C 55 % 65 % 1009,4 hPa 0,0 l/m² 19,3 km/h (3 Bft) S-SW 207 ° 2 min 253 W/m² 12,2 °C 14,9 °C 27,4 km/h (5 Bft)
10.09.2024 17:24 24,4 °C 18,9 °C 55 % 65 % 1009,4 hPa 0,0 l/m² 21,5 km/h (4 Bft) SW 217 ° 1 min 306 W/m² 12,2 °C 14,5 °C 24,1 km/h (4 Bft)
10.09.2024 17:25 24,4 °C 18,9 °C 55 % 65 % 1009,4 hPa 0,0 l/m² 20,2 km/h (4 Bft) SW 220 ° 1 min 294 W/m² 12,2 °C 14,7 °C 25,7 km/h (4 Bft)
10.09.2024 17:26 24,4 °C 18,9 °C 55 % 65 % 1009,4 hPa 0,0 l/m² 16,7 km/h (3 Bft) SW 217 ° 1 min 320 W/m² 12,2 °C 15,5 °C 20,9 km/h (4 Bft)
10.09.2024 17:27 24,4 °C 18,9 °C 55 % 66 % 1009,4 hPa 0,0 l/m² 20,2 km/h (4 Bft) SW 221 ° 1 min 334 W/m² 12,4 °C 14,7 °C 25,7 km/h (4 Bft)
10.09.2024 17:28 24,4 °C 18,9 °C 55 % 65 % 1009,4 hPa 0,0 l/m² 22,3 km/h (4 Bft) S-SW 209 ° 1 min 338 W/m² 12,2 °C 14,3 °C 27,4 km/h (5 Bft)
10.09.2024 17:29 24,4 °C 18,9 °C 55 % 66 % 1009,4 hPa 0,0 l/m² 18,8 km/h (3 Bft) SW 215 ° 1 min 334 W/m² 12,4 °C 15,0 °C 25,7 km/h (4 Bft)
10.09.2024 17:31 24,4 °C 19,0 °C 55 % 66 % 1009,3 hPa 0,0 l/m² 16,0 km/h (3 Bft) S-SW 195 ° 2 min 120 W/m² 12,5 °C 15,8 °C 20,9 km/h (4 Bft)
10.09.2024 17:33 24,4 °C 18,9 °C 55 % 65 % 1009,3 hPa 0,0 l/m² 16,0 km/h (3 Bft) SW 215 ° 2 min 109 W/m² 12,2 °C 15,7 °C 24,1 km/h (4 Bft)
10.09.2024 17:34 24,4 °C 18,8 °C 55 % 65 % 1009,2 hPa 0,0 l/m² 19,1 km/h (3 Bft) SW 223 ° 1 min 102 W/m² 12,1 °C 14,8 °C 22,5 km/h (4 Bft)
10.09.2024 17:35 24,4 °C 18,8 °C 55 % 65 % 1009,2 hPa 0,0 l/m² 17,3 km/h (3 Bft) SW 236 ° 1 min 91 W/m² 12,1 °C 15,2 °C 19,3 km/h (3 Bft)
10.09.2024 17:36 24,4 °C 18,7 °C 55 % 66 % 1009,3 hPa 0,0 l/m² 14,1 km/h (3 Bft) S-SW 206 ° 1 min 86 W/m² 12,2 °C 15,9 °C 20,9 km/h (4 Bft)
10.09.2024 17:37 24,4 °C 18,7 °C 55 % 66 % 1009,3 hPa 0,0 l/m² 14,9 km/h (3 Bft) W-SW 242 ° 1 min 76 W/m² 12,2 °C 15,7 °C 19,3 km/h (3 Bft)
10.09.2024 17:38 24,4 °C 18,7 °C 55 % 66 % 1009,2 hPa 0,0 l/m² 14,6 km/h (3 Bft) S-SW 200 ° 1 min 79 W/m² 12,2 °C 15,8 °C 19,3 km/h (3 Bft)
10.09.2024 17:39 24,4 °C 18,6 °C 55 % 66 % 1009,2 hPa 0,0 l/m² 14,6 km/h (3 Bft) SW 218 ° 1 min 116 W/m² 12,1 °C 15,7 °C 17,7 km/h (3 Bft)
10.09.2024 17:41 24,4 °C 18,6 °C 55 % 68 % 1009,3 hPa 0,0 l/m² 11,7 km/h (2 Bft) S-SW 206 ° 2 min 107 W/m² 12,6 °C 16,5 °C 17,7 km/h (3 Bft)
10.09.2024 17:43 24,4 °C 18,7 °C 55 % 67 % 1009,1 hPa 0,0 l/m² 15,1 km/h (3 Bft) SW 218 ° 2 min 255 W/m² 12,4 °C 15,6 °C 19,3 km/h (3 Bft)
10.09.2024 17:44 24,4 °C 18,7 °C 55 % 66 % 1009,2 hPa 0,0 l/m² 15,8 km/h (3 Bft) SW 215 ° 1 min 257 W/m² 12,2 °C 15,5 °C 22,5 km/h (4 Bft)
10.09.2024 17:45 24,4 °C 18,8 °C 55 % 67 % 1009,2 hPa 0,0 l/m² 16,0 km/h (3 Bft) S-SW 198 ° 1 min 218 W/m² 12,5 °C 15,5 °C 22,5 km/h (4 Bft)
10.09.2024 17:46 24,4 °C 18,9 °C 55 % 66 % 1009,1 hPa 0,0 l/m² 17,2 km/h (3 Bft) S-SW 200 ° 1 min 211 W/m² 12,4 °C 15,4 °C 24,1 km/h (4 Bft)
10.09.2024 17:47 24,4 °C 18,9 °C 55 % 66 % 1009,1 hPa 0,0 l/m² 20,5 km/h (4 Bft) S-SW 198 ° 1 min 216 W/m² 12,4 °C 14,7 °C 24,1 km/h (4 Bft)
10.09.2024 17:48 24,4 °C 18,9 °C 55 % 65 % 1009,1 hPa 0,0 l/m² 23,5 km/h (4 Bft) SW 219 ° 1 min 223 W/m² 12,2 °C 14,1 °C 30,6 km/h (5 Bft)
10.09.2024 17:49 24,4 °C 18,9 °C 55 % 66 % 1009,1 hPa 0,0 l/m² 17,2 km/h (3 Bft) SW 234 ° 1 min 223 W/m² 12,4 °C 15,4 °C 20,9 km/h (4 Bft)
10.09.2024 17:51 24,3 °C 19,1 °C 55 % 64 % 1009,1 hPa 0,0 l/m² 20,4 km/h (4 Bft) SW 219 ° 2 min 230 W/m² 12,1 °C 15,0 °C 30,6 km/h (5 Bft)
10.09.2024 17:53 24,4 °C 19,1 °C 55 % 66 % 1009,0 hPa 0,0 l/m² 14,1 km/h (3 Bft) SW 236 ° 2 min 232 W/m² 12,6 °C 16,4 °C 20,9 km/h (4 Bft)
10.09.2024 17:54 24,4 °C 19,1 °C 55 % 66 % 1009,1 hPa 0,0 l/m² 16,4 km/h (3 Bft) SW 223 ° 1 min 221 W/m² 12,6 °C 15,8 °C 22,5 km/h (4 Bft)
10.09.2024 17:55 24,3 °C 19,1 °C 55 % 66 % 1009,2 hPa 0,0 l/m² 14,5 km/h (3 Bft) SW 225 ° 1 min 130 W/m² 12,6 °C 16,3 °C 19,3 km/h (3 Bft)
10.09.2024 17:56 24,4 °C 19,1 °C 55 % 65 % 1009,1 hPa 0,0 l/m² 20,5 km/h (4 Bft) S-SW 211 ° 1 min 90 W/m² 12,4 °C 14,9 °C 25,7 km/h (4 Bft)
10.09.2024 17:57 24,4 °C 19,1 °C 55 % 64 % 1009,1 hPa 0,0 l/m² 20,8 km/h (4 Bft) S-SW 211 ° 1 min 83 W/m² 12,1 °C 14,9 °C 27,4 km/h (5 Bft)
10.09.2024 17:58 24,4 °C 19,0 °C 55 % 64 % 1009,0 hPa 0,0 l/m² 19,0 km/h (3 Bft) SW 219 ° 1 min 83 W/m² 12,0 °C 15,1 °C 22,5 km/h (4 Bft)
10.09.2024 17:59 24,4 °C 18,9 °C 55 % 64 % 1009,1 hPa 0,0 l/m² 18,9 km/h (3 Bft) SW 234 ° 1 min 83 W/m² 11,9 °C 15,0 °C 24,1 km/h (4 Bft)
10.09.2024 18:01 24,3 °C 18,8 °C 55 % 65 % 1009,1 hPa 0,0 l/m² 15,6 km/h (3 Bft) S-SW 202 ° 2 min 84 W/m² 12,1 °C 15,6 °C 20,9 km/h (4 Bft)
10.09.2024 18:03 24,3 °C 18,7 °C 55 % 66 % 1009,1 hPa 0,0 l/m² 11,9 km/h (2 Bft) S-SW 209 ° 2 min 84 W/m² 12,2 °C 16,6 °C 16,1 km/h (3 Bft)
10.09.2024 18:04 24,3 °C 18,6 °C 55 % 67 % 1009,1 hPa 0,0 l/m² 7,8 km/h (2 Bft) SW 215 ° 1 min 83 W/m² 12,3 °C 18,0 °C 9,7 km/h (2 Bft)
10.09.2024 18:05 24,3 °C 18,6 °C 55 % 67 % 1009,0 hPa 0,0 l/m² 10,3 km/h (2 Bft) SW 221 ° 1 min 81 W/m² 12,3 °C 17,0 °C 14,5 km/h (3 Bft)
10.09.2024 18:06 24,3 °C 18,6 °C 55 % 67 % 1009,0 hPa 0,0 l/m² 10,9 km/h (2 Bft) SW 236 ° 1 min 79 W/m² 12,3 °C 16,8 °C 16,1 km/h (3 Bft)
10.09.2024 18:07 24,3 °C 18,5 °C 55 % 66 % 1009,0 hPa 0,0 l/m² 14,6 km/h (3 Bft) SW 230 ° 1 min 81 W/m² 12,0 °C 15,5 °C 22,5 km/h (4 Bft)
10.09.2024 18:08 24,3 °C 18,6 °C 55 % 66 % 1009,1 hPa 0,0 l/m² 21,9 km/h (4 Bft) SW 219 ° 1 min 81 W/m² 12,1 °C 14,0 °C 27,4 km/h (5 Bft)
10.09.2024 18:09 24,3 °C 18,5 °C 55 % 65 % 1009,1 hPa 0,0 l/m² 16,8 km/h (3 Bft) SW 219 ° 1 min 79 W/m² 11,8 °C 15,0 °C 19,3 km/h (3 Bft)
10.09.2024 18:11 24,3 °C 18,5 °C 55 % 65 % 1009,0 hPa 0,0 l/m² 18,6 km/h (3 Bft) S-SW 207 ° 2 min 81 W/m² 11,8 °C 14,6 °C 24,1 km/h (4 Bft)
10.09.2024 18:13 24,3 °C 18,6 °C 55 % 67 % 1009,1 hPa 0,0 l/m² 11,4 km/h (2 Bft) SW 229 ° 2 min 74 W/m² 12,3 °C 16,6 °C 16,1 km/h (3 Bft)
10.09.2024 18:14 24,3 °C 18,6 °C 55 % 66 % 1009,1 hPa 0,0 l/m² 11,8 km/h (2 Bft) SW 232 ° 1 min 72 W/m² 12,1 °C 16,5 °C 16,1 km/h (3 Bft)
10.09.2024 18:15 24,3 °C 18,6 °C 55 % 67 % 1009,1 hPa 0,0 l/m² 13,5 km/h (3 Bft) SW 221 ° 1 min 72 W/m² 12,3 °C 16,0 °C 22,5 km/h (4 Bft)
10.09.2024 18:16 24,3 °C 18,7 °C 55 % 66 % 1009,0 hPa 0,0 l/m² 15,3 km/h (3 Bft) S-SW 211 ° 1 min 72 W/m² 12,2 °C 15,6 °C 17,7 km/h (3 Bft)
10.09.2024 18:17 24,3 °C 18,6 °C 55 % 67 % 1009,1 hPa 0,0 l/m² 10,4 km/h (2 Bft) SW 230 ° 1 min 76 W/m² 12,3 °C 17,0 °C 17,7 km/h (3 Bft)
10.09.2024 18:18 24,3 °C 18,6 °C 55 % 67 % 1009,1 hPa 0,0 l/m² 12,5 km/h (2 Bft) W-SW 238 ° 1 min 76 W/m² 12,3 °C 16,3 °C 16,1 km/h (3 Bft)
10.09.2024 18:19 24,3 °C 18,6 °C 55 % 67 % 1009,2 hPa 0,0 l/m² 14,0 km/h (3 Bft) S-SW 200 ° 1 min 74 W/m² 12,3 °C 15,8 °C 19,3 km/h (3 Bft)
10.09.2024 18:21 24,3 °C 18,6 °C 55 % 67 % 1009,1 hPa 0,0 l/m² 14,0 km/h (3 Bft) SW 223 ° 2 min 74 W/m² 12,3 °C 15,8 °C 22,5 km/h (4 Bft)
10.09.2024 18:23 24,3 °C 18,7 °C 55 % 66 % 1009,1 hPa 0,0 l/m² 17,2 km/h (3 Bft) W 275 ° 2 min 72 W/m² 12,2 °C 15,1 °C 24,1 km/h (4 Bft)
10.09.2024 18:24 24,3 °C 18,7 °C 55 % 65 % 1009,1 hPa 0,0 l/m² 21,2 km/h (4 Bft) SW 223 ° 1 min 69 W/m² 12,0 °C 14,3 °C 25,7 km/h (4 Bft)
10.09.2024 18:25 24,3 °C 18,7 °C 55 % 66 % 1009,1 hPa 0,0 l/m² 17,5 km/h (3 Bft) SW 227 ° 1 min 67 W/m² 12,2 °C 15,1 °C 22,5 km/h (4 Bft)
10.09.2024 18:26 24,3 °C 18,7 °C 55 % 66 % 1009,1 hPa 0,0 l/m² 11,4 km/h (2 Bft) W-SW 250 ° 1 min 65 W/m² 12,2 °C 16,7 °C 16,1 km/h (3 Bft)
10.09.2024 18:27 24,3 °C 18,7 °C 55 % 66 % 1009,2 hPa 0,0 l/m² 14,1 km/h (3 Bft) SW 221 ° 1 min 62 W/m² 12,2 °C 15,9 °C 19,3 km/h (3 Bft)
10.09.2024 18:28 24,3 °C 18,7 °C 55 % 67 % 1009,1 hPa 0,0 l/m² 13,4 km/h (3 Bft) SW 229 ° 1 min 58 W/m² 12,4 °C 16,1 °C 19,3 km/h (3 Bft)
10.09.2024 18:29 24,3 °C 18,7 °C 55 % 66 % 1009,1 hPa 0,0 l/m² 20,0 km/h (4 Bft) SW 218 ° 1 min 54 W/m² 12,2 °C 14,5 °C 24,1 km/h (4 Bft)
10.09.2024 18:31 24,3 °C 18,6 °C 55 % 66 % 1009,1 hPa 0,0 l/m² 13,7 km/h (3 Bft) W-SW 252 ° 0 min 49 W/m² 12,1 °C 15,9 °C 20,9 km/h (4 Bft)
10.09.2024 18:33 24,3 °C 18,5 °C 55 % 67 % 1009,2 hPa 0,0 l/m² 13,1 km/h (3 Bft) W 263 ° 0 min 46 W/m² 12,3 °C 16,0 °C 17,7 km/h (3 Bft)
10.09.2024 18:34 24,3 °C 18,4 °C 55 % 67 % 1009,1 hPa 0,0 l/m² 13,8 km/h (3 Bft) SW 224 ° 0 min 44 W/m² 12,2 °C 15,6 °C 17,7 km/h (3 Bft)
10.09.2024 18:35 24,3 °C 18,3 °C 55 % 67 % 1009,2 hPa 0,0 l/m² 12,9 km/h (3 Bft) SW 226 ° 0 min 44 W/m² 12,1 °C 15,8 °C 16,1 km/h (3 Bft)
10.09.2024 18:36 24,3 °C 18,3 °C 55 % 67 % 1009,1 hPa 0,0 l/m² 12,5 km/h (2 Bft) SW 221 ° 0 min 42 W/m² 12,1 °C 15,9 °C 14,5 km/h (3 Bft)
10.09.2024 18:37 24,3 °C 18,2 °C 55 % 67 % 1009,1 hPa 0,0 l/m² 10,5 km/h (2 Bft) SW 228 ° 0 min 42 W/m² 12,0 °C 16,5 °C 12,9 km/h (3 Bft)
10.09.2024 18:38 24,3 °C 18,2 °C 55 % 68 % 1009,1 hPa 0,0 l/m² 10,3 km/h (2 Bft) SW 217 ° 0 min 40 W/m² 12,2 °C 16,5 °C 12,9 km/h (3 Bft)
10.09.2024 18:39 24,3 °C 18,1 °C 55 % 67 % 1009,0 hPa 0,0 l/m² 11,9 km/h (2 Bft) SW 227 ° 0 min 40 W/m² 11,9 °C 15,9 °C 17,7 km/h (3 Bft)
10.09.2024 18:41 24,3 °C 18,0 °C 55 % 68 % 1009,1 hPa 0,0 l/m² 11,8 km/h (2 Bft) SW 232 ° 0 min 33 W/m² 12,0 °C 15,8 °C 19,3 km/h (3 Bft)
10.09.2024 18:43 24,3 °C 17,9 °C 55 % 68 % 1009,1 hPa 0,0 l/m² 12,2 km/h (2 Bft) SW 215 ° 0 min 30 W/m² 11,9 °C 15,5 °C 16,1 km/h (3 Bft)
10.09.2024 18:44 24,3 °C 17,9 °C 55 % 69 % 1009,1 hPa 0,0 l/m² 10,5 km/h (2 Bft) SW 221 ° 0 min 28 W/m² 12,1 °C 16,1 °C 14,5 km/h (3 Bft)
10.09.2024 18:46 24,3 °C 17,8 °C 55 % 68 % 1009,0 hPa 0,0 l/m² 9,0 km/h (2 Bft) S-SW 213 ° 0 min 32 W/m² 11,8 °C 16,6 °C 12,9 km/h (3 Bft)
10.09.2024 18:47 24,3 °C 17,8 °C 55 % 69 % 1009,0 hPa 0,0 l/m² 10,0 km/h (2 Bft) SW 233 ° 0 min 35 W/m² 12,0 °C 16,2 °C 11,3 km/h (2 Bft)
10.09.2024 18:48 24,3 °C 17,7 °C 55 % 69 % 1009,0 hPa 0,0 l/m² 10,5 km/h (2 Bft) SW 221 ° 0 min 37 W/m² 11,9 °C 15,9 °C 14,5 km/h (3 Bft)
10.09.2024 18:49 24,2 °C 17,7 °C 55 % 69 % 1009,0 hPa 0,0 l/m² 8,0 km/h (2 Bft) S-SW 205 ° 0 min 35 W/m² 11,9 °C 16,9 °C 11,3 km/h (2 Bft)
10.09.2024 18:51 24,3 °C 17,7 °C 55 % 70 % 1009,1 hPa 0,0 l/m² 9,5 km/h (2 Bft) S-SW 207 ° 0 min 33 W/m² 12,2 °C 16,3 °C 14,5 km/h (3 Bft)
10.09.2024 18:53 24,3 °C 17,7 °C 55 % 70 % 1009,1 hPa 0,0 l/m² 9,7 km/h (2 Bft) S-SW 202 ° 0 min 30 W/m² 12,2 °C 16,2 °C 14,5 km/h (3 Bft)
10.09.2024 18:54 24,2 °C 17,7 °C 55 % 70 % 1009,0 hPa 0,0 l/m² 10,4 km/h (2 Bft) S-SW 199 ° 0 min 30 W/m² 12,2 °C 15,9 °C 16,1 km/h (3 Bft)
10.09.2024 18:55 24,2 °C 17,7 °C 55 % 70 % 1009,1 hPa 0,0 l/m² 13,5 km/h (3 Bft) S-SW 211 ° 0 min 28 W/m² 12,2 °C 14,9 °C 19,3 km/h (3 Bft)
10.09.2024 18:56 24,2 °C 17,6 °C 55 % 70 % 1009,0 hPa 0,0 l/m² 12,3 km/h (2 Bft) S-SW 209 ° 0 min 26 W/m² 12,1 °C 15,2 °C 14,5 km/h (3 Bft)
10.09.2024 18:57 24,2 °C 17,6 °C 55 % 70 % 1009,0 hPa 0,0 l/m² 14,8 km/h (3 Bft) SW 227 ° 0 min 25 W/m² 12,1 °C 14,4 °C 17,7 km/h (3 Bft)
10.09.2024 18:58 24,2 °C 17,6 °C 55 % 70 % 1009,0 hPa 0,0 l/m² 13,3 km/h (3 Bft) S-SW 200 ° 0 min 25 W/m² 12,1 °C 14,8 °C 16,1 km/h (3 Bft)
10.09.2024 18:59 24,2 °C 17,6 °C 55 % 70 % 1009,0 hPa 0,0 l/m² 15,1 km/h (3 Bft) S 184 ° 0 min 23 W/m² 12,1 °C 14,3 °C 19,3 km/h (3 Bft)
10.09.2024 19:01 24,2 °C 17,6 °C 55 % 70 % 1008,9 hPa 0,0 l/m² 12,5 km/h (2 Bft) SW 221 ° 0 min 21 W/m² 12,1 °C 15,1 °C 17,7 km/h (3 Bft)
10.09.2024 19:03 24,2 °C 17,5 °C 55 % 70 % 1009,0 hPa 0,0 l/m² 13,1 km/h (3 Bft) S-SW 205 ° 0 min 21 W/m² 12,0 °C 14,8 °C 19,3 km/h (3 Bft)
10.09.2024 19:04 24,2 °C 17,5 °C 55 % 70 % 1009,0 hPa 0,0 l/m² 12,1 km/h (2 Bft) SW 215 ° 0 min 21 W/m² 12,0 °C 15,1 °C 16,1 km/h (3 Bft)
10.09.2024 19:05 24,2 °C 17,5 °C 55 % 70 % 1009,0 hPa 0,0 l/m² 11,5 km/h (2 Bft) S-SW 211 ° 0 min 19 W/m² 12,0 °C 15,3 °C 12,9 km/h (3 Bft)
10.09.2024 19:06 24,2 °C 17,4 °C 55 % 70 % 1008,9 hPa 0,0 l/m² 13,3 km/h (3 Bft) S-SW 205 ° 0 min 19 W/m² 11,9 °C 14,6 °C 16,1 km/h (3 Bft)
10.09.2024 19:07 24,2 °C 17,4 °C 55 % 70 % 1008,9 hPa 0,0 l/m² 12,1 km/h (2 Bft) SW 215 ° 0 min 18 W/m² 11,9 °C 15,0 °C 16,1 km/h (3 Bft)
10.09.2024 19:08 24,2 °C 17,4 °C 55 % 71 % 1008,9 hPa 0,0 l/m² 9,3 km/h (2 Bft) SW 216 ° 0 min 18 W/m² 12,1 °C 16,1 °C 11,3 km/h (2 Bft)
10.09.2024 19:09 24,2 °C 17,4 °C 55 % 70 % 1009,0 hPa 0,0 l/m² 10,1 km/h (2 Bft) S-SW 209 ° 0 min 16 W/m² 11,9 °C 15,7 °C 12,9 km/h (3 Bft)
10.09.2024 19:11 24,2 °C 17,4 °C 55 % 71 % 1008,9 hPa 0,0 l/m² 8,7 km/h (2 Bft) S-SW 202 ° 0 min 12 W/m² 12,1 °C 16,3 °C 12,9 km/h (3 Bft)
10.09.2024 19:13 24,3 °C 17,3 °C 55 % 71 % 1008,9 hPa 0,0 l/m² 9,1 km/h (2 Bft) SW 216 ° 0 min 12 W/m² 12,0 °C 16,0 °C 12,9 km/h (3 Bft)
10.09.2024 19:14 24,2 °C 17,3 °C 56 % 72 % 1008,9 hPa 0,0 l/m² 8,2 km/h (2 Bft) SW 220 ° 0 min 11 W/m² 12,2 °C 16,4 °C 9,7 km/h (2 Bft)
10.09.2024 19:15 24,2 °C 17,3 °C 56 % 71 % 1008,9 hPa 0,0 l/m² 10,6 km/h (2 Bft) S-SW 211 ° 0 min 11 W/m² 12,0 °C 15,4 °C 12,9 km/h (3 Bft)
10.09.2024 19:16 24,2 °C 17,3 °C 56 % 71 % 1008,9 hPa 0,0 l/m² 10,1 km/h (2 Bft) S-SW 207 ° 0 min 9 W/m² 12,0 °C 15,6 °C 12,9 km/h (3 Bft)
10.09.2024 19:17 24,2 °C 17,3 °C 56 % 71 % 1008,9 hPa 0,0 l/m² 8,3 km/h (2 Bft) S-SW 209 ° 0 min 7 W/m² 12,0 °C 16,4 °C 12,9 km/h (3 Bft)
10.09.2024 19:18 24,2 °C 17,2 °C 56 % 71 % 1008,9 hPa 0,0 l/m² 9,3 km/h (2 Bft) SW 218 ° 0 min 7 W/m² 11,9 °C 15,8 °C 16,1 km/h (3 Bft)
10.09.2024 19:19 24,2 °C 17,3 °C 56 % 71 % 1008,8 hPa 0,0 l/m² 12,4 km/h (2 Bft) S-SW 205 ° 0 min 7 W/m² 12,0 °C 14,8 °C 16,1 km/h (3 Bft)
10.09.2024 19:21 24,2 °C 17,3 °C 56 % 71 % 1008,8 hPa 0,0 l/m² 9,2 km/h (2 Bft) SW 216 ° 0 min 5 W/m² 12,0 °C 16,0 °C 12,9 km/h (3 Bft)
10.09.2024 19:23 24,2 °C 17,3 °C 56 % 71 % 1008,7 hPa 0,0 l/m² 11,5 km/h (2 Bft) S-SW 212 ° 0 min 5 W/m² 12,0 °C 15,1 °C 14,5 km/h (3 Bft)
10.09.2024 19:24 24,2 °C 17,3 °C 56 % 71 % 1008,9 hPa 0,0 l/m² 12,7 km/h (3 Bft) SW 220 ° 0 min 0 W/m² 12,0 °C 14,7 °C 19,3 km/h (3 Bft)
10.09.2024 19:25 24,2 °C 17,3 °C 56 % 71 % 1008,7 hPa 0,0 l/m² 16,8 km/h (3 Bft) SW 214 ° 0 min 0 W/m² 12,0 °C 13,5 °C 17,7 km/h (3 Bft)
10.09.2024 19:26 24,2 °C 17,3 °C 56 % 70 % 1008,8 hPa 0,0 l/m² 12,9 km/h (3 Bft) S-SW 207 ° 0 min 0 W/m² 11,8 °C 14,6 °C 14,5 km/h (3 Bft)
10.09.2024 19:27 24,2 °C 17,3 °C 56 % 71 % 1008,8 hPa 0,0 l/m² 10,8 km/h (2 Bft) S-SW 211 ° 0 min 0 W/m² 12,0 °C 15,4 °C 12,9 km/h (3 Bft)
10.09.2024 19:28 24,3 °C 17,3 °C 56 % 71 % 1008,7 hPa 0,0 l/m² 13,4 km/h (3 Bft) S-SW 196 ° 0 min 0 W/m² 12,0 °C 14,5 °C 17,7 km/h (3 Bft)
10.09.2024 19:29 24,2 °C 17,3 °C 56 % 71 % 1008,8 hPa 0,0 l/m² 11,0 km/h (2 Bft) S-SW 193 ° 0 min 0 W/m² 12,0 °C 15,3 °C 12,9 km/h (3 Bft)
10.09.2024 19:31 24,2 °C 17,2 °C 56 % 71 % 1008,8 hPa 0,0 l/m² 10,2 km/h (2 Bft) S-SW 199 ° 0 min 0 W/m² 11,9 °C 15,5 °C 14,5 km/h (3 Bft)
10.09.2024 19:33 24,2 °C 17,2 °C 56 % 71 % 1008,8 hPa 0,0 l/m² 10,9 km/h (2 Bft) S-SW 213 ° 0 min 0 W/m² 11,9 °C 15,2 °C 16,1 km/h (3 Bft)
10.09.2024 19:34 24,2 °C 17,2 °C 56 % 71 % 1008,8 hPa 0,0 l/m² 11,9 km/h (2 Bft) S-SW 208 ° 0 min 0 W/m² 11,9 °C 14,8 °C 14,5 km/h (3 Bft)
10.09.2024 19:35 24,2 °C 17,2 °C 56 % 71 % 1008,8 hPa 0,0 l/m² 10,9 km/h (2 Bft) S-SW 204 ° 0 min 0 W/m² 11,9 °C 15,2 °C 12,9 km/h (3 Bft)
10.09.2024 19:36 24,2 °C 17,2 °C 56 % 71 % 1008,8 hPa 0,0 l/m² 9,9 km/h (2 Bft) S-SW 211 ° 0 min 0 W/m² 11,9 °C 15,6 °C 12,9 km/h (3 Bft)
10.09.2024 19:37 24,2 °C 17,2 °C 56 % 71 % 1008,7 hPa 0,0 l/m² 9,5 km/h (2 Bft) S-SW 194 ° 0 min 0 W/m² 11,9 °C 15,8 °C 12,9 km/h (3 Bft)
10.09.2024 19:38 24,2 °C 17,2 °C 56 % 71 % 1008,7 hPa 0,0 l/m² 11,9 km/h (2 Bft) S-SW 195 ° 0 min 0 W/m² 11,9 °C 14,8 °C 16,1 km/h (3 Bft)
10.09.2024 19:39 24,2 °C 17,2 °C 56 % 72 % 1008,7 hPa 0,0 l/m² 9,9 km/h (2 Bft) S-SW 202 ° 0 min 0 W/m² 12,1 °C 15,6 °C 11,3 km/h (2 Bft)
10.09.2024 19:41 24,2 °C 17,2 °C 56 % 72 % 1008,7 hPa 0,0 l/m² 10,7 km/h (2 Bft) S-SW 211 ° 0 min 0 W/m² 12,1 °C 15,3 °C 14,5 km/h (3 Bft)
10.09.2024 19:43 24,2 °C 17,2 °C 56 % 72 % 1008,7 hPa 0,0 l/m² 10,0 km/h (2 Bft) S 187 ° 0 min 0 W/m² 12,1 °C 15,5 °C 12,9 km/h (3 Bft)
10.09.2024 19:44 24,2 °C 17,2 °C 56 % 71 % 1008,7 hPa 0,0 l/m² 9,3 km/h (2 Bft) S 188 ° 0 min 0 W/m² 11,9 °C 15,8 °C 14,5 km/h (3 Bft)
10.09.2024 19:45 24,2 °C 17,2 °C 56 % 71 % 1008,7 hPa 0,0 l/m² 10,9 km/h (2 Bft) S-SW 198 ° 0 min 0 W/m² 11,9 °C 15,2 °C 12,9 km/h (3 Bft)
10.09.2024 19:46 24,2 °C 17,2 °C 56 % 71 % 1008,6 hPa 0,0 l/m² 11,0 km/h (2 Bft) S-SW 196 ° 0 min 0 W/m² 11,9 °C 15,2 °C 12,9 km/h (3 Bft)
10.09.2024 19:47 24,2 °C 17,2 °C 56 % 71 % 1008,7 hPa 0,0 l/m² 7,6 km/h (2 Bft) S-SW 203 ° 0 min 0 W/m² 11,9 °C 16,6 °C 9,7 km/h (2 Bft)
10.09.2024 19:48 24,2 °C 17,2 °C 56 % 71 % 1008,7 hPa 0,0 l/m² 6,0 km/h (2 Bft) S 190 ° 0 min 0 W/m² 11,9 °C 17,2 °C 8,0 km/h (2 Bft)
10.09.2024 19:49 24,2 °C 17,3 °C 56 % 72 % 1008,6 hPa 0,0 l/m² 7,4 km/h (2 Bft) S 183 ° 0 min 0 W/m² 12,2 °C 16,8 °C 8,0 km/h (2 Bft)
10.09.2024 19:51 24,2 °C 17,3 °C 56 % 71 % 1008,6 hPa 0,0 l/m² 8,1 km/h (2 Bft) S 187 ° 0 min 0 W/m² 12,0 °C 16,5 °C 11,3 km/h (2 Bft)
10.09.2024 19:53 24,2 °C 17,3 °C 56 % 72 % 1008,6 hPa 0,0 l/m² 5,8 km/h (2 Bft) S-SW 192 ° 0 min 0 W/m² 12,2 °C 17,3 °C 8,0 km/h (2 Bft)
10.09.2024 19:54 24,2 °C 17,3 °C 56 % 72 % 1008,6 hPa 0,0 l/m² 8,8 km/h (2 Bft) S 169 ° 0 min 0 W/m² 12,2 °C 16,2 °C 11,3 km/h (2 Bft)
10.09.2024 19:55 24,3 °C 17,2 °C 56 % 71 % 1008,6 hPa 0,0 l/m² 8,7 km/h (2 Bft) S 172 ° 0 min 0 W/m² 11,9 °C 16,1 °C 9,7 km/h (2 Bft)
10.09.2024 19:56 24,3 °C 17,2 °C 56 % 71 % 1008,7 hPa 0,0 l/m² 7,8 km/h (2 Bft) S 178 ° 0 min 0 W/m² 11,9 °C 16,5 °C 11,3 km/h (2 Bft)
10.09.2024 19:57 24,2 °C 17,2 °C 56 % 71 % 1008,6 hPa 0,0 l/m² 8,4 km/h (2 Bft) S 176 ° 0 min 0 W/m² 11,9 °C 16,2 °C 9,7 km/h (2 Bft)
10.09.2024 19:58 24,3 °C 17,3 °C 56 % 71 % 1008,6 hPa 0,0 l/m² 6,0 km/h (2 Bft) S-SO 165 ° 0 min 0 W/m² 12,0 °C 17,3 °C 8,0 km/h (2 Bft)
10.09.2024 19:59 24,2 °C 17,2 °C 56 % 71 % 1008,6 hPa 0,0 l/m² 7,3 km/h (2 Bft) S-SO 155 ° 0 min 0 W/m² 11,9 °C 16,8 °C 9,7 km/h (2 Bft)
10.09.2024 20:01 24,3 °C 17,2 °C 56 % 72 % 1008,6 hPa 0,0 l/m² 5,6 km/h (2 Bft) S-SO 148 ° 0 min 0 W/m² 12,1 °C 17,2 °C 9,7 km/h (2 Bft)
10.09.2024 20:03 24,3 °C 17,2 °C 56 % 72 % 1008,6 hPa 0,0 l/m² 8,2 km/h (2 Bft) S 175 ° 0 min 0 W/m² 12,1 °C 16,3 °C 12,9 km/h (3 Bft)
10.09.2024 20:04 24,3 °C 17,2 °C 56 % 72 % 1008,6 hPa 0,0 l/m² 7,6 km/h (2 Bft) S-SO 157 ° 0 min 0 W/m² 12,1 °C 16,6 °C 11,3 km/h (2 Bft)
10.09.2024 20:05 24,2 °C 17,2 °C 56 % 72 % 1008,6 hPa 0,0 l/m² 8,2 km/h (2 Bft) S-SO 165 ° 0 min 0 W/m² 12,1 °C 16,3 °C 11,3 km/h (2 Bft)
10.09.2024 20:06 24,3 °C 17,1 °C 56 % 72 % 1008,7 hPa 0,0 l/m² 10,5 km/h (2 Bft) S 175 ° 0 min 0 W/m² 12,0 °C 15,2 °C 14,5 km/h (3 Bft)
10.09.2024 20:07 24,3 °C 17,1 °C 56 % 72 % 1008,6 hPa 0,0 l/m² 8,9 km/h (2 Bft) S 171 ° 0 min 0 W/m² 12,0 °C 15,9 °C 14,5 km/h (3 Bft)
10.09.2024 20:08 24,3 °C 17,1 °C 56 % 72 % 1008,6 hPa 0,0 l/m² 6,6 km/h (2 Bft) S 177 ° 0 min 0 W/m² 12,0 °C 17,0 °C 8,0 km/h (2 Bft)
10.09.2024 20:09 24,3 °C 17,1 °C 56 % 72 % 1008,5 hPa 0,0 l/m² 6,1 km/h (2 Bft) S 173 ° 0 min 0 W/m² 12,0 °C 17,1 °C 9,7 km/h (2 Bft)
10.09.2024 20:11 24,3 °C 17,1 °C 56 % 72 % 1008,6 hPa 0,0 l/m² 7,3 km/h (2 Bft) S-SO 148 ° 0 min 0 W/m² 12,0 °C 16,6 °C 9,7 km/h (2 Bft)
10.09.2024 20:13 24,3 °C 17,0 °C 56 % 73 % 1008,6 hPa 0,0 l/m² 8,6 km/h (2 Bft) S-SO 163 ° 0 min 0 W/m² 12,1 °C 15,9 °C 14,5 km/h (3 Bft)
10.09.2024 20:14 24,3 °C 16,9 °C 56 % 73 % 1008,6 hPa 0,0 l/m² 9,5 km/h (2 Bft) S-SO 160 ° 0 min 0 W/m² 12,0 °C 15,4 °C 12,9 km/h (3 Bft)
10.09.2024 20:15 24,3 °C 16,9 °C 56 % 73 % 1008,6 hPa 0,0 l/m² 8,2 km/h (2 Bft) S 190 ° 0 min 0 W/m² 12,0 °C 16,0 °C 11,3 km/h (2 Bft)
10.09.2024 20:16 24,3 °C 16,9 °C 56 % 73 % 1008,6 hPa 0,0 l/m² 10,7 km/h (2 Bft) S-SO 159 ° 0 min 0 W/m² 12,0 °C 14,9 °C 14,5 km/h (3 Bft)
10.09.2024 20:17 24,3 °C 16,9 °C 56 % 73 % 1008,5 hPa 0,0 l/m² 8,2 km/h (2 Bft) S-SO 168 ° 0 min 0 W/m² 12,0 °C 16,0 °C 14,5 km/h (3 Bft)
10.09.2024 20:18 24,3 °C 16,9 °C 56 % 73 % 1008,5 hPa 0,0 l/m² 8,8 km/h (2 Bft) S 178 ° 0 min 0 W/m² 12,0 °C 15,7 °C 12,9 km/h (3 Bft)
10.09.2024 20:19 24,3 °C 16,8 °C 56 % 73 % 1008,6 hPa 0,0 l/m² 8,1 km/h (2 Bft) S 175 ° 0 min 0 W/m² 11,9 °C 15,9 °C 11,3 km/h (2 Bft)
10.09.2024 20:21 24,2 °C 16,8 °C 56 % 73 % 1008,6 hPa 0,0 l/m² 8,2 km/h (2 Bft) S-SO 159 ° 0 min 0 W/m² 11,9 °C 15,9 °C 9,7 km/h (2 Bft)
10.09.2024 20:23 24,2 °C 16,8 °C 56 % 73 % 1008,5 hPa 0,0 l/m² 7,2 km/h (2 Bft) S-SO 157 ° 0 min 0 W/m² 11,9 °C 16,4 °C 9,7 km/h (2 Bft)
10.09.2024 20:24 24,3 °C 16,8 °C 56 % 73 % 1008,6 hPa 0,0 l/m² 6,2 km/h (2 Bft) S-SO 148 ° 0 min 0 W/m² 11,9 °C 16,8 °C 8,0 km/h (2 Bft)
10.09.2024 20:25 24,2 °C 16,7 °C 56 % 74 % 1008,6 hPa 0,0 l/m² 7,0 km/h (2 Bft) S 169 ° 0 min 0 W/m² 12,0 °C 16,4 °C 11,3 km/h (2 Bft)
10.09.2024 20:26 24,2 °C 16,7 °C 56 % 74 % 1008,6 hPa 0,0 l/m² 10,1 km/h (2 Bft) S-SO 159 ° 0 min 0 W/m² 12,0 °C 15,0 °C 16,1 km/h (3 Bft)
10.09.2024 20:27 24,2 °C 16,7 °C 56 % 74 % 1008,5 hPa 0,0 l/m² 9,1 km/h (2 Bft) S-SO 165 ° 0 min 0 W/m² 12,0 °C 15,4 °C 11,3 km/h (2 Bft)
10.09.2024 20:28 24,2 °C 16,7 °C 56 % 74 % 1008,5 hPa 0,0 l/m² 8,0 km/h (2 Bft) S-SO 158 ° 0 min 0 W/m² 12,0 °C 15,9 °C 11,3 km/h (2 Bft)
10.09.2024 20:29 24,2 °C 16,7 °C 56 % 74 % 1008,5 hPa 0,0 l/m² 6,8 km/h (2 Bft) S-SO 161 ° 0 min 0 W/m² 12,0 °C 16,5 °C 9,7 km/h (2 Bft)
10.09.2024 20:31 24,2 °C 16,6 °C 56 % 75 % 1008,4 hPa 0,0 l/m² 7,8 km/h (2 Bft) S 173 ° 0 min 0 W/m² 12,1 °C 15,9 °C 9,7 km/h (2 Bft)
10.09.2024 20:32 24,2 °C 16,6 °C 56 % 75 % 1008,3 hPa 0,0 l/m² 10,0 km/h (2 Bft) S 184 ° 0 min 0 W/m² 12,1 °C 14,9 °C 11,3 km/h (2 Bft)
10.09.2024 20:33 24,2 °C 16,6 °C 56 % 75 % 1008,3 hPa 0,0 l/m² 9,3 km/h (2 Bft) S 169 ° 0 min 0 W/m² 12,1 °C 15,2 °C 12,9 km/h (3 Bft)
10.09.2024 20:34 24,2 °C 16,5 °C 55 % 75 % 1008,5 hPa 0,0 l/m² 10,7 km/h (2 Bft) S-SO 157 ° 0 min 0 W/m² 12,1 °C 14,5 °C 14,5 km/h (3 Bft)
10.09.2024 20:35 24,2 °C 16,4 °C 55 % 75 % 1008,4 hPa 0,0 l/m² 9,5 km/h (2 Bft) S 178 ° 0 min 0 W/m² 12,0 °C 14,9 °C 12,9 km/h (3 Bft)
10.09.2024 20:36 24,2 °C 16,4 °C 55 % 75 % 1008,4 hPa 0,0 l/m² 8,9 km/h (2 Bft) S 173 ° 0 min 0 W/m² 12,0 °C 15,1 °C 11,3 km/h (2 Bft)
10.09.2024 20:37 24,2 °C 16,4 °C 55 % 76 % 1008,4 hPa 0,0 l/m² 10,8 km/h (2 Bft) S 187 ° 0 min 0 W/m² 12,2 °C 14,3 °C 14,5 km/h (3 Bft)
10.09.2024 20:38 24,2 °C 16,3 °C 55 % 76 % 1008,4 hPa 0,0 l/m² 11,8 km/h (2 Bft) S 181 ° 0 min 0 W/m² 12,1 °C 13,8 °C 16,1 km/h (3 Bft)
10.09.2024 20:39 24,2 °C 16,3 °C 55 % 76 % 1008,3 hPa 0,0 l/m² 9,1 km/h (2 Bft) S 184 ° 0 min 0 W/m² 12,1 °C 14,9 °C 12,9 km/h (3 Bft)
10.09.2024 20:41 24,1 °C 16,2 °C 54 % 76 % 1008,3 hPa 0,0 l/m² 8,5 km/h (2 Bft) S-SO 161 ° 0 min 0 W/m² 12,0 °C 15,1 °C 11,3 km/h (2 Bft)
10.09.2024 20:43 24,1 °C 16,2 °C 54 % 76 % 1008,3 hPa 0,0 l/m² 10,6 km/h (2 Bft) S-SO 161 ° 0 min 0 W/m² 12,0 °C 14,2 °C 19,3 km/h (3 Bft)
10.09.2024 20:45 24,1 °C 16,2 °C 54 % 76 % 1008,3 hPa 0,0 l/m² 10,9 km/h (2 Bft) S-SO 158 ° 0 min 0 W/m² 12,0 °C 14,1 °C 14,5 km/h (3 Bft)
10.09.2024 20:46 24,1 °C 16,2 °C 54 % 76 % 1008,3 hPa 0,0 l/m² 9,9 km/h (2 Bft) S-SO 167 ° 0 min 0 W/m² 12,0 °C 14,5 °C 14,5 km/h (3 Bft)
10.09.2024 20:47 24,1 °C 16,2 °C 54 % 76 % 1008,2 hPa 0,0 l/m² 10,3 km/h (2 Bft) S 170 ° 0 min 0 W/m² 12,0 °C 14,3 °C 14,5 km/h (3 Bft)
10.09.2024 20:48 24,1 °C 16,2 °C 54 % 76 % 1008,2 hPa 0,0 l/m² 9,9 km/h (2 Bft) S 178 ° 0 min 0 W/m² 12,0 °C 14,5 °C 12,9 km/h (3 Bft)
10.09.2024 20:49 24,1 °C 16,2 °C 54 % 76 % 1008,1 hPa 0,0 l/m² 9,6 km/h (2 Bft) S-SO 157 ° 0 min 0 W/m² 12,0 °C 14,6 °C 14,5 km/h (3 Bft)
10.09.2024 20:51 24,1 °C 16,2 °C 53 % 76 % 1008,1 hPa 0,0 l/m² 14,2 km/h (3 Bft) S-SO 165 ° 0 min 0 W/m² 12,0 °C 12,9 °C 19,3 km/h (3 Bft)
10.09.2024 20:53 24,0 °C 16,2 °C 53 % 76 % 1008,1 hPa 0,0 l/m² 12,0 km/h (2 Bft) S 176 ° 0 min 0 W/m² 12,0 °C 13,7 °C 16,1 km/h (3 Bft)
10.09.2024 20:54 24,1 °C 16,3 °C 53 % 76 % 1008,1 hPa 0,0 l/m² 13,7 km/h (3 Bft) S 186 ° 0 min 0 W/m² 12,1 °C 13,2 °C 17,7 km/h (3 Bft)
10.09.2024 20:55 24,1 °C 16,2 °C 53 % 76 % 1008,1 hPa 0,0 l/m² 13,1 km/h (3 Bft) S 176 ° 0 min 0 W/m² 12,0 °C 13,3 °C 16,1 km/h (3 Bft)
10.09.2024 20:57 24,0 °C 16,2 °C 53 % 76 % 1008,0 hPa 0,0 l/m² 13,9 km/h (3 Bft) S 183 ° 0 min 0 W/m² 12,0 °C 13,0 °C 24,1 km/h (4 Bft)
10.09.2024 20:58 24,0 °C 16,3 °C 53 % 76 % 1008,0 hPa 0,0 l/m² 12,6 km/h (3 Bft) S 180 ° 0 min 0 W/m² 12,1 °C 13,6 °C 17,7 km/h (3 Bft)
10.09.2024 20:59 24,0 °C 16,3 °C 53 % 76 % 1008,0 hPa 0,0 l/m² 16,7 km/h (3 Bft) S 188 ° 0 min 0 W/m² 12,1 °C 12,3 °C 20,9 km/h (4 Bft)
10.09.2024 21:01 24,0 °C 16,3 °C 53 % 76 % 1007,9 hPa 0,0 l/m² 15,4 km/h (3 Bft) S 175 ° 0 min 0 W/m² 12,1 °C 12,6 °C 22,5 km/h (4 Bft)
10.09.2024 21:03 23,9 °C 16,3 °C 53 % 76 % 1007,9 hPa 0,0 l/m² 13,7 km/h (3 Bft) S 182 ° 0 min 0 W/m² 12,1 °C 13,2 °C 19,3 km/h (3 Bft)
10.09.2024 21:04 23,9 °C 16,3 °C 53 % 76 % 1007,8 hPa 0,0 l/m² 12,9 km/h (3 Bft) S 178 ° 0 min 0 W/m² 12,1 °C 13,4 °C 16,1 km/h (3 Bft)
10.09.2024 21:05 23,9 °C 16,2 °C 53 % 77 % 1007,8 hPa 0,0 l/m² 13,7 km/h (3 Bft) S 180 ° 0 min 0 W/m² 12,2 °C 13,1 °C 17,7 km/h (3 Bft)
10.09.2024 21:06 23,9 °C 16,1 °C 52 % 77 % 1007,9 hPa 0,0 l/m² 15,0 km/h (3 Bft) S 169 ° 0 min 0 W/m² 12,1 °C 12,5 °C 17,7 km/h (3 Bft)
10.09.2024 21:07 23,9 °C 16,1 °C 52 % 77 % 1007,9 hPa 0,0 l/m² 14,1 km/h (3 Bft) S 177 ° 0 min 0 W/m² 12,1 °C 12,8 °C 17,7 km/h (3 Bft)
10.09.2024 21:08 23,9 °C 16,1 °C 52 % 77 % 1007,9 hPa 0,0 l/m² 12,3 km/h (2 Bft) S-SO 163 ° 0 min 0 W/m² 12,1 °C 13,4 °C 17,7 km/h (3 Bft)
10.09.2024 21:09 23,8 °C 16,0 °C 52 % 77 % 1007,8 hPa 0,0 l/m² 13,4 km/h (3 Bft) S-SO 151 ° 0 min 0 W/m² 12,0 °C 12,9 °C 19,3 km/h (3 Bft)
10.09.2024 21:11 23,8 °C 16,0 °C 52 % 77 % 1007,8 hPa 0,0 l/m² 11,8 km/h (2 Bft) S 183 ° 0 min 0 W/m² 12,0 °C 13,5 °C 16,1 km/h (3 Bft)
10.09.2024 21:13 23,8 °C 15,9 °C 52 % 78 % 1007,8 hPa 0,0 l/m² 8,8 km/h (2 Bft) S 188 ° 0 min 0 W/m² 12,1 °C 14,7 °C 14,5 km/h (3 Bft)
10.09.2024 21:14 23,8 °C 15,9 °C 52 % 78 % 1007,8 hPa 0,0 l/m² 8,7 km/h (2 Bft) S 187 ° 0 min 0 W/m² 12,1 °C 14,7 °C 11,3 km/h (2 Bft)
10.09.2024 21:15 23,7 °C 15,9 °C 52 % 78 % 1007,8 hPa 0,0 l/m² 9,3 km/h (2 Bft) S 184 ° 0 min 0 W/m² 12,1 °C 14,4 °C 14,5 km/h (3 Bft)
10.09.2024 21:16 23,7 °C 15,8 °C 52 % 78 % 1007,8 hPa 0,0 l/m² 10,6 km/h (2 Bft) S 179 ° 0 min 0 W/m² 12,0 °C 13,7 °C 14,5 km/h (3 Bft)
10.09.2024 21:17 23,7 °C 15,8 °C 52 % 78 % 1007,8 hPa 0,0 l/m² 10,2 km/h (2 Bft) S 180 ° 0 min 0 W/m² 12,0 °C 13,9 °C 12,9 km/h (3 Bft)
10.09.2024 21:18 23,7 °C 15,8 °C 52 % 78 % 1007,8 hPa 0,0 l/m² 13,3 km/h (3 Bft) S 173 ° 0 min 0 W/m² 12,0 °C 12,7 °C 17,7 km/h (3 Bft)
10.09.2024 21:19 23,7 °C 15,8 °C 52 % 78 % 1007,8 hPa 0,0 l/m² 11,6 km/h (2 Bft) S-SO 167 ° 0 min 0 W/m² 12,0 °C 13,3 °C 14,5 km/h (3 Bft)
10.09.2024 21:21 23,7 °C 15,8 °C 52 % 78 % 1007,8 hPa 0,0 l/m² 9,6 km/h (2 Bft) S 182 ° 0 min 0 W/m² 12,0 °C 14,2 °C 16,1 km/h (3 Bft)
10.09.2024 21:22 23,7 °C 15,8 °C 52 % 79 % 1007,7 hPa 0,0 l/m² 10,9 km/h (2 Bft) S-SO 166 ° 0 min 0 W/m² 12,2 °C 13,6 °C 14,5 km/h (3 Bft)
10.09.2024 21:23 23,7 °C 15,8 °C 52 % 79 % 1007,8 hPa 0,0 l/m² 13,1 km/h (3 Bft) S-SO 156 ° 0 min 0 W/m² 12,2 °C 12,8 °C 17,7 km/h (3 Bft)
10.09.2024 21:24 23,7 °C 15,8 °C 52 % 79 % 1007,8 hPa 0,0 l/m² 13,5 km/h (3 Bft) S 169 ° 0 min 0 W/m² 12,2 °C 12,7 °C 17,7 km/h (3 Bft)
10.09.2024 21:25 23,7 °C 15,8 °C 52 % 79 % 1007,8 hPa 0,0 l/m² 10,7 km/h (2 Bft) S-SO 159 ° 0 min 0 W/m² 12,2 °C 13,7 °C 14,5 km/h (3 Bft)
10.09.2024 21:26 23,7 °C 15,8 °C 52 % 79 % 1007,7 hPa 0,0 l/m² 12,8 km/h (3 Bft) S-SO 158 ° 0 min 0 W/m² 12,2 °C 12,9 °C 17,7 km/h (3 Bft)
10.09.2024 21:27 23,7 °C 15,8 °C 52 % 79 % 1007,8 hPa 0,0 l/m² 13,0 km/h (3 Bft) S 178 ° 0 min 0 W/m² 12,2 °C 12,8 °C 19,3 km/h (3 Bft)
10.09.2024 21:28 23,7 °C 15,8 °C 52 % 79 % 1007,8 hPa 0,0 l/m² 13,3 km/h (3 Bft) S 170 ° 0 min 0 W/m² 12,2 °C 12,7 °C 17,7 km/h (3 Bft)
10.09.2024 21:29 23,7 °C 15,8 °C 52 % 79 % 1007,8 hPa 0,0 l/m² 11,2 km/h (2 Bft) S 188 ° 0 min 0 W/m² 12,2 °C 13,5 °C 16,1 km/h (3 Bft)
10.09.2024 21:30 23,7 °C 15,8 °C 53 % 79 % 1007,9 hPa 0,0 l/m² 11,9 km/h (2 Bft) S 181 ° 0 min 0 W/m² 12,2 °C 13,2 °C 17,7 km/h (3 Bft)
10.09.2024 21:31 23,7 °C 15,8 °C 53 % 79 % 1007,9 hPa 0,0 l/m² 14,1 km/h (3 Bft) S 173 ° 0 min 0 W/m² 12,2 °C 12,5 °C 17,7 km/h (3 Bft)
10.09.2024 21:32 23,7 °C 15,8 °C 53 % 79 % 1007,8 hPa 0,0 l/m² 10,5 km/h (2 Bft) S 172 ° 0 min 0 W/m² 12,2 °C 13,8 °C 16,1 km/h (3 Bft)
10.09.2024 21:33 23,7 °C 15,8 °C 53 % 79 % 1007,9 hPa 0,0 l/m² 11,8 km/h (2 Bft) S-SO 166 ° 0 min 0 W/m² 12,2 °C 13,3 °C 16,1 km/h (3 Bft)
10.09.2024 21:34 23,7 °C 15,8 °C 53 % 79 % 1007,8 hPa 0,0 l/m² 11,4 km/h (2 Bft) S 173 ° 0 min 0 W/m² 12,2 °C 13,4 °C 16,1 km/h (3 Bft)
10.09.2024 21:35 23,7 °C 15,8 °C 53 % 79 % 1007,9 hPa 0,0 l/m² 10,1 km/h (2 Bft) S-SO 165 ° 0 min 0 W/m² 12,2 °C 14,0 °C 12,9 km/h (3 Bft)
10.09.2024 21:36 23,7 °C 15,8 °C 53 % 79 % 1007,8 hPa 0,0 l/m² 8,6 km/h (2 Bft) S 176 ° 0 min 0 W/m² 12,2 °C 14,6 °C 11,3 km/h (2 Bft)
10.09.2024 21:37 23,7 °C 15,8 °C 53 % 79 % 1007,8 hPa 0,0 l/m² 8,3 km/h (2 Bft) S 183 ° 0 min 0 W/m² 12,2 °C 14,8 °C 9,7 km/h (2 Bft)
10.09.2024 21:38 23,7 °C 15,8 °C 53 % 79 % 1007,8 hPa 0,0 l/m² 8,2 km/h (2 Bft) S 188 ° 0 min 0 W/m² 12,2 °C 14,8 °C 14,5 km/h (3 Bft)
10.09.2024 21:39 23,7 °C 15,8 °C 53 % 79 % 1007,8 hPa 0,0 l/m² 10,2 km/h (2 Bft) S-SO 166 ° 0 min 0 W/m² 12,2 °C 13,9 °C 16,1 km/h (3 Bft)
10.09.2024 21:40 23,7 °C 15,8 °C 53 % 79 % 1007,8 hPa 0,0 l/m² 8,6 km/h (2 Bft) S-SO 165 ° 0 min 0 W/m² 12,2 °C 14,6 °C 12,9 km/h (3 Bft)
10.09.2024 21:41 23,7 °C 15,8 °C 53 % 79 % 1007,8 hPa 0,0 l/m² 11,9 km/h (2 Bft) S 182 ° 0 min 0 W/m² 12,2 °C 13,2 °C 16,1 km/h (3 Bft)
10.09.2024 21:42 23,7 °C 15,8 °C 53 % 79 % 1007,7 hPa 0,0 l/m² 10,0 km/h (2 Bft) S-SO 159 ° 0 min 0 W/m² 12,2 °C 14,0 °C 17,7 km/h (3 Bft)
10.09.2024 21:43 23,7 °C 15,8 °C 53 % 79 % 1007,8 hPa 0,0 l/m² 8,4 km/h (2 Bft) S-SO 162 ° 0 min 0 W/m² 12,2 °C 14,7 °C 11,3 km/h (2 Bft)
10.09.2024 21:45 23,7 °C 15,9 °C 53 % 79 % 1007,7 hPa 0,0 l/m² 9,6 km/h (2 Bft) S 190 ° 0 min 0 W/m² 12,3 °C 14,3 °C 16,1 km/h (3 Bft)
10.09.2024 21:46 23,7 °C 15,9 °C 53 % 79 % 1007,7 hPa 0,0 l/m² 8,7 km/h (2 Bft) S-SO 167 ° 0 min 0 W/m² 12,3 °C 14,7 °C 11,3 km/h (2 Bft)
10.09.2024 21:47 23,7 °C 15,9 °C 53 % 79 % 1007,6 hPa 0,0 l/m² 8,7 km/h (2 Bft) S-SO 150 ° 0 min 0 W/m² 12,3 °C 14,7 °C 12,9 km/h (3 Bft)
10.09.2024 21:48 23,8 °C 15,9 °C 53 % 79 % 1007,7 hPa 0,0 l/m² 9,5 km/h (2 Bft) S 173 ° 0 min 0 W/m² 12,3 °C 14,3 °C 12,9 km/h (3 Bft)
10.09.2024 21:49 23,8 °C 15,9 °C 53 % 79 % 1007,7 hPa 0,0 l/m² 10,1 km/h (2 Bft) S-SO 168 ° 0 min 0 W/m² 12,3 °C 14,1 °C 14,5 km/h (3 Bft)
10.09.2024 21:50 23,8 °C 16,0 °C 53 % 79 % 1007,7 hPa 0,0 l/m² 11,2 km/h (2 Bft) S 184 ° 0 min 0 W/m² 12,4 °C 13,7 °C 12,9 km/h (3 Bft)
10.09.2024 21:51 23,7 °C 15,9 °C 53 % 79 % 1007,7 hPa 0,0 l/m² 11,3 km/h (2 Bft) S 178 ° 0 min 0 W/m² 12,3 °C 13,6 °C 16,1 km/h (3 Bft)
10.09.2024 21:52 23,8 °C 16,0 °C 53 % 79 % 1007,6 hPa 0,0 l/m² 10,5 km/h (2 Bft) S-SO 165 ° 0 min 0 W/m² 12,4 °C 14,0 °C 14,5 km/h (3 Bft)
10.09.2024 21:53 23,8 °C 16,1 °C 53 % 79 % 1007,7 hPa 0,0 l/m² 7,2 km/h (2 Bft) S 187 ° 0 min 0 W/m² 12,5 °C 15,7 °C 11,3 km/h (2 Bft)
10.09.2024 21:54 23,8 °C 16,1 °C 53 % 79 % 1007,7 hPa 0,0 l/m² 8,6 km/h (2 Bft) S 175 ° 0 min 0 W/m² 12,5 °C 15,0 °C 11,3 km/h (2 Bft)
10.09.2024 21:55 23,8 °C 16,1 °C 53 % 79 % 1007,7 hPa 0,0 l/m² 8,1 km/h (2 Bft) S 177 ° 0 min 0 W/m² 12,5 °C 15,2 °C 11,3 km/h (2 Bft)
10.09.2024 21:56 23,8 °C 16,1 °C 53 % 79 % 1007,6 hPa 0,0 l/m² 7,7 km/h (2 Bft) S 178 ° 0 min 0 W/m² 12,5 °C 15,4 °C 9,7 km/h (2 Bft)
10.09.2024 21:57 23,8 °C 16,1 °C 54 % 79 % 1007,7 hPa 0,0 l/m² 9,5 km/h (2 Bft) S-SO 162 ° 0 min 0 W/m² 12,5 °C 14,6 °C 12,9 km/h (3 Bft)
10.09.2024 21:58 23,8 °C 16,1 °C 54 % 79 % 1007,7 hPa 0,0 l/m² 6,8 km/h (2 Bft) S 179 ° 0 min 0 W/m² 12,5 °C 15,9 °C 9,7 km/h (2 Bft)
10.09.2024 21:59 23,8 °C 16,1 °C 54 % 79 % 1007,7 hPa 0,0 l/m² 8,3 km/h (2 Bft) S 169 ° 0 min 0 W/m² 12,5 °C 15,1 °C 9,7 km/h (2 Bft)
10.09.2024 22:00 23,8 °C 16,1 °C 54 % 79 % 1007,7 hPa 0,0 l/m² 8,5 km/h (2 Bft) S-SO 167 ° 0 min 0 W/m² 12,5 °C 15,0 °C 11,3 km/h (2 Bft)
10.09.2024 22:01 23,8 °C 16,2 °C 54 % 79 % 1007,7 hPa 0,0 l/m² 8,4 km/h (2 Bft) S 184 ° 0 min 0 W/m² 12,6 °C 15,2 °C 9,7 km/h (2 Bft)
10.09.2024 22:02 23,8 °C 16,2 °C 54 % 79 % 1007,7 hPa 0,0 l/m² 8,4 km/h (2 Bft) S-SO 168 ° 0 min 0 W/m² 12,6 °C 15,2 °C 11,3 km/h (2 Bft)
10.09.2024 22:03 23,8 °C 16,2 °C 54 % 79 % 1007,7 hPa 0,0 l/m² 7,2 km/h (2 Bft) S-SO 158 ° 0 min 0 W/m² 12,6 °C 15,8 °C 9,7 km/h (2 Bft)
10.09.2024 22:04 23,8 °C 16,2 °C 54 % 79 % 1007,7 hPa 0,0 l/m² 8,4 km/h (2 Bft) S-SO 165 ° 0 min 0 W/m² 12,6 °C 15,2 °C 9,7 km/h (2 Bft)
10.09.2024 22:05 23,8 °C 16,2 °C 54 % 78 % 1007,7 hPa 0,0 l/m² 8,0 km/h (2 Bft) S-SO 163 ° 0 min 0 W/m² 12,4 °C 15,4 °C 9,7 km/h (2 Bft)
10.09.2024 22:07 23,8 °C 16,2 °C 54 % 79 % 1007,6 hPa 0,0 l/m² 7,5 km/h (2 Bft) S 180 ° 0 min 0 W/m² 12,6 °C 15,6 °C 9,7 km/h (2 Bft)
10.09.2024 22:08 23,8 °C 16,2 °C 54 % 78 % 1007,6 hPa 0,0 l/m² 6,1 km/h (2 Bft) S 174 ° 0 min 0 W/m² 12,4 °C 16,2 °C 8,0 km/h (2 Bft)
10.09.2024 22:09 23,8 °C 16,3 °C 54 % 78 % 1007,6 hPa 0,0 l/m² 8,5 km/h (2 Bft) S 170 ° 0 min 0 W/m² 12,5 °C 15,2 °C 11,3 km/h (2 Bft)
10.09.2024 22:10 23,8 °C 16,3 °C 54 % 78 % 1007,5 hPa 0,0 l/m² 9,3 km/h (2 Bft) S-SO 167 ° 0 min 0 W/m² 12,5 °C 14,9 °C 14,5 km/h (3 Bft)
10.09.2024 22:12 23,8 °C 16,3 °C 54 % 78 % 1007,6 hPa 0,0 l/m² 9,9 km/h (2 Bft) S-SO 163 ° 0 min 0 W/m² 12,5 °C 14,6 °C 14,5 km/h (3 Bft)
10.09.2024 22:13 23,8 °C 16,3 °C 54 % 78 % 1007,6 hPa 0,0 l/m² 10,9 km/h (2 Bft) S-SO 161 ° 0 min 0 W/m² 12,5 °C 14,2 °C 12,9 km/h (3 Bft)
10.09.2024 22:14 23,8 °C 16,3 °C 54 % 78 % 1007,6 hPa 0,0 l/m² 10,8 km/h (2 Bft) S-SW 194 ° 0 min 0 W/m² 12,5 °C 14,2 °C 14,5 km/h (3 Bft)
10.09.2024 22:15 23,8 °C 16,3 °C 54 % 78 % 1007,7 hPa 0,0 l/m² 11,1 km/h (2 Bft) S 171 ° 0 min 0 W/m² 12,5 °C 14,1 °C 16,1 km/h (3 Bft)
10.09.2024 22:16 23,8 °C 16,3 °C 54 % 78 % 1007,6 hPa 0,0 l/m² 8,6 km/h (2 Bft) S 182 ° 0 min 0 W/m² 12,5 °C 15,2 °C 9,7 km/h (2 Bft)
10.09.2024 22:17 23,8 °C 16,3 °C 54 % 78 % 1007,6 hPa 0,0 l/m² 11,5 km/h (2 Bft) S 170 ° 0 min 0 W/m² 12,5 °C 14,0 °C 17,7 km/h (3 Bft)
10.09.2024 22:18 23,8 °C 16,3 °C 54 % 78 % 1007,6 hPa 0,0 l/m² 10,5 km/h (2 Bft) S-SO 167 ° 0 min 0 W/m² 12,5 °C 14,3 °C 14,5 km/h (3 Bft)
10.09.2024 22:19 23,8 °C 16,3 °C 54 % 78 % 1007,5 hPa 0,0 l/m² 8,4 km/h (2 Bft) S 174 ° 0 min 0 W/m² 12,5 °C 15,3 °C 11,3 km/h (2 Bft)
10.09.2024 22:20 23,8 °C 16,3 °C 54 % 78 % 1007,7 hPa 0,0 l/m² 8,3 km/h (2 Bft) S 178 ° 0 min 0 W/m² 12,5 °C 15,3 °C 11,3 km/h (2 Bft)
10.09.2024 22:21 23,8 °C 16,3 °C 54 % 78 % 1007,6 hPa 0,0 l/m² 12,4 km/h (2 Bft) S 175 ° 0 min 0 W/m² 12,5 °C 13,6 °C 19,3 km/h (3 Bft)
10.09.2024 22:22 23,8 °C 16,3 °C 54 % 78 % 1007,5 hPa 0,0 l/m² 13,0 km/h (3 Bft) S 185 ° 0 min 0 W/m² 12,5 °C 13,4 °C 17,7 km/h (3 Bft)
10.09.2024 22:23 23,8 °C 16,3 °C 54 % 78 % 1007,5 hPa 0,0 l/m² 12,5 km/h (2 Bft) S 187 ° 0 min 0 W/m² 12,5 °C 13,6 °C 16,1 km/h (3 Bft)
10.09.2024 22:24 23,8 °C 16,3 °C 54 % 78 % 1007,6 hPa 0,0 l/m² 9,9 km/h (2 Bft) S-SO 165 ° 0 min 0 W/m² 12,5 °C 14,6 °C 12,9 km/h (3 Bft)
10.09.2024 22:25 23,8 °C 16,3 °C 54 % 78 % 1007,5 hPa 0,0 l/m² 8,9 km/h (2 Bft) S-SO 167 ° 0 min 0 W/m² 12,5 °C 15,0 °C 12,9 km/h (3 Bft)
10.09.2024 22:26 23,8 °C 16,3 °C 54 % 78 % 1007,5 hPa 0,0 l/m² 10,3 km/h (2 Bft) S 178 ° 0 min 0 W/m² 12,5 °C 14,4 °C 14,5 km/h (3 Bft)
10.09.2024 22:27 23,8 °C 16,3 °C 54 % 78 % 1007,6 hPa 0,0 l/m² 12,0 km/h (2 Bft) S-SO 165 ° 0 min 0 W/m² 12,5 °C 13,8 °C 16,1 km/h (3 Bft)
10.09.2024 22:28 23,8 °C 16,3 °C 54 % 78 % 1007,6 hPa 0,0 l/m² 8,9 km/h (2 Bft) S 173 ° 0 min 0 W/m² 12,5 °C 15,0 °C 14,5 km/h (3 Bft)
10.09.2024 22:29 23,9 °C 16,4 °C 54 % 78 % 1007,5 hPa 0,0 l/m² 10,3 km/h (2 Bft) S-SO 167 ° 0 min 0 W/m² 12,6 °C 14,5 °C 16,1 km/h (3 Bft)
10.09.2024 22:30 23,8 °C 16,3 °C 54 % 78 % 1007,5 hPa 0,0 l/m² 9,7 km/h (2 Bft) S-SW 193 ° 0 min 0 W/m² 12,5 °C 14,7 °C 12,9 km/h (3 Bft)
10.09.2024 22:31 23,8 °C 16,4 °C 54 % 78 % 1007,5 hPa 0,0 l/m² 10,3 km/h (2 Bft) S-SO 151 ° 0 min 0 W/m² 12,6 °C 14,5 °C 12,9 km/h (3 Bft)
10.09.2024 22:32 23,8 °C 16,3 °C 54 % 78 % 1007,6 hPa 0,0 l/m² 8,1 km/h (2 Bft) S-SO 150 ° 0 min 0 W/m² 12,5 °C 15,4 °C 11,3 km/h (2 Bft)
10.09.2024 22:33 23,8 °C 16,4 °C 54 % 78 % 1007,5 hPa 0,0 l/m² 10,3 km/h (2 Bft) S 174 ° 0 min 0 W/m² 12,6 °C 14,5 °C 14,5 km/h (3 Bft)
10.09.2024 22:34 23,9 °C 16,4 °C 54 % 77 % 1007,6 hPa 0,0 l/m² 10,6 km/h (2 Bft) SO 133 ° 0 min 0 W/m² 12,4 °C 14,4 °C 12,9 km/h (3 Bft)
10.09.2024 22:35 23,9 °C 16,4 °C 54 % 78 % 1007,6 hPa 0,0 l/m² 9,4 km/h (2 Bft) S 171 ° 0 min 0 W/m² 12,6 °C 14,9 °C 12,9 km/h (3 Bft)
10.09.2024 22:37 23,9 °C 16,4 °C 54 % 78 % 1007,6 hPa 0,0 l/m² 8,5 km/h (2 Bft) S-SO 153 ° 0 min 0 W/m² 12,6 °C 15,3 °C 12,9 km/h (3 Bft)
10.09.2024 22:38 23,9 °C 16,4 °C 54 % 78 % 1007,6 hPa 0,0 l/m² 7,9 km/h (2 Bft) SO 146 ° 0 min 0 W/m² 12,6 °C 15,6 °C 11,3 km/h (2 Bft)
10.09.2024 22:39 23,9 °C 16,3 °C 54 % 78 % 1007,6 hPa 0,0 l/m² 7,8 km/h (2 Bft) SO 146 ° 0 min 0 W/m² 12,5 °C 15,6 °C 9,7 km/h (2 Bft)
10.09.2024 22:40 23,9 °C 16,3 °C 54 % 78 % 1007,6 hPa 0,0 l/m² 4,2 km/h (1 Bft) S-SO 155 ° 0 min 0 W/m² 12,5 °C 16,3 °C 8,0 km/h (2 Bft)
10.09.2024 22:41 23,9 °C 16,3 °C 54 % 79 % 1007,5 hPa 0,0 l/m² 6,5 km/h (2 Bft) S-SO 164 ° 0 min 0 W/m² 12,6 °C 16,3 °C 9,7 km/h (2 Bft)
10.09.2024 22:42 23,9 °C 16,3 °C 54 % 78 % 1007,6 hPa 0,0 l/m² 9,1 km/h (2 Bft) S 174 ° 0 min 0 W/m² 12,5 °C 14,9 °C 9,7 km/h (2 Bft)
10.09.2024 22:43 23,9 °C 16,3 °C 54 % 78 % 1007,5 hPa 0,0 l/m² 4,7 km/h (1 Bft) S 173 ° 0 min 0 W/m² 12,5 °C 16,3 °C 9,7 km/h (2 Bft)
10.09.2024 22:44 23,9 °C 16,3 °C 54 % 78 % 1007,5 hPa 0,0 l/m² 6,4 km/h (2 Bft) S 187 ° 0 min 0 W/m² 12,5 °C 16,3 °C 11,3 km/h (2 Bft)
10.09.2024 22:45 23,9 °C 16,3 °C 54 % 79 % 1007,5 hPa 0,0 l/m² 7,7 km/h (2 Bft) S-SO 161 ° 0 min 0 W/m² 12,6 °C 15,6 °C 11,3 km/h (2 Bft)
10.09.2024 22:46 23,9 °C 16,3 °C 54 % 79 % 1007,6 hPa 0,0 l/m² 8,9 km/h (2 Bft) S-SO 162 ° 0 min 0 W/m² 12,6 °C 15,0 °C 11,3 km/h (2 Bft)
10.09.2024 22:47 23,9 °C 16,2 °C 54 % 79 % 1007,5 hPa 0,0 l/m² 5,7 km/h (2 Bft) S-SO 159 ° 0 min 0 W/m² 12,6 °C 16,2 °C 8,0 km/h (2 Bft)
10.09.2024 22:48 23,9 °C 16,2 °C 54 % 79 % 1007,5 hPa 0,0 l/m² 7,7 km/h (2 Bft) S 184 ° 0 min 0 W/m² 12,6 °C 15,5 °C 9,7 km/h (2 Bft)
10.09.2024 22:49 23,9 °C 16,2 °C 54 % 79 % 1007,6 hPa 0,0 l/m² 8,1 km/h (2 Bft) S 173 ° 0 min 0 W/m² 12,6 °C 15,3 °C 9,7 km/h (2 Bft)
10.09.2024 22:50 23,9 °C 16,2 °C 54 % 79 % 1007,6 hPa 0,0 l/m² 7,8 km/h (2 Bft) S-SO 167 ° 0 min 0 W/m² 12,6 °C 15,5 °C 9,7 km/h (2 Bft)
10.09.2024 22:51 23,9 °C 16,2 °C 54 % 79 % 1007,6 hPa 0,0 l/m² 8,2 km/h (2 Bft) S 169 ° 0 min 0 W/m² 12,6 °C 15,3 °C 9,7 km/h (2 Bft)
10.09.2024 22:52 23,9 °C 16,2 °C 54 % 79 % 1007,5 hPa 0,0 l/m² 9,1 km/h (2 Bft) S-SO 160 ° 0 min 0 W/m² 12,6 °C 14,8 °C 11,3 km/h (2 Bft)
10.09.2024 22:53 23,8 °C 16,2 °C 54 % 79 % 1007,6 hPa 0,0 l/m² 7,9 km/h (2 Bft) S-SO 156 ° 0 min 0 W/m² 12,6 °C 15,4 °C 9,7 km/h (2 Bft)
10.09.2024 22:54 23,9 °C 16,1 °C 54 % 79 % 1007,5 hPa 0,0 l/m² 8,2 km/h (2 Bft) S-SO 164 ° 0 min 0 W/m² 12,5 °C 15,2 °C 11,3 km/h (2 Bft)
10.09.2024 22:55 23,9 °C 16,1 °C 54 % 80 % 1007,5 hPa 0,0 l/m² 5,8 km/h (2 Bft) S-SO 163 ° 0 min 0 W/m² 12,6 °C 16,1 °C 8,0 km/h (2 Bft)
10.09.2024 22:56 23,9 °C 16,1 °C 54 % 80 % 1007,5 hPa 0,0 l/m² 6,3 km/h (2 Bft) S-SO 163 ° 0 min 0 W/m² 12,6 °C 16,1 °C 9,7 km/h (2 Bft)
10.09.2024 22:57 23,8 °C 16,1 °C 54 % 80 % 1007,4 hPa 0,0 l/m² 6,0 km/h (2 Bft) S-SO 159 ° 0 min 0 W/m² 12,6 °C 16,1 °C 9,7 km/h (2 Bft)
10.09.2024 22:58 23,8 °C 16,1 °C 54 % 80 % 1007,4 hPa 0,0 l/m² 6,7 km/h (2 Bft) S 173 ° 0 min 0 W/m² 12,6 °C 16,0 °C 9,7 km/h (2 Bft)
10.09.2024 22:59 23,9 °C 16,1 °C 54 % 81 % 1007,3 hPa 0,0 l/m² 7,1 km/h (2 Bft) S-SO 168 ° 0 min 0 W/m² 12,8 °C 15,7 °C 8,0 km/h (2 Bft)
10.09.2024 23:00 23,8 °C 16,1 °C 54 % 81 % 1007,3 hPa 0,0 l/m² 6,1 km/h (2 Bft) S-SO 159 ° 0 min 0 W/m² 12,8 °C 16,1 °C 9,7 km/h (2 Bft)
10.09.2024 23:01 23,8 °C 16,0 °C 54 % 81 % 1007,3 hPa 0,0 l/m² 4,6 km/h (1 Bft) S-SO 168 ° 0 min 0 W/m² 12,7 °C 16,0 °C 6,4 km/h (2 Bft)
10.09.2024 23:02 23,8 °C 16,0 °C 54 % 81 % 1007,4 hPa 0,0 l/m² 2,8 km/h (1 Bft) S-SO 168 ° 0 min 0 W/m² 12,7 °C 16,0 °C 6,4 km/h (2 Bft)
10.09.2024 23:03 23,8 °C 16,0 °C 54 % 81 % 1007,3 hPa 0,0 l/m² 5,6 km/h (2 Bft) S-SO 163 ° 0 min 0 W/m² 12,7 °C 16,0 °C 8,0 km/h (2 Bft)
10.09.2024 23:04 23,8 °C 16,0 °C 54 % 81 % 1007,4 hPa 0,0 l/m² 6,4 km/h (2 Bft) S-SO 167 ° 0 min 0 W/m² 12,7 °C 16,0 °C 8,0 km/h (2 Bft)
10.09.2024 23:05 23,8 °C 16,0 °C 54 % 81 % 1007,5 hPa 0,0 l/m² 8,0 km/h (2 Bft) S-SO 163 ° 0 min 0 W/m² 12,7 °C 15,2 °C 9,7 km/h (2 Bft)
10.09.2024 23:06 23,8 °C 15,9 °C 54 % 81 % 1007,4 hPa 0,0 l/m² 7,2 km/h (2 Bft) S 170 ° 0 min 0 W/m² 12,6 °C 15,5 °C 8,0 km/h (2 Bft)
10.09.2024 23:07 23,8 °C 15,9 °C 54 % 81 % 1007,4 hPa 0,0 l/m² 5,8 km/h (2 Bft) S 172 ° 0 min 0 W/m² 12,6 °C 15,9 °C 8,0 km/h (2 Bft)
10.09.2024 23:08 23,8 °C 15,9 °C 54 % 81 % 1007,4 hPa 0,0 l/m² 6,7 km/h (2 Bft) S 181 ° 0 min 0 W/m² 12,6 °C 15,7 °C 8,0 km/h (2 Bft)
10.09.2024 23:09 23,8 °C 15,9 °C 54 % 81 % 1007,4 hPa 0,0 l/m² 4,6 km/h (1 Bft) S 182 ° 0 min 0 W/m² 12,6 °C 15,9 °C 6,4 km/h (2 Bft)
10.09.2024 23:10 23,8 °C 16,0 °C 54 % 81 % 1007,5 hPa 0,0 l/m² 5,7 km/h (2 Bft) S 172 ° 0 min 0 W/m² 12,7 °C 16,0 °C 9,7 km/h (2 Bft)
10.09.2024 23:11 23,8 °C 15,9 °C 54 % 81 % 1007,5 hPa 0,0 l/m² 6,5 km/h (2 Bft) S 171 ° 0 min 0 W/m² 12,6 °C 15,9 °C 8,0 km/h (2 Bft)
10.09.2024 23:12 23,8 °C 15,9 °C 54 % 81 % 1007,5 hPa 0,0 l/m² 5,6 km/h (2 Bft) S 183 ° 0 min 0 W/m² 12,6 °C 15,9 °C 6,4 km/h (2 Bft)
10.09.2024 23:13 23,8 °C 15,9 °C 54 % 82 % 1007,4 hPa 0,0 l/m² 5,7 km/h (2 Bft) S 186 ° 0 min 0 W/m² 12,8 °C 15,9 °C 8,0 km/h (2 Bft)
10.09.2024 23:14 23,8 °C 16,0 °C 54 % 82 % 1007,5 hPa 0,2 l/m² 7,0 km/h (2 Bft) S 189 ° 0 min 0 W/m² 12,9 °C 15,7 °C 8,0 km/h (2 Bft)
10.09.2024 23:15 23,8 °C 15,9 °C 54 % 81 % 1007,5 hPa 0,0 l/m² 5,5 km/h (2 Bft) S 188 ° 0 min 0 W/m² 12,6 °C 15,9 °C 6,4 km/h (2 Bft)
10.09.2024 23:16 23,8 °C 15,9 °C 54 % 82 % 1007,5 hPa 0,0 l/m² 4,8 km/h (1 Bft) S 180 ° 0 min 0 W/m² 12,8 °C 15,9 °C 6,4 km/h (2 Bft)
10.09.2024 23:17 23,8 °C 15,9 °C 55 % 82 % 1007,5 hPa 0,0 l/m² 8,0 km/h (2 Bft) S 180 ° 0 min 0 W/m² 12,8 °C 15,0 °C 9,7 km/h (2 Bft)
10.09.2024 23:23 23,8 °C 15,9 °C 55 % 82 % 1007,5 hPa 0,0 l/m² 5,4 km/h (2 Bft) S 191 ° 0 min 0 W/m² 12,8 °C 15,9 °C 6,4 km/h (2 Bft)
10.09.2024 23:25 23,8 °C 15,9 °C 55 % 82 % 1007,4 hPa 0,0 l/m² 7,1 km/h (2 Bft) S-SW 210 ° 0 min 0 W/m² 12,8 °C 15,5 °C 9,7 km/h (2 Bft)
10.09.2024 23:27 23,8 °C 15,9 °C 55 % 81 % 1007,4 hPa 0,0 l/m² 8,3 km/h (2 Bft) S-SW 202 ° 0 min 0 W/m² 12,6 °C 14,9 °C 11,3 km/h (2 Bft)
10.09.2024 23:29 23,8 °C 15,9 °C 55 % 81 % 1007,5 hPa 0,0 l/m² 9,8 km/h (2 Bft) SW 215 ° 0 min 0 W/m² 12,6 °C 14,2 °C 12,9 km/h (3 Bft)
10.09.2024 23:30 23,8 °C 16,0 °C 55 % 81 % 1007,4 hPa 0,0 l/m² 10,0 km/h (2 Bft) SW 221 ° 0 min 0 W/m² 12,7 °C 14,2 °C 12,9 km/h (3 Bft)
10.09.2024 23:31 23,8 °C 16,0 °C 55 % 81 % 1007,5 hPa 0,0 l/m² 9,2 km/h (2 Bft) S-SW 208 ° 0 min 0 W/m² 12,7 °C 14,6 °C 12,9 km/h (3 Bft)
10.09.2024 23:32 23,8 °C 16,1 °C 55 % 81 % 1007,4 hPa 0,0 l/m² 8,8 km/h (2 Bft) S-SW 205 ° 0 min 0 W/m² 12,8 °C 14,9 °C 11,3 km/h (2 Bft)
10.09.2024 23:34 23,8 °C 16,1 °C 55 % 81 % 1007,4 hPa 0,0 l/m² 9,9 km/h (2 Bft) SW 221 ° 0 min 0 W/m² 12,8 °C 14,4 °C 11,3 km/h (2 Bft)
10.09.2024 23:35 23,8 °C 16,1 °C 55 % 81 % 1007,4 hPa 0,0 l/m² 10,5 km/h (2 Bft) SW 215 ° 0 min 0 W/m² 12,8 °C 14,1 °C 14,5 km/h (3 Bft)
10.09.2024 23:37 23,8 °C 16,0 °C 55 % 81 % 1007,3 hPa 0,0 l/m² 10,6 km/h (2 Bft) S 191 ° 0 min 0 W/m² 12,7 °C 14,0 °C 16,1 km/h (3 Bft)
10.09.2024 23:39 23,8 °C 16,1 °C 55 % 81 % 1007,4 hPa 0,0 l/m² 10,0 km/h (2 Bft) S-SW 211 ° 0 min 0 W/m² 12,8 °C 14,3 °C 14,5 km/h (3 Bft)
10.09.2024 23:40 23,8 °C 16,1 °C 55 % 81 % 1007,3 hPa 0,0 l/m² 11,0 km/h (2 Bft) S-SW 194 ° 0 min 0 W/m² 12,8 °C 13,9 °C 16,1 km/h (3 Bft)
10.09.2024 23:41 23,8 °C 16,0 °C 55 % 81 % 1007,2 hPa 0,0 l/m² 10,1 km/h (2 Bft) S-SW 209 ° 0 min 0 W/m² 12,7 °C 14,2 °C 12,9 km/h (3 Bft)
10.09.2024 23:42 23,8 °C 16,1 °C 55 % 81 % 1007,3 hPa 0,0 l/m² 9,4 km/h (2 Bft) S-SW 200 ° 0 min 0 W/m² 12,8 °C 14,6 °C 11,3 km/h (2 Bft)
10.09.2024 23:44 23,8 °C 16,0 °C 55 % 81 % 1007,2 hPa 0,0 l/m² 9,3 km/h (2 Bft) SW 214 ° 0 min 0 W/m² 12,7 °C 14,5 °C 12,9 km/h (3 Bft)
10.09.2024 23:45 23,8 °C 16,0 °C 55 % 81 % 1007,2 hPa 0,0 l/m² 6,8 km/h (2 Bft) S-SW 198 ° 0 min 0 W/m² 12,7 °C 15,8 °C 8,0 km/h (2 Bft)
10.09.2024 23:47 23,8 °C 16,0 °C 55 % 81 % 1007,2 hPa 0,0 l/m² 8,8 km/h (2 Bft) S-SW 205 ° 0 min 0 W/m² 12,7 °C 14,8 °C 11,3 km/h (2 Bft)
10.09.2024 23:49 23,8 °C 16,0 °C 55 % 82 % 1007,1 hPa 0,0 l/m² 7,0 km/h (2 Bft) S-SW 210 ° 0 min 0 W/m² 12,9 °C 15,7 °C 9,7 km/h (2 Bft)
10.09.2024 23:50 23,8 °C 15,9 °C 55 % 82 % 1007,2 hPa 0,0 l/m² 8,8 km/h (2 Bft) S-SW 201 ° 0 min 0 W/m² 12,8 °C 14,7 °C 11,3 km/h (2 Bft)
10.09.2024 23:51 23,8 °C 15,9 °C 55 % 81 % 1007,1 hPa 0,0 l/m² 8,3 km/h (2 Bft) S-SW 202 ° 0 min 0 W/m² 12,6 °C 14,9 °C 9,7 km/h (2 Bft)
10.09.2024 23:52 23,8 °C 15,9 °C 55 % 81 % 1007,1 hPa 0,0 l/m² 8,6 km/h (2 Bft) S 182 ° 0 min 0 W/m² 12,6 °C 14,8 °C 11,3 km/h (2 Bft)
10.09.2024 23:54 23,8 °C 16,0 °C 55 % 81 % 1007,1 hPa 0,0 l/m² 9,5 km/h (2 Bft) S-SW 193 ° 0 min 0 W/m² 12,7 °C 14,4 °C 14,5 km/h (3 Bft)
10.09.2024 23:56 23,8 °C 16,0 °C 55 % 81 % 1007,1 hPa 0,0 l/m² 9,9 km/h (2 Bft) S 186 ° 0 min 0 W/m² 12,7 °C 14,3 °C 17,7 km/h (3 Bft)
10.09.2024 23:58 23,8 °C 16,1 °C 55 % 81 % 1007,0 hPa 0,0 l/m² 11,7 km/h (2 Bft) S-SW 210 ° 0 min 0 W/m² 12,8 °C 13,7 °C 17,7 km/h (3 Bft)
_ Min-Zeit 08:36 08:40 21:29 15:42 00:05 - 02:54 - - - - 10:36 05:38 01:57
Minimum _ 23,6 °C 14,3 °C 52 % 61 % 1005,7 hPa - 0,0 km/h (0 Bft) - - - - 10,7 °C 10,7 °C 0,0 km/h (0 Bft)
_ Max-Zeit 13:23 16:27 05:54 00:00 10:16 23:14 17:07 - - 18:23 12:44 00:00 18:04 17:07
Maximum _ 25,1 °C 19,7 °C 60 % 93 % 1011,1 hPa 0,2 l/m² 25,7 km/h
S-SW (4 Bft)
- - 2 min 939 W/m² 15,3 °C 18,0 °C 37,0 km/h
SW (5 Bft)
Durchschnitt _ 24,1 °C 16,8 °C 56 % 78 % 1008,8 hPa #0,6 l/m² 10,8 km/h (2 Bft) SW - #10:29 h 164 W/m² 12,8 °C 15,0 °C 15,9 km/h (3 Bft)
© 2009 Mathias Hoßbach